[[[{"header":{"parameterUnit":"kt","parameterCategory":2,"dx":1,"dy":1,"la1":29.587661999999998,"la2":31.0,"lo1":-88.76705300000003,"lo2":-86.6583820000003,"nx":115,"ny":88,"refTime":"2022-10-22T12:00:00:Z","depth":0,"parameterNumber":1,"parameterNumberName":"U-component_of_WINDS"},"data":[-12.2728,-12.2728,-12.2728,-12.2728,-12.2728,-12.2728,-12.2728,-12.2848,-12.3953,-12.5117,-12.6513,-12.7618,-12.8665,-12.9828,-13.0003,-13.0235,-13.0235,-13.0235,-13.0235,-13.0235,-13.0235,-13.0235,-12.9161,-12.7046,-12.2242,-11.8419,-11.5313,-11.2677,-10.9799,-10.928,-10.928,-10.928,-10.928,-10.8743,-10.7719,-10.6694,-10.5766,-10.4741,-10.3765,-10.3082,-10.2984,-10.285,-10.2753,-10.2753,-10.2753,-10.2753,-10.2753,-10.2753,-10.2753,-10.2753,-10.2753,-10.2753,-10.2753,-10.2753,-10.2753,-10.2753,-10.2753,-10.2753,-10.2643,-10.2496,-10.1715,-10.0837,-9.9714,-9.8689,-9.7713,-9.6639,-9.659,-9.627,-9.5719,-9.3851,-9.1789,-9.0756,-9.0191,-8.6599,-8.1891,-7.8412,-7.5788,-7.4597,-7.287,-7.1489,-7.073,-7.0312,-7.0047,-7.0047,-7.0047,-7.0047,-7.0047,-7.0047,-7.0047,-7.0047,-7.0047,-7.0274,-7.054,-7.035,-7.0274,-7.0426,-7.0274,-7.0085,-6.9819,-6.9135,-6.849,-6.7883,-6.7275,-6.6744,-6.6933,-6.7275,-6.7427,-6.7427,-6.8452,-6.9477,-6.9857,-6.8533,-6.4466,-6.0312,-5.5085,-12.2669,-12.2728,-12.2728,-12.2728,-12.2728,-12.2728,-12.2728,-12.279,-12.3837,-12.5117,-12.6222,-12.6513,-12.7385,-12.8607,-12.9595,-13.0003,-13.0235,-13.0235,-13.0235,-13.0235,-13.0235,-13.0235,-12.9938,-12.9402,-12.6554,-12.2753,-11.7544,-11.3317,-10.9374,-10.9085,-10.9085,-10.9232,-10.9036,-10.8695,-10.767,-10.6547,-10.5376,-10.4204,-10.3521,-10.285,-10.2753,-10.2753,-10.2753,-10.2753,-10.2753,-10.2753,-10.2753,-10.2753,-10.2753,-10.2753,-10.2753,-10.2753,-10.2753,-10.2753,-10.2753,-10.2753,-10.2753,-10.2704,-10.2594,-10.2008,-10.1081,-10.0007,-9.8836,-9.7859,-9.6981,-9.6444,-9.6444,-9.6395,-9.6395,-9.504,-9.2607,-9.1144,-9.1098,-8.9494,-8.4065,-7.9221,-7.7691,-7.6134,-7.386,-7.1337,-7.073,-7.016,-7.0047,-7.0047,-7.0047,-7.0047,-7.0047,-7.0047,-7.0047,-7.016,-7.0312,-7.0578,-7.1034,-7.1186,-7.1148,-7.1034,-7.0768,-7.054,-7.0085,-6.9363,-6.8566,-6.7427,-6.6706,-6.6516,-6.6668,-6.6933,-6.7085,-6.7389,-6.8528,-6.9705,-6.9385,-6.8347,-6.4388,-5.9812,-5.4673,-12.1976,-12.2728,-12.2728,-12.2728,-12.2728,-12.2728,-12.2728,-12.2786,-12.3197,-12.4128,-12.5175,-12.5407,-12.6454,-12.8374,-12.8839,-12.9305,-13.0177,-13.0177,-13.0235,-13.0235,-13.0235,-13.0235,-13.0235,-12.9938,-12.8621,-12.6677,-12.0643,-11.4583,-10.9793,-10.889,-10.8543,-10.8255,-10.7572,-10.684,-10.5864,-10.5376,-10.4546,-10.3619,-10.3179,-10.2801,-10.2753,-10.2753,-10.2753,-10.2753,-10.2753,-10.2753,-10.2753,-10.2753,-10.2753,-10.2753,-10.2753,-10.2753,-10.2753,-10.2753,-10.2753,-10.2753,-10.2789,-10.2594,-10.2057,-10.1422,-10.0593,-9.9324,-9.8103,-9.7518,-9.6639,-9.6395,-9.6395,-9.6395,-9.6395,-9.6395,-9.3978,-9.3246,-9.3246,-9.2385,-8.7874,-8.4527,-8.3002,-7.9477,-7.4958,-7.2427,-7.0635,-7.0141,-7.0047,-7.0047,-7.0047,-7.0047,-7.0047,-7.0047,-7.0236,-7.0388,-7.0654,-7.0996,-7.1679,-7.1945,-7.1869,-7.1641,-7.1261,-7.0768,-7.035,-6.9325,-6.8148,-6.6971,-6.6098,-6.5946,-6.5984,-6.644,-6.7009,-6.7351,-6.83,-6.9591,-6.9008,-6.8123,-6.3629,-5.9314,-5.5021,-12.1452,-12.2615,-12.2728,-12.2728,-12.2728,-12.2728,-12.2728,-12.2728,-12.2728,-12.3197,-12.3953,-12.4419,-12.5524,-12.7211,-12.7909,-12.8839,-12.9712,-12.9886,-13.0177,-13.0235,-13.0235,-13.0235,-13.0235,-13.0235,-13.0116,-12.7957,-12.3767,-11.7358,-11.4429,-11.0894,-10.8776,-10.737,-10.6791,-10.5864,-10.479,-10.4644,-10.4058,-10.3179,-10.2753,-10.2753,-10.2753,-10.2753,-10.2753,-10.2753,-10.2753,-10.2753,-10.2753,-10.2753,-10.2753,-10.2753,-10.2753,-10.2753,-10.2753,-10.2753,-10.2753,-10.2704,-10.2545,-10.2057,-10.1422,-10.0544,-9.9616,-9.8445,-9.7664,-9.7127,-9.6737,-9.6542,-9.6395,-9.6395,-9.6395,-9.6395,-9.6144,-9.6096,-9.5796,-9.4342,-9.2372,-9.1192,-8.9845,-8.3477,-7.6463,-7.3452,-7.0954,-7.0141,-7.0009,-7.0047,-7.0047,-7.0047,-7.0047,-7.0085,-7.0274,-7.0882,-7.1186,-7.1717,-7.2362,-7.2818,-7.259,-7.2325,-7.1679,-7.1148,-7.0236,-6.8984,-6.7731,-6.6895,-6.6174,-6.5718,-6.5529,-6.6326,-6.6933,-6.7275,-6.811,-6.9363,-6.9272,-6.835,-6.4536,-5.9378,-5.5511,-12.1394,-12.2557,-12.2728,-12.2728,-12.2728,-12.2728,-12.2728,-12.2728,-12.2728,-12.2674,-12.2964,-12.3895,-12.4535,-12.5466,-12.692,-12.7967,-12.8897,-12.9595,-12.9886,-13.0235,-13.0235,-13.0235,-13.0235,-13.0235,-13.0235,-12.7836,-12.4452,-12.0772,-12.0318,-11.5383,-10.9356,-10.6343,-10.5864,-10.5181,-10.4253,-10.4156,-10.3716,-10.285,-10.2753,-10.2753,-10.2753,-10.2753,-10.2753,-10.2753,-10.2753,-10.2753,-10.2753,-10.2753,-10.2753,-10.2753,-10.2753,-10.2753,-10.2753,-10.2753,-10.2753,-10.2558,-10.2057,-10.152,-10.0837,-9.9616,-9.8543,-9.7811,-9.7127,-9.6688,-9.6542,-9.6444,-9.6395,-9.6395,-9.6395,-9.6395,-9.6249,-9.6151,-9.5809,-9.477,-9.3384,-9.209,-9.0287,-8.6138,-8.0168,-7.6937,-7.4037,-7.0762,-7.0537,-7.0047,-7.0047,-7.0047,-7.0047,-7.0047,-7.0502,-7.1413,-7.1907,-7.24,-7.3274,-7.3995,-7.3615,-7.297,-7.2249,-7.1148,-6.9933,-6.8756,-6.7693,-6.6933,-6.6212,-6.5643,-6.5187,-6.606,-6.6971,-6.7313,-6.7958,-6.9097,-6.9232,-6.8571,-6.4989,-5.9577,-5.5421,-12.0289,-12.151,-12.2266,-12.2728,-12.2728,-12.2728,-12.2728,-12.2728,-12.2728,-12.2728,-12.2786,-12.3139,-12.3721,-12.4477,-12.5524,-12.6862,-12.8199,-12.8956,-12.9654,-12.9944,-13.0235,-13.0235,-13.0235,-13.0235,-13.0235,-12.8742,-12.6127,-12.3096,-12.1822,-11.6589,-10.9584,-10.5356,-10.4351,-10.3912,-10.3667,-10.357,-10.3277,-10.3033,-10.2753,-10.2753,-10.2753,-10.2753,-10.2753,-10.2753,-10.2753,-10.2753,-10.2753,-10.2753,-10.2753,-10.2753,-10.2753,-10.2753,-10.2753,-10.2753,-10.2753,-10.2691,-10.1813,-10.1032,-10.0153,-9.8738,-9.7859,-9.7127,-9.6639,-9.6444,-9.6395,-9.6395,-9.6395,-9.6395,-9.6395,-9.6346,-9.6102,-9.5858,-9.5321,-9.4833,-9.3634,-9.2316,-8.9952,-8.7519,-8.42,-8.0685,-7.7156,-7.3429,-7.1026,-7.0273,-7.0047,-7.0047,-7.0047,-7.0085,-7.0692,-7.1641,-7.2287,-7.2932,-7.3995,-7.483,-7.4413,-7.3805,-7.3008,-7.1983,-7.0388,-6.8832,-6.7731,-6.6857,-6.606,-6.5453,-6.4997,-6.6022,-6.7161,-6.7465,-6.7883,-6.8528,-6.8891,-6.6949,-6.3326,-5.8707,-5.4905,-11.9533,-12.0812,-12.2092,-12.2728,-12.2728,-12.2728,-12.2728,-12.2728,-12.2728,-12.2728,-12.2728,-12.2728,-12.3081,-12.3895,-12.4302,-12.5815,-12.7152,-12.8258,-12.9072,-12.977,-13.0235,-13.0235,-13.0235,-13.0235,-13.0235,-12.8925,-12.6704,-12.3852,-12.2463,-11.5164,-10.8422,-10.4733,-10.3472,-10.3179,-10.285,-10.2753,-10.2801,-10.2753,-10.2753,-10.2753,-10.2753,-10.2753,-10.2753,-10.2753,-10.2753,-10.2753,-10.2753,-10.2753,-10.2753,-10.2753,-10.2753,-10.2753,-10.2753,-10.2753,-10.2753,-10.274,-10.1569,-10.0397,-9.9275,-9.8152,-9.7225,-9.6639,-9.6444,-9.6395,-9.6395,-9.6395,-9.6395,-9.6395,-9.6395,-9.5956,-9.5614,-9.5175,-9.4589,-9.4101,-9.3321,-9.2179,-9.0632,-8.8297,-8.5763,-8.2715,-8.1247,-7.7283,-7.2649,-7.142,-7.0047,-7.0047,-7.0085,-7.0236,-7.0768,-7.1793,-7.2552,-7.3388,-7.4299,-7.4868,-7.4602,-7.4261,-7.3577,-7.2666,-7.0654,-6.8946,-6.7921,-6.6933,-6.5822,-6.5215,-6.4912,-6.5832,-6.7123,-6.7845,-6.83,-6.8794,-6.8398,-6.5305,-6.195,-5.8026,-5.4039,-11.9533,-12.0812,-12.2092,-12.2728,-12.2728,-12.2728,-12.2728,-12.2728,-12.2728,-12.2728,-12.2728,-12.2728,-12.2844,-12.2964,-12.3837,-12.5117,-12.6338,-12.7501,-12.8548,-12.9479,-12.9479,-12.9712,-12.977,-12.977,-12.9479,-12.8291,-12.6329,-12.4076,-12.2389,-11.5031,-10.8454,-10.4613,-10.3483,-10.2935,-10.2753,-10.2753,-10.2753,-10.2753,-10.2753,-10.2753,-10.2753,-10.2753,-10.2753,-10.2753,-10.2753,-10.2753,-10.2753,-10.2753,-10.2753,-10.2753,-10.2753,-10.2753,-10.2753,-10.2753,-10.2887,-10.235,-10.0885,-9.9616,-9.8396,-9.7322,-9.6542,-9.6444,-9.6395,-9.6395,-9.6395,-9.6395,-9.6395,-9.6395,-9.6102,-9.5614,-9.4931,-9.4345,-9.3711,-9.3271,-9.2735,-9.1737,-9.0615,-8.9141,-8.6866,-8.5225,-8.3884,-8.0006,-7.5027,-7.1643,-7.0047,-7.0047,-7.0085,-7.0312,-7.0958,-7.1945,-7.278,-7.3615,-7.4299,-7.483,-7.4754,-7.4375,-7.3805,-7.335,-7.1261,-6.9515,-6.8224,-6.7199,-6.6326,-6.5481,-6.5187,-6.5529,-6.6744,-6.7693,-6.8452,-6.83,-6.7996,-6.4863,-5.9868,-5.6157,-5.3333,-11.9823,-11.9707,-12.1743,-12.2728,-12.2728,-12.2728,-12.2728,-12.2728,-12.2728,-12.2728,-12.2728,-12.2728,-12.2728,-12.2844,-12.3139,-12.3953,-12.5058,-12.564,-12.6454,-12.7618,-12.7792,-12.7909,-12.7909,-12.7676,-12.8083,-12.7384,-12.5687,-12.3615,-12.1452,-11.5598,-11.0585,-10.6614,-10.4465,-10.3069,-10.2753,-10.2753,-10.2753,-10.2753,-10.2753,-10.2753,-10.2753,-10.2753,-10.2753,-10.2753,-10.2753,-10.2753,-10.2753,-10.2753,-10.2753,-10.2753,-10.2753,-10.2753,-10.2753,-10.2655,-10.2496,-10.2008,-10.0885,-9.986,-9.825,-9.6981,-9.6493,-9.6395,-9.6395,-9.6395,-9.6395,-9.6395,-9.6395,-9.6102,-9.5663,-9.5224,-9.4589,-9.293,-9.2442,-9.21,-9.1563,-9.1026,-9.0079,-9.0079,-8.8378,-8.7616,-8.5896,-8.092,-7.6052,-7.304,-7.0047,-7.0047,-7.0047,-7.0578,-7.1148,-7.1983,-7.278,-7.3615,-7.4337,-7.4792,-7.483,-7.4527,-7.4223,-7.3767,-7.2287,-7.0578,-6.9211,-6.7769,-6.682,-6.5984,-6.6136,-6.6402,-6.6971,-6.7351,-6.8072,-6.8148,-6.7427,-6.3459,-5.7992,-5.4938,-5.2461,-11.9823,-11.9591,-12.1278,-12.2208,-12.2728,-12.2728,-12.2728,-12.2728,-12.2728,-12.2728,-12.2728,-12.2728,-12.2728,-12.2728,-12.279,-12.3313,-12.4302,-12.4477,-12.5117,-12.6396,-12.6629,-12.6396,-12.6513,-12.6687,-12.6571,-12.6222,-12.5353,-12.3432,-11.9429,-11.548,-11.1801,-10.7945,-10.3884,-10.2887,-10.2753,-10.2753,-10.2753,-10.2753,-10.2753,-10.2753,-10.2753,-10.2753,-10.2753,-10.2753,-10.2753,-10.2753,-10.2753,-10.2753,-10.2753,-10.2753,-10.2753,-10.2753,-10.2753,-10.2301,-10.2008,-10.152,-10.0153,-9.947,-9.8299,-9.7078,-9.6444,-9.6395,-9.6395,-9.6395,-9.6395,-9.6395,-9.6151,-9.5809,-9.5224,-9.4443,-9.3906,-9.2295,-9.1466,-9.1005,-9.0782,-9.0197,-9.005,-9.005,-8.9532,-8.8542,-8.8139,-8.3671,-7.7029,-7.2519,-7.0537,-7.0047,-7.0047,-7.0502,-7.1072,-7.1907,-7.2742,-7.3577,-7.4299,-7.4716,-7.4982,-7.483,-7.4564,-7.4033,-7.2856,-7.1375,-6.9971,-6.849,-6.7541,-6.6782,-6.7085,-6.7427,-6.7769,-6.8072,-6.8262,-6.7693,-6.6554,-6.3501,-5.8164,-5.4328,-5.1684,-11.9649,-12.0638,-12.0696,-12.1452,-12.2383,-12.2669,-12.2728,-12.2728,-12.2728,-12.2728,-12.2728,-12.2728,-12.2728,-12.2728,-12.2728,-12.3139,-12.3953,-12.4186,-12.4709,-12.5524,-12.5582,-12.5989,-12.5989,-12.5815,-12.5524,-12.5815,-12.4772,-12.1416,-11.5658,-11.3998,-10.9695,-10.5568,-10.3736,-10.2753,-10.2753,-10.2753,-10.2753,-10.2753,-10.2753,-10.2753,-10.2753,-10.2753,-10.2753,-10.2753,-10.2753,-10.2753,-10.2753,-10.2753,-10.2753,-10.2753,-10.2753,-10.274,-10.2594,-10.1862,-10.1276,-10.0885,-9.9177,-9.825,-9.7908,-9.6932,-9.6493,-9.6395,-9.6395,-9.6395,-9.6395,-9.62,-9.5907,-9.5224,-9.4492,-9.3515,-9.2588,-9.1395,-9.0929,-9.0538,-9.0343,-9.005,-9.005,-9.0001,-8.9014,-8.802,-8.7901,-8.671,-7.884,-7.3209,-7.2022,-7.0784,-7.0349,-7.0388,-7.0996,-7.1793,-7.2628,-7.3463,-7.4261,-7.4678,-7.4982,-7.4982,-7.4792,-7.4261,-7.3312,-7.1945,-7.0578,-6.9325,-6.8452,-6.7693,-6.7807,-6.8186,-6.849,-6.868,-6.8224,-6.7655,-6.625,-6.3492,-5.8315,-5.3847,-5.0775,-12.0347,-12.0696,-12.0696,-12.0929,-12.1394,-12.2208,-12.2728,-12.2728,-12.2728,-12.2728,-12.2728,-12.2728,-12.2728,-12.2728,-12.2728,-12.2964,-12.3139,-12.3313,-12.3488,-12.3779,-12.3953,-12.3779,-12.3779,-12.3837,-12.4128,-12.3662,-12.2858,-12.1317,-11.6511,-11.4016,-11.0266,-10.6798,-10.407,-10.3105,-10.2753,-10.2753,-10.2753,-10.2753,-10.2753,-10.2753,-10.2753,-10.2753,-10.2753,-10.2753,-10.2753,-10.2753,-10.2753,-10.2753,-10.2753,-10.2753,-10.274,-10.2447,-10.1959,-10.1276,-10.0446,-9.9372,-9.8299,-9.7664,-9.7078,-9.6542,-9.6444,-9.6395,-9.6395,-9.6395,-9.62,-9.5663,-9.5273,-9.4638,-9.3369,-9.2344,-9.1954,-9.0977,-9.0343,-9.0245,-9.005,-9.005,-9.005,-8.9884,-8.8896,-8.8186,-8.8617,-8.8665,-8.2498,-7.923,-7.7353,-7.5264,-7.3057,-7.0502,-7.0996,-7.1603,-7.2476,-7.335,-7.4223,-7.4678,-7.4982,-7.4868,-7.4716,-7.4185,-7.3274,-7.2097,-7.1224,-7.0312,-6.9363,-6.8718,-6.8604,-6.8946,-6.8908,-6.8642,-6.8148,-6.7541,-6.5419,-6.3214,-5.8232,-5.4104,-5.0644,-12.0696,-12.0696,-12.0696,-12.0696,-12.0812,-12.2092,-12.2728,-12.2728,-12.2728,-12.2728,-12.2728,-12.2728,-12.2728,-12.2728,-12.2728,-12.2728,-12.2728,-12.2728,-12.2786,-12.2728,-12.2728,-12.2615,-12.2615,-12.2844,-12.2728,-12.2732,-12.2561,-12.0972,-11.7737,-11.434,-11.1462,-10.8748,-10.4861,-10.3505,-10.2753,-10.2753,-10.2753,-10.2753,-10.2753,-10.2753,-10.2753,-10.2753,-10.2753,-10.2753,-10.2753,-10.2753,-10.2753,-10.2753,-10.2753,-10.2655,-10.2398,-10.1959,-10.1422,-10.03,-9.9324,-9.8299,-9.7615,-9.7078,-9.6542,-9.6444,-9.6395,-9.6395,-9.6395,-9.6395,-9.6346,-9.5468,-9.4784,-9.3808,-9.2686,-9.1612,-9.1173,-9.0441,-9.005,-9.005,-9.005,-9.005,-9.005,-9.005,-8.9415,-8.9276,-8.9641,-8.9862,-8.7325,-8.446,-8.1875,-7.8873,-7.4163,-7.054,-7.0844,-7.1337,-7.2325,-7.3274,-7.4261,-7.483,-7.4982,-7.483,-7.4678,-7.3919,-7.3084,-7.2173,-7.1337,-7.0578,-6.9971,-6.9781,-6.9515,-6.9477,-6.9249,-6.8718,-6.7754,-6.6427,-6.4542,-6.2697,-5.8935,-5.4649,-5.1394,-12.0696,-12.0696,-12.0696,-12.0696,-12.0812,-12.1976,-12.2499,-12.2728,-12.2728,-12.2728,-12.2728,-12.2728,-12.2728,-12.2728,-12.2728,-12.2728,-12.2728,-12.2728,-12.2728,-12.2728,-12.2728,-12.2728,-12.2728,-12.2728,-12.2728,-12.2728,-12.2615,-12.0972,-11.7971,-11.5065,-11.2875,-11.164,-10.5468,-10.3505,-10.2753,-10.2753,-10.2753,-10.2753,-10.2753,-10.2753,-10.2753,-10.2753,-10.2753,-10.2753,-10.2753,-10.2753,-10.2753,-10.2753,-10.2753,-10.2838,-10.2057,-10.1325,-10.069,-9.9421,-9.8445,-9.7615,-9.703,-9.6688,-9.6493,-9.6395,-9.6395,-9.6395,-9.6395,-9.6346,-9.6005,-9.5175,-9.4199,-9.3027,-9.1954,-9.0977,-9.0441,-9.005,-9.005,-9.005,-9.005,-9.005,-9.005,-9.005,-9.0099,-9.0245,-9.0212,-9.003,-8.8169,-8.5785,-8.318,-7.9706,-7.5197,-7.1375,-7.1489,-7.1451,-7.24,-7.3312,-7.4337,-7.4868,-7.4982,-7.4527,-7.4109,-7.3388,-7.259,-7.1869,-7.1224,-7.0768,-7.0047,-6.9857,-6.9819,-6.9857,-6.9705,-6.8376,-6.7034,-6.5535,-6.4311,-6.3192,-6.0206,-5.5895,-5.243,-12.0696,-12.0696,-12.0696,-12.0696,-12.0754,-12.1045,-12.1743,-12.2669,-12.2728,-12.2728,-12.2728,-12.2728,-12.2728,-12.2728,-12.2728,-12.2728,-12.2728,-12.2728,-12.2728,-12.2728,-12.2728,-12.2728,-12.2728,-12.2728,-12.2728,-12.2728,-12.2728,-12.1995,-11.948,-11.5959,-11.1462,-10.8748,-10.5074,-10.3105,-10.2753,-10.2753,-10.2753,-10.2753,-10.2753,-10.2753,-10.2753,-10.2753,-10.2753,-10.2753,-10.2753,-10.2753,-10.2753,-10.2753,-10.2887,-10.2643,-10.1764,-10.0739,-10.0007,-9.8689,-9.7664,-9.6981,-9.6688,-9.6395,-9.6395,-9.6395,-9.6395,-9.6395,-9.6395,-9.6102,-9.537,-9.4199,-9.3125,-9.2198,-9.1173,-9.0538,-9.0099,-9.005,-9.005,-9.005,-9.005,-9.005,-9.005,-9.005,-9.0099,-9.0343,-9.0428,-9.0246,-8.8734,-8.681,-8.3794,-8.0193,-7.6811,-7.3083,-7.2135,-7.1869,-7.2628,-7.3426,-7.4337,-7.4906,-7.4754,-7.4299,-7.3539,-7.2856,-7.2059,-7.1337,-7.0692,-7.0236,-7.0047,-7.0047,-6.9971,-6.9667,-6.8794,-6.7579,-6.644,-6.5322,-6.4212,-6.3344,-6.126,-5.7167,-5.311,-12.087,-11.994,-12.0463,-12.0405,-11.9998,-12.0521,-12.1452,-12.2441,-12.2728,-12.2728,-12.2728,-12.2728,-12.2728,-12.2728,-12.2728,-12.2728,-12.2728,-12.2728,-12.2728,-12.2728,-12.2728,-12.2728,-12.2728,-12.2728,-12.2728,-12.2728,-12.2728,-12.2728,-12.0515,-11.6317,-11.2136,-10.9509,-10.5468,-10.2753,-10.2753,-10.2753,-10.2753,-10.2753,-10.2753,-10.2753,-10.2753,-10.2753,-10.2753,-10.2753,-10.2753,-10.2753,-10.2753,-10.2753,-10.274,-10.2008,-10.1178,-10.0105,-9.8982,-9.7957,-9.7127,-9.6395,-9.6395,-9.6395,-9.6395,-9.6395,-9.6395,-9.6395,-9.6346,-9.5907,-9.4784,-9.3467,-9.2149,-9.1612,-9.0636,-9.0099,-9.005,-9.005,-9.005,-9.005,-9.005,-9.005,-9.005,-9.005,-9.0099,-9.0489,-9.0643,-8.9551,-8.8207,-8.5372,-8.1931,-7.8814,-7.5705,-7.3275,-7.2514,-7.2249,-7.2704,-7.3539,-7.4261,-7.4792,-7.4451,-7.3957,-7.3122,-7.2249,-7.1451,-7.0996,-7.0312,-7.0047,-7.0047,-7.0047,-6.9629,-6.8794,-6.7769,-6.6857,-6.6136,-6.5184,-6.415,-6.2562,-6.0726,-5.7006,-5.3245,-12.1278,-11.9358,-12.0172,-11.994,-11.9358,-12.0056,-12.1161,-12.2266,-12.2499,-12.2728,-12.2728,-12.2728,-12.2728,-12.2728,-12.2728,-12.2728,-12.2728,-12.2728,-12.2728,-12.2728,-12.2728,-12.2728,-12.2728,-12.2728,-12.2728,-12.2728,-12.2728,-12.2615,-12.0228,-11.5545,-11.2506,-11.0391,-10.5729,-10.2753,-10.2753,-10.2753,-10.2753,-10.2753,-10.2753,-10.2753,-10.2753,-10.2753,-10.2753,-10.2753,-10.2704,-10.2789,-10.2545,-10.2447,-10.2057,-10.1129,-10.0056,-9.9031,-9.8055,-9.6981,-9.6542,-9.6395,-9.6395,-9.6395,-9.6395,-9.6395,-9.6395,-9.6395,-9.6151,-9.5663,-9.4589,-9.3076,-9.1661,-9.1466,-9.0587,-9.005,-9.005,-9.005,-9.005,-9.005,-9.005,-9.005,-9.005,-9.005,-9.005,-9.0225,-8.8855,-8.8087,-8.6485,-8.318,-8.0039,-7.7475,-7.5123,-7.3779,-7.278,-7.24,-7.259,-7.3577,-7.4375,-7.4337,-7.4033,-7.335,-7.2514,-7.1776,-7.1148,-7.0768,-7.0312,-7.0047,-7.0009,-6.9515,-6.8946,-6.8186,-6.7199,-6.6402,-6.5794,-6.5006,-6.4285,-6.2489,-6.0315,-5.7025,-5.366,-12.2325,-12.1685,-11.994,-11.9649,-12.0114,-11.9533,-11.9882,-12.1161,-12.215,-12.2669,-12.2728,-12.2728,-12.2728,-12.2728,-12.2728,-12.2728,-12.2728,-12.2728,-12.2728,-12.2728,-12.2728,-12.2728,-12.2728,-12.2728,-12.2728,-12.2728,-12.2615,-12.1199,-11.9133,-11.5185,-11.1587,-10.9003,-10.5337,-10.2887,-10.2801,-10.285,-10.2753,-10.2753,-10.2753,-10.2753,-10.2753,-10.2753,-10.2753,-10.2753,-10.2753,-10.2447,-10.1813,-10.1666,-10.1081,-10.0007,-9.908,-9.825,-9.7908,-9.6981,-9.6444,-9.6395,-9.6395,-9.6395,-9.6395,-9.6395,-9.6395,-9.6395,-9.5663,-9.5175,-9.4296,-9.293,-9.1319,-9.0489,-9.005,-9.005,-9.005,-9.005,-9.005,-9.005,-9.005,-9.005,-9.005,-9.005,-9.005,-8.9062,-8.7163,-8.5439,-8.3228,-8.0254,-7.8056,-7.5623,-7.4055,-7.2742,-7.3312,-7.2856,-7.3122,-7.3957,-7.4223,-7.4109,-7.3312,-7.2628,-7.1945,-7.1148,-7.073,-7.0502,-7.0236,-7.0009,-6.9439,-6.8984,-6.8338,-6.7503,-6.663,-6.5756,-6.5453,-6.5064,-6.442,-6.3123,-6.0957,-5.8123,-5.3913,-12.2266,-12.151,-11.9649,-11.9184,-11.9474,-11.8369,-11.8544,-11.9882,-12.1103,-12.1685,-12.1859,-12.2325,-12.2728,-12.2728,-12.2728,-12.2728,-12.2728,-12.2728,-12.2728,-12.2728,-12.2728,-12.2728,-12.2728,-12.2728,-12.2728,-12.2728,-12.2615,-12.1597,-11.9883,-11.65,-11.3678,-11.0087,-10.6798,-10.4334,-10.3336,-10.3277,-10.3619,-10.3814,-10.4156,-10.4497,-10.4497,-10.4448,-10.4058,-10.3472,-10.274,-10.191,-10.1227,-10.0885,-10.0007,-9.8982,-9.8299,-9.7762,-9.7274,-9.6737,-9.6395,-9.6395,-9.6395,-9.6395,-9.6395,-9.6395,-9.6395,-9.6346,-9.6005,-9.5175,-9.4004,-9.293,-9.171,-9.0538,-9.005,-9.005,-9.005,-9.005,-9.005,-9.005,-9.005,-9.005,-9.005,-9.005,-9.005,-8.9767,-8.7949,-8.5451,-8.2088,-7.8932,-7.6274,-7.4315,-7.2909,-7.3084,-7.3843,-7.3995,-7.4261,-7.4678,-7.464,-7.3919,-7.2438,-7.1907,-7.1337,-7.073,-7.0312,-7.0198,-7.0009,-7.0009,-6.9477,-6.8452,-6.7465,-6.663,-6.587,-6.5453,-6.5225,-6.4836,-6.4307,-6.3493,-6.1542,-5.8632,-5.4063,-12.1976,-12.0929,-11.9416,-11.8776,-11.8602,-11.738,-11.7497,-11.8602,-11.9823,-12.0463,-12.087,-12.1801,-12.2325,-12.2615,-12.2728,-12.2728,-12.2728,-12.2728,-12.2728,-12.2728,-12.2728,-12.2728,-12.2728,-12.2728,-12.2728,-12.2728,-12.2615,-12.2615,-12.1597,-11.8728,-11.4527,-11.2259,-10.8418,-10.5287,-10.3617,-10.3619,-10.396,-10.4253,-10.4839,-10.5425,-10.562,-10.5669,-10.5229,-10.3765,-10.2594,-10.1422,-10.0739,-9.9763,-9.8884,-9.7908,-9.7762,-9.7225,-9.6688,-9.6493,-9.6395,-9.6395,-9.6395,-9.6395,-9.6395,-9.6395,-9.6346,-9.6151,-9.5663,-9.4687,-9.3369,-9.2491,-9.1417,-9.0392,-9.005,-9.005,-9.005,-9.005,-9.005,-9.005,-9.005,-9.005,-9.005,-9.005,-9.005,-8.9767,-8.8778,-8.6876,-8.3052,-7.9653,-7.7122,-7.5012,-7.3492,-7.3426,-7.3957,-7.4375,-7.4716,-7.4792,-7.4792,-7.3236,-7.1717,-7.1337,-7.0882,-7.0312,-7.016,-7.0047,-6.9971,-6.9971,-6.9173,-6.7807,-6.6706,-6.606,-6.5605,-6.5149,-6.4959,-6.4959,-6.4307,-6.3814,-6.1448,-5.8779,-5.4081,-12.2499,-12.2092,-11.9765,-11.8776,-11.8602,-11.7322,-11.6857,-11.7322,-11.8544,-11.9533,-12.058,-12.087,-12.1568,-12.2383,-12.2611,-12.2728,-12.2728,-12.2728,-12.2728,-12.2728,-12.2728,-12.2728,-12.2499,-12.2383,-12.2378,-12.2728,-12.2611,-12.2333,-12.0686,-11.6911,-11.3921,-11.1764,-10.6798,-10.407,-10.3238,-10.3131,-10.3716,-10.4546,-10.4985,-10.5425,-10.6205,-10.6303,-10.5376,-10.3912,-10.2691,-10.1325,-9.9226,-9.8396,-9.7811,-9.6737,-9.6639,-9.6542,-9.6444,-9.6395,-9.6395,-9.6395,-9.6395,-9.6395,-9.6395,-9.6298,-9.5956,-9.5029,-9.4296,-9.3125,-9.21,-9.1319,-9.0685,-9.0197,-9.005,-9.005,-9.005,-9.005,-9.005,-9.005,-9.005,-9.005,-9.005,-9.005,-9.005,-8.9767,-8.8494,-8.7163,-8.3867,-8.0659,-7.799,-7.5646,-7.4269,-7.3615,-7.3919,-7.4223,-7.4261,-7.4337,-7.3564,-7.2141,-7.1565,-7.1034,-7.0464,-7.0085,-7.0085,-6.9971,-6.9895,-6.9363,-6.8414,-6.7085,-6.625,-6.5794,-6.5301,-6.5035,-6.4959,-6.4959,-6.4269,-6.3135,-6.0985,-5.8552,-5.3944,-12.1976,-12.2325,-11.9823,-11.8776,-11.8486,-11.6682,-11.5752,-11.6043,-11.7148,-11.8078,-11.866,-11.9474,-12.0405,-12.1568,-12.1627,-12.2034,-12.2441,-12.2728,-12.2669,-12.2669,-12.2557,-12.2669,-12.2499,-12.1452,-12.0987,-12.1568,-12.1627,-12.0794,-11.9655,-11.6737,-11.3326,-10.9888,-10.7264,-10.4317,-10.3154,-10.3472,-10.4156,-10.5034,-10.5815,-10.6645,-10.7572,-10.7719,-10.6889,-10.562,-10.3082,-10.0837,-9.8201,-9.7518,-9.6932,-9.6542,-9.6444,-9.6395,-9.6395,-9.6395,-9.6395,-9.6395,-9.6395,-9.6395,-9.62,-9.5907,-9.5321,-9.4833,-9.376,-9.2735,-9.1758,-9.1222,-9.0685,-9.0197,-9.005,-9.005,-9.005,-9.005,-9.005,-9.005,-9.005,-9.005,-9.005,-9.005,-9.005,-8.965,-8.8542,-8.7257,-8.5043,-8.2058,-7.9313,-7.7117,-7.5693,-7.3919,-7.4185,-7.4109,-7.4071,-7.3363,-7.2518,-7.1589,-7.1089,-7.0654,-7.0085,-7.0047,-7.0047,-6.9971,-6.9439,-6.8528,-6.7655,-6.6744,-6.5794,-6.5377,-6.5187,-6.5073,-6.4959,-6.4921,-6.4194,-6.2458,-6.0753,-5.8567,-5.45,-12.1278,-12.2034,-11.9998,-11.9067,-11.8427,-11.6333,-11.517,-11.4996,-11.5984,-11.6624,-11.7031,-11.7904,-11.9067,-12.0289,-12.0347,-12.0812,-12.151,-12.1568,-12.1801,-12.1801,-12.1801,-12.1801,-12.1278,-11.994,-11.9474,-11.9998,-12.0289,-11.9699,-11.794,-11.6311,-11.3095,-10.8506,-10.6626,-10.4586,-10.2518,-10.3082,-10.4595,-10.5717,-10.6986,-10.7963,-10.8841,-10.8548,-10.7767,-10.6694,-10.3033,-10.0007,-9.7957,-9.6834,-9.6444,-9.6395,-9.6395,-9.6395,-9.6395,-9.6395,-9.6395,-9.6395,-9.6395,-9.6298,-9.5956,-9.5273,-9.4638,-9.4004,-9.3076,-9.2344,-9.1298,-9.1054,-9.0782,-9.0294,-9.005,-9.005,-9.005,-9.005,-9.005,-9.005,-9.005,-9.0099,-9.0294,-9.0197,-9.0197,-9.0294,-9.0011,-8.9067,-8.6436,-8.2906,-8.0724,-7.8775,-7.6693,-7.4707,-7.4185,-7.4109,-7.3539,-7.2742,-7.1748,-7.0841,-7.0502,-7.0388,-7.0085,-7.0047,-7.0047,-6.9933,-6.8756,-6.7731,-6.6895,-6.6098,-6.5415,-6.5225,-6.5073,-6.4959,-6.4921,-6.4845,-6.4524,-6.2397,-6.0307,-5.8577,-5.5364,-12.0754,-12.087,-12.058,-11.9882,-11.866,-11.7206,-11.5868,-11.5054,-11.517,-11.5752,-11.6566,-11.6915,-11.7788,-11.8951,-11.8951,-11.9125,-11.93,-11.9591,-11.9416,-11.9533,-11.9533,-11.93,-11.9242,-11.8486,-11.8602,-11.8893,-11.8951,-11.8989,-11.7492,-11.2959,-11.0523,-10.8375,-10.3445,-10.0754,-10.1017,-10.2154,-10.3521,-10.479,-10.645,-10.7767,-10.8451,-10.7377,-10.6547,-10.562,-10.2154,-9.9128,-9.7518,-9.6542,-9.6395,-9.6395,-9.6395,-9.6395,-9.6395,-9.6395,-9.6395,-9.6346,-9.62,-9.5858,-9.5126,-9.4687,-9.3955,-9.2491,-9.2002,-9.12,-9.0587,-9.0392,-9.0294,-9.005,-9.005,-9.005,-9.005,-9.005,-9.005,-9.005,-9.0099,-9.0538,-9.1026,-9.0587,-9.0392,-9.1222,-9.0489,-8.8519,-8.585,-8.338,-8.1281,-7.9144,-7.6478,-7.4668,-7.3995,-7.3463,-7.2628,-7.2021,-7.1186,-7.016,-7.0123,-7.0123,-7.0085,-7.0009,-7.0009,-6.9667,-6.8452,-6.7313,-6.6288,-6.5567,-6.5301,-6.5073,-6.4959,-6.4921,-6.4921,-6.4807,-6.4428,-6.2151,-5.974,-5.8439,-5.5672,-11.9358,-12.0638,-11.994,-11.93,-11.866,-11.738,-11.6101,-11.5054,-11.4879,-11.5228,-11.5577,-11.5694,-11.645,-11.7613,-11.7671,-11.802,-11.8718,-11.8776,-11.8776,-11.8776,-11.8718,-11.7904,-11.6799,-11.6566,-11.6915,-11.7497,-11.7613,-11.6503,-11.3854,-11.1073,-10.7481,-10.4632,-10.1232,-10.0186,-10.0397,-10.1666,-10.2691,-10.4253,-10.5181,-10.6303,-10.723,-10.5864,-10.5181,-10.4351,-10.1666,-9.9372,-9.8299,-9.703,-9.6395,-9.6395,-9.6395,-9.6395,-9.6395,-9.6395,-9.6102,-9.5517,-9.5468,-9.5029,-9.4004,-9.3271,-9.2539,-9.1758,-9.0977,-9.0489,-9.0148,-9.005,-9.005,-9.005,-9.005,-9.005,-9.005,-9.005,-9.005,-9.0099,-9.0587,-9.0762,-9.0636,-9.0831,-9.088,-9.0587,-9.0157,-8.8997,-8.6963,-8.41,-8.1708,-7.9173,-7.6398,-7.4578,-7.3539,-7.2476,-7.1641,-7.1375,-7.0768,-7.0236,-7.0085,-7.0085,-7.0047,-7.0009,-6.9933,-6.9667,-6.8528,-6.7313,-6.625,-6.5377,-6.5111,-6.4959,-6.4959,-6.4959,-6.4769,-6.439,-6.4048,-6.2637,-6.0593,-5.8785,-5.514,-11.7729,-11.9125,-11.8951,-11.8369,-11.7671,-11.7148,-11.6101,-11.4996,-11.4879,-11.4937,-11.4937,-11.4879,-11.5461,-11.6217,-11.6333,-11.6799,-11.738,-11.7671,-11.7788,-11.7788,-11.7788,-11.6566,-11.5228,-11.4937,-11.5461,-11.6159,-11.6227,-11.4136,-11.0202,-10.8939,-10.5823,-10.0666,-9.9732,-9.9128,-10.0056,-10.0495,-10.1715,-10.2935,-10.357,-10.4448,-10.4936,-10.3863,-10.3179,-10.2887,-10.0251,-9.8836,-9.8591,-9.7225,-9.6395,-9.6395,-9.6395,-9.6298,-9.5956,-9.5907,-9.5419,-9.4589,-9.4345,-9.3857,-9.2881,-9.21,-9.1563,-9.1173,-9.0489,-9.005,-9.005,-9.005,-9.005,-9.005,-9.005,-9.005,-9.005,-9.005,-9.005,-9.0148,-9.0587,-9.088,-9.0733,-9.0929,-9.0957,-9.0303,-8.9207,-8.8353,-8.653,-8.3817,-8.0568,-7.912,-7.6399,-7.3615,-7.278,-7.1831,-7.1299,-7.0958,-7.0578,-7.0236,-7.0047,-7.0047,-7.0009,-6.9971,-6.9591,-6.9211,-6.7996,-6.6971,-6.606,-6.5187,-6.4997,-6.4959,-6.4959,-6.4731,-6.4352,-6.3972,-6.3043,-6.1619,-5.9944,-5.7998,-5.4223,-11.6159,-11.5577,-11.7729,-11.7264,-11.5461,-11.6217,-11.581,-11.4937,-11.4821,-11.4821,-11.4879,-11.4879,-11.4996,-11.4996,-11.5228,-11.5286,-11.517,-11.5461,-11.5519,-11.5461,-11.5403,-11.5345,-11.4937,-11.4879,-11.4996,-11.517,-11.517,-11.3759,-11.0836,-10.7897,-10.4832,-10.1891,-9.8483,-9.6786,-9.7567,-9.8884,-9.9958,-10.0593,-10.2008,-10.2838,-10.2935,-10.1178,-10.0105,-10.0007,-9.8055,-9.6883,-9.6883,-9.6493,-9.6298,-9.6346,-9.6151,-9.5712,-9.5077,-9.4882,-9.4394,-9.332,-9.3223,-9.2686,-9.1954,-9.1466,-9.1124,-9.0392,-9.0099,-9.005,-9.005,-9.005,-9.005,-9.005,-9.005,-9.005,-9.005,-9.005,-9.005,-9.005,-9.0197,-9.0685,-9.127,-9.0636,-9.0039,-9.0024,-8.7828,-8.5422,-8.553,-8.1413,-7.8839,-7.7458,-7.536,-7.3154,-7.2021,-7.1489,-7.1072,-7.0654,-7.0274,-7.0047,-7.0047,-7.0009,-6.9895,-6.9629,-6.8946,-6.811,-6.6933,-6.6402,-6.5718,-6.5263,-6.4959,-6.4921,-6.4807,-6.4314,-6.3896,-6.3289,-6.19,-5.9827,-5.8115,-5.6249,-5.3146,-11.4588,-11.4879,-11.5054,-11.453,-11.3832,-11.4181,-11.4123,-11.3774,-11.3716,-11.4181,-11.4763,-11.4879,-11.4879,-11.4879,-11.4879,-11.4879,-11.4879,-11.4879,-11.4879,-11.4879,-11.4879,-11.4879,-11.4879,-11.4879,-11.4879,-11.4879,-11.4879,-11.259,-10.8203,-10.6395,-10.3413,-9.9526,-9.7293,-9.6688,-9.7469,-9.825,-9.9031,-9.9665,-10.0446,-10.0885,-10.0593,-9.9421,-9.864,-9.8396,-9.7176,-9.6493,-9.6346,-9.5761,-9.5419,-9.5321,-9.4687,-9.4199,-9.3808,-9.3711,-9.3271,-9.2442,-9.198,-9.1758,-9.0782,-9.0636,-9.0392,-9.0148,-9.005,-9.005,-9.005,-9.005,-9.005,-9.005,-9.005,-9.005,-9.005,-9.005,-9.005,-9.005,-9.0001,-9.0489,-9.1222,-9.0685,-8.927,-8.6708,-8.5998,-8.363,-8.1336,-7.7993,-7.8154,-7.4938,-7.324,-7.1755,-7.1489,-7.092,-7.0578,-7.0236,-7.0047,-7.0047,-7.0047,-6.9933,-6.9781,-6.8984,-6.8186,-6.7161,-6.6288,-6.5908,-6.5567,-6.5111,-6.4959,-6.4959,-6.4352,-6.3858,-6.3175,-6.2415,-6.1578,-5.9854,-5.818,-5.5825,-5.2426,-11.3018,-11.3018,-11.2553,-11.2145,-11.1855,-11.2204,-11.2378,-11.232,-11.2378,-11.2843,-11.36,-11.3658,-11.389,-11.4181,-11.4298,-11.453,-11.4879,-11.4879,-11.4879,-11.4879,-11.4879,-11.4879,-11.4879,-11.4879,-11.4879,-11.4879,-11.4879,-11.1655,-10.6806,-10.5772,-10.2612,-9.7593,-9.6395,-9.6834,-9.7371,-9.7518,-9.7811,-9.8591,-9.864,-9.8689,-9.8591,-9.7908,-9.7518,-9.742,-9.6834,-9.62,-9.5907,-9.4882,-9.4296,-9.4296,-9.3515,-9.2979,-9.2735,-9.2637,-9.2198,-9.127,-9.1005,-9.0733,-9.0099,-9.005,-9.005,-9.005,-9.005,-9.005,-9.005,-9.005,-9.005,-9.005,-9.005,-9.005,-9.005,-9.005,-9.005,-9.0001,-8.9708,-8.9757,-9.0197,-8.9562,-8.7256,-8.4531,-8.4475,-8.3819,-8.0962,-7.7198,-7.7485,-7.5848,-7.322,-7.1358,-7.092,-7.0388,-7.0047,-7.0047,-7.0047,-7.0047,-6.9857,-6.9667,-6.8946,-6.7845,-6.7199,-6.6527,-6.5832,-6.5415,-6.5187,-6.4959,-6.4959,-6.4693,-6.3972,-6.3251,-6.2453,-6.1694,-6.1009,-5.979,-5.8388,-5.5639,-5.2191,-11.1564,-10.9861,-11.0459,-11.0284,-10.9586,-11.04,-11.0924,-11.0982,-11.104,-11.1157,-11.1506,-11.1273,-11.2029,-11.2785,-11.3134,-11.3658,-11.4414,-11.4647,-11.4705,-11.4763,-11.4821,-11.4879,-11.4879,-11.4879,-11.4879,-11.4879,-11.4879,-11.1655,-10.5949,-10.514,-10.2374,-9.7469,-9.6395,-9.6493,-9.6493,-9.659,-9.6542,-9.6688,-9.6786,-9.6639,-9.6444,-9.659,-9.659,-9.6542,-9.6249,-9.5712,-9.4833,-9.376,-9.3174,-9.3125,-9.2979,-9.2588,-9.1758,-9.1493,-9.1054,-9.0343,-9.0099,-9.0099,-9.005,-9.005,-9.005,-9.005,-9.005,-9.005,-9.005,-9.005,-9.005,-9.005,-9.005,-9.005,-9.005,-9.005,-9.0001,-8.9904,-8.9123,-8.8586,-8.8391,-8.7512,-8.6618,-8.6069,-8.4171,-8.4403,-8.5672,-8.107,-7.6729,-7.7474,-7.4626,-7.092,-7.035,-7.0123,-7.0047,-7.0047,-6.9895,-6.9743,-6.9591,-6.9249,-6.7921,-6.682,-6.6364,-6.5908,-6.5415,-6.5187,-6.4997,-6.458,-6.458,-6.4276,-6.3554,-6.2567,-6.177,-6.1009,-6.0287,-5.9455,-5.7288,-5.4909,-5.1453,-11.1506,-10.9395,-10.8655,-10.8248,-10.7957,-10.8306,-10.8946,-10.9761,-10.9761,-11.0226,-11.0924,-11.0982,-11.1215,-11.1738,-11.2611,-11.2785,-11.232,-11.3192,-11.36,-11.3658,-11.4472,-11.4879,-11.4879,-11.4879,-11.4879,-11.4879,-11.4879,-11.1712,-10.6179,-10.3623,-10.0506,-9.6646,-9.6395,-9.6395,-9.6395,-9.6395,-9.6395,-9.6395,-9.6395,-9.6395,-9.6395,-9.6395,-9.6395,-9.62,-9.4931,-9.4004,-9.3662,-9.2686,-9.21,-9.2002,-9.1417,-9.088,-9.0587,-9.0538,-9.0392,-9.005,-9.005,-9.005,-9.005,-9.005,-9.005,-9.005,-9.005,-9.005,-9.005,-9.005,-9.005,-9.005,-9.005,-9.005,-9.005,-9.0001,-8.9708,-8.9025,-8.8635,-8.8147,-8.7366,-8.6292,-8.5755,-8.5435,-8.4491,-8.1886,-7.8795,-7.7506,-7.6232,-7.3709,-7.2203,-7.0388,-7.0085,-7.0047,-7.0047,-7.0009,-6.9591,-6.9325,-6.8946,-6.7958,-6.6592,-6.625,-6.587,-6.5453,-6.5073,-6.5035,-6.4807,-6.4314,-6.3934,-6.363,-6.2985,-6.1998,-6.1239,-6.0555,-5.9948,-5.8963,-5.6332,-5.3828,-5.0628,-11.0633,-10.9063,-10.7783,-10.7318,-10.7318,-10.7318,-10.7725,-10.8481,-10.8481,-10.8946,-10.9586,-10.9644,-10.9877,-11.04,-11.1215,-11.1157,-11.0517,-11.168,-11.2262,-11.2378,-11.3076,-11.3483,-11.3483,-11.3483,-11.3483,-11.3483,-11.3483,-11.0522,-10.5249,-10.1934,-9.8928,-9.6431,-9.5858,-9.5809,-9.5761,-9.5419,-9.5663,-9.6249,-9.5565,-9.5419,-9.5712,-9.5419,-9.5224,-9.5126,-9.3515,-9.2588,-9.2588,-9.1612,-9.0908,-9.1026,-9.0392,-9.005,-9.005,-9.005,-9.005,-9.005,-9.005,-9.005,-9.005,-9.005,-9.005,-9.005,-9.005,-9.005,-9.005,-9.005,-9.005,-9.005,-9.005,-8.9806,-8.9562,-8.9074,-8.8537,-8.7903,-8.7463,-8.6878,-8.6146,-8.5218,-8.4584,-8.4584,-8.4474,-8.2454,-7.8315,-7.6169,-7.5229,-7.2361,-7.0801,-7.0179,-7.0047,-7.0047,-6.9895,-6.9591,-6.9135,-6.8604,-6.811,-6.663,-6.5756,-6.5605,-6.5453,-6.5073,-6.4731,-6.4655,-6.4352,-6.382,-6.3099,-6.2719,-6.2302,-6.139,-6.1049,-6.0441,-6.0176,-5.8735,-5.587,-5.3094,-4.9918,-10.9221,-10.8888,-10.7783,-10.7318,-10.7318,-10.7318,-10.7318,-10.7434,-10.7376,-10.7318,-10.7434,-10.7434,-10.8016,-10.9221,-10.9279,-10.9221,-10.9395,-11.0342,-11.0924,-11.0924,-11.1098,-11.104,-11.0982,-11.0982,-11.0997,-11.0762,-11.1127,-10.8547,-10.3445,-10.0555,-9.7697,-9.4982,-9.4736,-9.4736,-9.4589,-9.3808,-9.4199,-9.5663,-9.4248,-9.3711,-9.4443,-9.3613,-9.3027,-9.293,-9.2051,-9.1444,-9.1417,-9.0538,-9.005,-9.005,-9.005,-9.005,-9.005,-9.005,-9.005,-9.005,-9.005,-9.005,-9.005,-9.005,-9.005,-9.005,-9.005,-9.005,-9.005,-9.005,-9.005,-9.0001,-8.9757,-8.9269,-8.8439,-8.761,-8.6975,-8.6682,-8.5804,-8.5316,-8.5072,-8.4242,-8.3656,-8.3172,-8.3002,-8.1998,-8.1142,-7.6825,-7.4551,-7.3538,-7.1774,-6.9971,-6.9895,-6.9895,-6.9515,-6.8984,-6.8528,-6.8072,-6.6554,-6.5643,-6.5149,-6.5035,-6.5035,-6.4845,-6.4542,-6.4162,-6.3782,-6.3251,-6.2491,-6.1846,-6.139,-6.1011,-6.0669,-6.0289,-5.9986,-5.7783,-5.441,-5.2158,-4.885,-10.8655,-10.7841,-10.7434,-10.7318,-10.7318,-10.7318,-10.7318,-10.7318,-10.7318,-10.7318,-10.7318,-10.7318,-10.7492,-10.7783,-10.7783,-10.7841,-10.7957,-10.9121,-10.9702,-10.9761,-11.0575,-11.0982,-11.0982,-11.0982,-10.9902,-10.8497,-10.9947,-10.6915,-9.9769,-9.63,-9.4484,-9.3686,-9.3564,-9.3613,-9.3564,-9.332,-9.3418,-9.3955,-9.3515,-9.3271,-9.3271,-9.1807,-9.088,-9.0831,-9.0587,-9.0441,-9.0441,-9.0197,-9.005,-9.005,-9.005,-9.005,-9.005,-9.005,-9.005,-9.005,-9.005,-9.005,-9.005,-9.005,-9.005,-9.005,-9.005,-9.005,-9.005,-9.005,-9.005,-8.9855,-8.8537,-8.761,-8.7219,-8.6926,-8.639,-8.5657,-8.5365,-8.4779,-8.4096,-8.3803,-8.2323,-7.9622,-7.977,-7.9803,-7.8419,-7.6223,-7.3514,-7.1801,-7.0554,-6.9857,-6.9287,-6.9097,-6.8794,-6.7958,-6.7275,-6.6554,-6.5567,-6.5073,-6.5035,-6.4883,-6.4428,-6.4192,-6.3968,-6.3396,-6.2795,-6.2453,-6.1808,-6.1239,-6.0707,-6.0479,-6.0213,-5.9721,-5.8126,-5.5488,-5.2509,-4.9475,-4.6277,-10.7957,-10.7318,-10.7318,-10.7318,-10.7318,-10.7318,-10.7318,-10.7318,-10.7318,-10.7318,-10.7318,-10.7318,-10.7318,-10.7318,-10.7318,-10.7318,-10.7318,-10.8074,-10.8423,-10.8481,-10.9121,-10.8808,-10.8041,-10.8808,-10.7269,-10.3967,-10.7633,-10.4974,-9.7706,-9.6222,-9.4723,-9.2731,-9.2491,-9.2539,-9.2491,-9.2051,-9.2295,-9.3027,-9.2295,-9.1856,-9.171,-9.0636,-9.005,-9.005,-9.005,-9.005,-9.005,-9.005,-9.005,-9.005,-9.005,-9.005,-9.005,-9.005,-9.005,-9.005,-9.005,-9.005,-9.005,-9.005,-9.005,-9.005,-9.005,-9.005,-9.0001,-8.9611,-8.9172,-8.8586,-8.7122,-8.6097,-8.6048,-8.5706,-8.5218,-8.4584,-8.4096,-8.3754,-8.3461,-8.1709,-7.9647,-7.7136,-7.6238,-7.5536,-7.423,-7.3403,-7.1727,-6.961,-6.8946,-6.8756,-6.8376,-6.8262,-6.7883,-6.7085,-6.625,-6.5529,-6.5111,-6.4959,-6.4769,-6.4504,-6.4048,-6.3592,-6.3307,-6.2639,-6.1922,-6.1426,-6.0895,-6.0517,-6.01,-6.0062,-6.0062,-5.9569,-5.7517,-5.3828,-4.9444,-4.7118,-4.4736,-10.7318,-10.7318,-10.7318,-10.7318,-10.7318,-10.7318,-10.7318,-10.7318,-10.7318,-10.7318,-10.7318,-10.7318,-10.7318,-10.7318,-10.7318,-10.7318,-10.7318,-10.7318,-10.7121,-10.6924,-10.7161,-10.5758,-10.3633,-10.6072,-10.4234,-9.9968,-10.4246,-10.2395,-9.4369,-9.75,-9.6734,-9.201,-9.1347,-9.1466,-9.1368,-9.0538,-9.0977,-9.2783,-9.0977,-9.005,-9.005,-9.005,-9.005,-9.005,-9.005,-9.005,-9.005,-9.005,-9.005,-9.005,-9.005,-9.005,-9.0001,-8.9904,-8.9855,-8.9855,-8.9757,-8.9708,-8.966,-8.9708,-8.9611,-8.9708,-8.9611,-8.9611,-8.9562,-8.8684,-8.7659,-8.6731,-8.5657,-8.5023,-8.4925,-8.3719,-8.2808,-8.2554,-8.184,-8.156,-8.1131,-7.8425,-7.5497,-7.4729,-7.2309,-7.0768,-6.9635,-6.9248,-6.8676,-6.772,-6.7769,-6.7655,-6.7389,-6.7351,-6.7047,-6.6212,-6.5415,-6.4921,-6.4769,-6.4807,-6.4314,-6.3744,-6.3554,-6.3137,-6.2449,-6.1729,-6.1125,-6.0782,-6.0555,-6.0213,-6.0062,-5.9683,-5.9456,-5.8621,-5.6332,-5.2894,-4.7717,-4.5462,-4.4129,-10.7318,-10.7318,-10.7318,-10.7318,-10.7318,-10.7318,-10.7318,-10.7318,-10.7318,-10.7318,-10.7318,-10.7318,-10.7318,-10.7318,-10.7318,-10.7318,-10.7318,-10.7318,-10.6114,-10.4392,-10.6313,-10.5758,-10.3623,-10.5957,-10.4234,-9.9541,-10.2276,-9.9488,-9.222,-9.4143,-9.3893,-9.0695,-9.0392,-9.0392,-9.0343,-9.0148,-9.0245,-9.0636,-9.0245,-9.005,-9.005,-9.005,-9.0001,-9.005,-9.0001,-9.005,-9.005,-9.005,-9.005,-9.005,-9.005,-9.005,-9.0001,-8.922,-8.8781,-8.8684,-8.7951,-8.7463,-8.7463,-8.7463,-8.7463,-8.7463,-8.7463,-8.7512,-8.7415,-8.6487,-8.5755,-8.5413,-8.4486,-8.39,-8.3378,-8.1091,-7.9006,-7.8959,-7.8067,-7.6069,-7.26,-7.429,-7.339,-6.6427,-6.6859,-6.7561,-6.6326,-6.6022,-6.6393,-6.7186,-6.7427,-6.7161,-6.663,-6.6641,-6.6174,-6.5377,-6.4542,-6.4086,-6.401,-6.3592,-6.3099,-6.2909,-6.234,-6.196,-6.154,-6.082,-6.0403,-6.0099,-6.0024,-5.9607,-5.9683,-5.8126,-5.6562,-5.6101,-5.3828,-5.0391,-4.6638,-4.4129,-4.1866,-10.7318,-10.7318,-10.7318,-10.7318,-10.7318,-10.7318,-10.7318,-10.7318,-10.7318,-10.7318,-10.7318,-10.7318,-10.7318,-10.7318,-10.7318,-10.7318,-10.7318,-10.7318,-10.5758,-10.3362,-10.5957,-10.4336,-9.9808,-10.3362,-10.1653,-9.524,-9.8954,-9.7223,-9.0885,-9.2969,-9.2855,-9.0118,-9.005,-9.005,-9.005,-9.005,-9.005,-9.0001,-8.8537,-8.7805,-8.7805,-8.7805,-8.7805,-8.7805,-8.9318,-8.9806,-8.9318,-8.9269,-8.9025,-8.8537,-8.8537,-8.8537,-8.8488,-8.7951,-8.7659,-8.761,-8.7073,-8.6731,-8.6731,-8.6731,-8.6731,-8.6731,-8.6731,-8.595,-8.3889,-8.3158,-8.2924,-8.2924,-8.2924,-8.2152,-8.0279,-7.8724,-7.7021,-7.5151,-7.4026,-7.1782,-6.8812,-6.9898,-6.8123,-6.2386,-6.2695,-6.39,-6.3871,-6.3858,-6.4504,-6.5946,-6.6326,-6.6136,-6.5718,-6.5339,-6.4921,-6.4428,-6.3706,-6.3251,-6.3175,-6.2795,-6.2378,-6.1998,-6.1542,-6.1201,-6.0706,-6.0365,-5.9493,-5.8241,-5.7403,-5.6828,-5.5603,-5.4177,-5.3328,-5.2744,-5.0628,-4.8285,-4.6156,-4.3305,-4.1278,-10.6678,-10.6736,-10.6736,-10.6736,-10.6736,-10.6736,-10.6852,-10.6969,-10.6794,-10.6736,-10.6736,-10.6286,-10.6304,-10.6477,-10.6379,-10.6338,-10.6057,-10.6057,-10.4595,-10.1965,-10.4797,-10.1861,-9.4786,-9.9808,-9.82,-9.1414,-9.5573,-9.5181,-9.0768,-9.2513,-9.2399,-9.0235,-9.005,-9.005,-9.005,-9.005,-9.005,-8.9953,-8.7268,-8.5804,-8.5804,-8.5804,-8.5609,-8.5316,-8.8195,-8.9172,-8.7805,-8.8,-8.7463,-8.5839,-8.5853,-8.5644,-8.5609,-8.5413,-8.5609,-8.5999,-8.5901,-8.5853,-8.5804,-8.5853,-8.5853,-8.5853,-8.5741,-8.4242,-8.0428,-8.0038,-7.9982,-7.9757,-8.0726,-7.9861,-7.627,-7.5856,-7.4442,-7.1406,-7.025,-6.877,-6.6196,-6.5575,-6.3845,-6.0437,-6.0024,-6.1012,-6.2533,-6.2914,-6.3479,-6.4617,-6.5225,-6.5035,-6.4921,-6.4162,-6.363,-6.3479,-6.2871,-6.2415,-6.2302,-6.2264,-6.1537,-6.0584,-6.0202,-5.9594,-5.8347,-5.7934,-5.7173,-5.499,-5.3945,-5.2894,-5.1335,-5.0273,-4.9918,-4.9681,-4.7328,-4.522,-4.4857,-4.2817,-4.113,-10.406,-10.406,-10.406,-10.406,-10.406,-10.4155,-10.47,-10.5631,0.0,0.0,0.0,-10.1764,-10.1288,-10.2203,-10.2203,-10.1433,-10.0177,-10.0071,-9.8578,-9.5957,-9.8792,-9.8038,-9.4562,-9.7714,-9.7332,-9.3713,-9.4562,-9.326,-9.0118,-9.0468,-9.0468,-9.0001,-9.005,-9.005,-9.005,-9.005,-9.005,-9.0001,-8.9464,-8.9172,-8.9172,-8.9172,-8.7854,-8.5218,-8.7463,-8.7366,-8.4584,-8.6097,-8.5316,-8.1598,-8.1403,-8.1013,-8.0191,-7.9312,-8.0045,-8.2485,-8.1948,-8.146,-8.1403,-8.1403,-8.1354,-8.1354,-8.1354,-8.0672,-7.9215,-7.8917,-7.8381,-7.6927,-7.7587,-7.6892,-7.3885,-7.0839,-6.8379,-6.7125,-6.7176,-6.526,-6.0574,-6.3283,-6.4233,-6.0148,-6.01,-6.1428,-6.2457,-6.2985,-6.3896,-6.4693,-6.4807,-6.4959,-6.4769,-6.3668,-6.2795,-6.2681,-6.2036,-6.1504,-6.139,-6.1011,-5.9373,-5.7232,-5.6546,-5.528,-5.3011,-5.2158,-5.204,-5.1453,-5.1217,-5.0746,-5.0391,-4.8285,-4.6758,-4.6638,-4.4157,-4.1866,-4.1866,-4.1401,-4.0851,-10.3362,0.0,-10.3362,-10.3362,0.0,-10.3362,-10.2697,-10.1331,-9.9328,-9.874,-9.9257,-9.8002,-9.7727,-9.8229,-9.8229,-9.7782,-9.6965,-9.7556,-9.6215,-9.3739,-9.7014,-9.6236,-9.217,-9.5069,-9.4846,-9.217,-9.217,-9.1414,-9.0001,-9.005,-9.005,-9.005,-9.005,-8.9172,-8.7659,-8.922,-8.9464,-8.8342,-8.6731,-8.595,-8.5901,-8.595,-8.5169,-8.3656,-8.6146,0.0,0.0,0.0,0.0,0.0,0.0,0.0,0.0,0.0,0.0,-7.4627,-7.2577,-7.1162,-7.0625,-7.1064,-7.2528,-7.5213,-7.5505,-7.4383,-7.165,-7.3216,-7.2977,-7.0083,-7.1841,-7.167,-6.8429,-6.7137,-6.5387,-6.2685,-6.25,-6.1509,-5.8501,-6.0344,-6.1013,-5.875,-5.9188,-6.0289,-6.1163,-6.196,-6.2795,-6.3592,-6.3744,-6.3706,-6.363,-6.3023,-6.234,-6.1922,-6.1163,-6.0669,-6.0593,-6.0251,-5.9,-5.6065,-5.5256,-5.3945,-5.11,-4.9681,-4.8761,-4.8165,-4.6728,-4.5766,-4.5554,-4.4493,-4.3427,-4.3183,-4.2111,-4.1077,-4.0669,-4.0617,-4.0435,-10.1541,-10.1599,-10.1298,-10.1698,-10.2512,-10.1179,-9.8704,-9.5724,-9.355,-9.2833,-9.3389,-9.3553,-9.3767,-9.398,-9.4194,-9.4095,-9.3836,-9.4735,-9.3761,-9.1727,-9.4809,-9.3842,-8.9715,-9.1746,-9.1633,-8.9532,-8.9416,-8.9416,-8.9416,-8.9416,-8.9416,-8.9416,-8.9367,-8.8098,-8.5706,0.0,0.0,0.0,-8.3852,-8.2983,-8.2934,-8.2739,-8.229,-8.1753,-8.4388,0.0,-8.1791,-8.1925,-8.0648,-7.7524,-7.7373,0.0,0.0,0.0,0.0,0.0,0.0,0.0,0.0,0.0,0.0,0.0,-6.7131,-6.5693,-6.3077,-6.5943,-6.5962,-6.1514,-6.5115,-6.609,-6.1668,-6.3353,-6.3226,-5.9218,-5.8985,-5.8674,-5.7474,-5.7754,-5.783,-5.7589,-5.8353,-5.9302,-6.0289,-6.1011,-6.1808,-6.2609,-6.2529,-6.2533,-6.2267,-6.1998,-6.177,-6.1047,-5.9563,-5.8658,-5.8355,-5.8012,-5.6562,-5.441,-5.3478,-5.204,-4.9087,-4.7088,-4.5795,-4.5099,-4.2845,-4.113,-4.113,-4.1033,-4.1252,-4.1033,-4.1033,-4.0825,-4.0176,-4.0046,-3.9864,-9.5007,-9.5025,-9.3672,-9.5818,-9.9506,-9.3056,-9.0165,-8.9619,-8.9235,-8.7832,-8.5811,-8.6692,-8.7673,-8.8551,-8.9583,-8.9219,-8.7866,-8.7952,-8.7778,-8.749,-8.8038,-8.7863,-8.717,-8.7461,-8.7461,-8.717,-8.717,-8.717,-8.717,-8.717,-8.717,-8.717,-8.717,-8.6926,-8.6585,-8.6975,-8.5657,-8.2788,-8.4925,-8.6097,-8.6097,-8.5218,-8.3412,-8.0672,-8.185,-7.9963,-7.4599,-7.5986,-7.3675,-6.681,-6.6846,-6.7562,-6.8335,-6.8521,-6.7456,0.0,-6.4329,0.0,0.0,0.0,0.0,0.0,0.0,0.0,0.0,-5.9114,-5.804,-5.1711,-5.8827,-6.1385,-5.5559,-5.8553,-6.0247,-5.892,-6.015,-5.9855,-5.6919,-5.8522,-5.9325,-5.7691,-5.8885,-6.0176,-6.0897,-6.1846,-6.2378,-6.2415,-6.2495,-6.1884,-6.0707,-6.0441,-6.0479,-6.0251,-5.6979,-5.4328,-5.2777,-5.204,-5.11,-4.8076,-4.7478,-4.5915,-4.3183,-4.2206,-4.1866,-4.1743,-4.1323,-4.0981,-4.1033,-4.0981,-4.0981,-4.0929,-4.0561,-4.0104,-3.9232,-3.8831,-3.9241,-9.0777,-9.0832,-9.0173,-9.0492,-9.1109,-8.5474,-8.3949,-8.522,-8.4323,-8.3275,-8.2152,-8.2601,-8.3101,-8.3496,-8.3994,-8.3857,-8.3217,-8.3803,-8.4047,-8.4144,-8.5316,-8.5853,-8.5853,-8.6438,-8.6731,-8.6731,-8.6731,-8.6731,-8.6731,-8.6731,-8.6731,-8.6731,-8.6731,-8.4047,-7.9117,-8.229,-8.3521,-8.2103,-8.3363,-8.3803,-8.3109,-8.1118,-7.9405,-7.7922,-7.6452,-7.4151,-7.0866,-7.1196,-6.9491,-6.559,-6.5982,-6.6305,-6.6198,-6.1599,-5.8944,0.0,0.0,0.0,0.0,0.0,0.0,0.0,0.0,0.0,0.0,0.0,-4.9243,-4.9206,-5.4452,-5.5705,-5.019,-5.3,-5.486,-5.3949,-5.3749,-5.4201,-5.5382,-5.57,-5.6319,-5.743,-5.8543,-5.9454,-5.9796,-6.0593,-6.1163,-6.1163,-6.1163,-6.0707,-5.9606,-5.9758,-5.9456,-5.7632,-5.5256,-5.2894,-5.0864,-5.051,-4.9444,-4.6638,-4.5824,-4.4736,-4.1621,-4.0773,-4.0565,-4.0539,-4.0305,-4.0098,-3.9952,-4.0072,-4.0098,-3.9591,-3.737,-3.4889,-3.3871,-3.3713,-3.346,-8.6344,-8.6184,-8.4233,-8.2827,-8.1493,-7.8254,-7.8362,-8.0534,-7.9298,-7.8722,-7.8722,-7.8673,-7.8283,-7.7552,-7.7308,-7.7601,-7.8483,-7.9801,-8.0784,-8.1314,-8.3119,-8.3998,-8.4047,-8.4828,-8.5107,-8.5218,-8.4974,-8.4974,-8.5059,-8.4864,-8.434,-8.3363,-8.3022,-7.9361,-7.2723,-7.7265,-8.0344,-8.1558,-8.1664,-8.0802,-7.924,-7.6033,-7.4364,-7.4319,-7.1214,-6.8809,-6.7368,-6.6634,-6.5501,-6.3878,-6.3563,-6.3146,-6.2331,-5.488,0.0,0.0,0.0,0.0,0.0,0.0,0.0,0.0,0.0,-4.1477,-3.4922,0.0,-4.1544,0.0,-4.9408,-5.0019,-4.6318,-4.8444,0.0,0.0,-4.7329,-4.7989,-5.2127,-5.1823,-5.2696,-5.6295,-5.748,-5.8315,-5.8961,-5.9606,-6.0062,-6.0062,-5.8735,-5.7869,-5.7843,-5.7534,-5.6339,-5.4294,-5.1923,-5.0391,-4.9444,-4.8725,-4.7027,-4.467,-4.4282,-4.3469,-4.0982,-3.9745,-3.8983,-3.8837,-3.8032,-3.719,-3.6928,-3.7047,-3.69,-3.6245,-3.2923,-2.9421,-2.8887,-2.8867,-2.8847,-8.013,-7.952,-7.2244,-7.0222,-7.185,-7.1537,-7.2619,-7.4526,-7.4431,-7.4383,-7.4383,-7.4383,-7.2678,-6.985,-6.8876,0.0,-7.3016,-7.5213,-7.7067,-7.9068,-8.0191,-8.0623,-8.0623,-8.072,-8.0769,-8.0826,-7.9745,-7.9794,-8.072,-7.9794,-7.736,-7.3504,-7.2525,-7.2183,-7.2284,-7.2867,-7.5505,-8.0386,-8.033,-7.9077,-7.6392,-7.1838,-6.9517,-6.9517,-6.7504,-6.52,-6.2589,-6.2296,-6.0582,-5.7075,-5.4161,-5.2627,-5.2697,0.0,0.0,0.0,0.0,0.0,0.0,0.0,0.0,0.0,0.0,0.0,0.0,0.0,0.0,0.0,-4.2187,0.0,-4.515,-4.6052,0.0,0.0,0.0,-4.3698,-4.5683,-4.7039,-4.9469,-5.3709,0.0,0.0,-5.9644,-5.9986,-6.0062,-6.0062,-5.5025,-5.2359,-5.5036,-5.1527,-4.9067,-5.0734,-4.6007,-4.3183,-4.5679,-4.3514,-4.1137,-4.0316,-3.9803,-3.9737,-3.9264,-3.7239,-3.5382,-3.5239,-3.2826,-3.0961,-3.0861,-3.0858,-3.037,-2.8734,-2.8101,-2.7882,-2.7323,-2.7387,-2.7507,-7.1154,-6.6236,-6.3058,-6.2913,-6.4817,-6.495,-6.7208,-7.0874,-7.0192,-6.9697,-6.9014,-6.838,-6.5988,-6.2327,-6.249,0.0,0.0,0.0,-6.9649,-7.2873,-7.4041,-7.5603,-7.7458,-7.8141,-7.8434,-7.8385,-7.7995,-7.8043,-7.8434,-7.7995,-7.1357,-5.9204,0.0,0.0,-6.0912,-6.7111,-7.1747,-7.4384,-7.5459,-7.5177,-7.3288,-6.9386,-6.6436,-6.4648,-6.1757,-5.9535,-5.8454,-5.7984,-5.5418,-5.0508,-4.9941,-4.8055,0.0,0.0,0.0,0.0,0.0,0.0,0.0,0.0,0.0,0.0,0.0,-2.8855,-2.4437,0.0,0.0,0.0,-3.2081,-3.322,-3.5108,-3.9143,0.0,0.0,0.0,0.0,0.0,0.0,0.0,-4.9241,-5.1443,-5.3607,-5.6569,-5.6061,-5.4667,-5.2853,-5.0541,-4.9411,-5.0428,0.0,-4.3431,-4.6243,-4.3413,-4.1261,-4.1748,-3.9745,-3.8436,-3.9189,-3.7876,-3.6667,-3.6381,-3.36,-3.1234,-3.0958,-2.9818,-2.8764,-2.8486,-2.5348,-2.273,-2.2009,-2.2009,-2.2057,-2.193,-2.1993,-2.2104,-6.1969,0.0,0.0,0.0,0.0,-5.8352,-6.0814,-6.483,-6.405,-6.3206,-6.2132,-6.14,0.0,0.0,0.0,0.0,0.0,0.0,-6.4329,-6.8144,-7.0576,-7.2916,-7.5066,-7.5847,-7.6189,-7.6189,-7.5896,-7.5115,-7.3895,-7.1454,-6.2864,-4.8759,0.0,0.0,0.0,0.0,-6.7208,-6.9753,-7.1466,-7.1499,-6.9804,-6.6583,-6.3427,-6.0291,-5.7325,-5.5417,-5.4379,-5.3169,-5.0077,-4.4717,-4.3703,0.0,0.0,0.0,0.0,0.0,0.0,0.0,0.0,0.0,0.0,0.0,0.0,0.0,0.0,0.0,0.0,0.0,0.0,0.0,-2.8155,-3.3106,-3.4966,0.0,0.0,0.0,0.0,0.0,0.0,0.0,0.0,0.0,-5.0208,-4.9418,-4.841,0.0,0.0,-4.5566,-4.6536,-4.2296,-3.9897,-4.2037,-4.0777,0.0,-3.801,-3.6981,-3.6644,-3.7682,-3.5666,-3.3566,-3.2467,-2.9421,-2.6978,-2.669,-2.5924,-2.496,-2.3897,-1.9509,-1.6228,-1.6405,-1.6657,-1.6815,-1.6733,-1.7359,-1.7884,0.0,0.0,0.0,0.0,0.0,0.0,0.0,0.0,-5.4983,-5.4399,0.0,-5.3277,0.0,0.0,0.0,0.0,0.0,-5.7984,0.0,0.0,-7.1015,-7.3748,-7.3748,-7.3797,-7.3944,-7.3895,-7.2723,-7.0088,-6.5842,-5.7886,0.0,0.0,0.0,0.0,0.0,0.0,-6.1351,-6.7228,-6.9104,-6.8747,-6.5969,-6.3241,-6.0145,-5.6584,-5.5573,-5.3419,-5.0092,-4.7969,-4.4554,-3.9851,-3.3833,0.0,0.0,0.0,0.0,0.0,0.0,0.0,0.0,0.0,0.0,0.0,0.0,0.0,0.0,0.0,0.0,0.0,0.0,0.0,0.0,-2.9102,0.0,0.0,0.0,0.0,0.0,0.0,0.0,0.0,0.0,0.0,-4.0115,-4.0121,-4.2089,-4.636,0.0,0.0,0.0,0.0,-3.8465,-3.8047,-3.7191,-3.6142,-3.4564,-3.4696,-3.4799,-3.4359,0.0,0.0,-2.7166,-2.4686,-2.2757,-2.1978,-2.0131,-1.8036,-1.6291,-1.2844,-1.0642,-1.2148,-1.2862,-1.3069,-1.3019,-1.4683,-1.6382,0.0,0.0,0.0,0.0,0.0,0.0,0.0,0.0,0.0,-4.4332,0.0,-4.2621,0.0,0.0,0.0,0.0,0.0,0.0,0.0,0.0,-6.057,-6.2767,-6.3548,-6.5549,-6.5451,0.0,-6.2327,-5.852,0.0,0.0,0.0,0.0,0.0,0.0,0.0,0.0,-5.7054,-5.977,-6.4098,-6.4702,-6.1278,-5.8799,-5.6745,-5.543,-5.4633,-5.1511,-4.5777,-4.4889,-4.0967,0.0,0.0,0.0,0.0,0.0,0.0,0.0,0.0,0.0,0.0,0.0,0.0,0.0,0.0,0.0,0.0,0.0,0.0,0.0,0.0,0.0,0.0,0.0,-2.4613,0.0,0.0,0.0,0.0,0.0,0.0,0.0,0.0,0.0,-3.2453,-3.4232,-3.6178,-3.7363,-3.6499,-3.6452,-3.8502,0.0,0.0,0.0,0.0,0.0,0.0,0.0,-2.7464,-2.823,-2.6685,-2.4568,-2.2169,-1.9592,-1.7819,-1.7498,0.0,0.0,-1.1535,-0.9951,-0.9217,-0.9802,-1.008,-1.0238,-1.0116,-1.082,-1.1515,0.0,0.0,0.0,0.0,0.0,0.0,0.0,0.0,0.0,-3.5636,-3.4145,0.0,0.0,0.0,0.0,0.0,0.0,0.0,0.0,0.0,0.0,0.0,-5.6193,-5.8729,0.0,0.0,0.0,0.0,0.0,0.0,0.0,0.0,0.0,0.0,0.0,0.0,-5.3543,-5.5122,-6.0021,-6.1448,-5.8953,-5.6383,-5.4445,-5.3278,-5.2759,-4.9317,-4.253,0.0,0.0,0.0,0.0,0.0,0.0,0.0,0.0,0.0,0.0,0.0,0.0,0.0,0.0,0.0,0.0,0.0,0.0,0.0,0.0,0.0,0.0,0.0,0.0,0.0,-2.065,0.0,0.0,0.0,0.0,0.0,0.0,0.0,0.0,0.0,0.0,0.0,-3.0739,-3.1301,-3.2488,-3.3969,-3.5709,-3.5397,-3.4011,0.0,0.0,0.0,0.0,0.0,0.0,0.0,0.0,0.0,0.0,0.0,0.0,0.0,0.0,-0.9277,-0.8319,-0.6865,-0.6066,-0.6816,0.0,0.0,0.0,0.0,0.0,0.0,0.0,0.0,0.0,0.0,0.0,0.0,0.0,0.0,0.0,-2.7422,0.0,0.0,-2.7305,0.0,0.0,0.0,0.0,0.0,0.0,0.0,0.0,0.0,0.0,0.0,0.0,0.0,0.0,0.0,0.0,0.0,0.0,0.0,0.0,0.0,0.0,-5.0611,-5.3655,-5.7127,-5.873,-5.8427,-5.6099,-5.3137,-4.9782,-4.9608,-4.6732,-4.0409,0.0,0.0,0.0,0.0,0.0,0.0,0.0,0.0,0.0,0.0,0.0,0.0,0.0,0.0,0.0,0.0,0.0,0.0,0.0,0.0,0.0,0.0,0.0,0.0,0.0,0.0,-1.8685,-1.9817,-2.0858,0.0,0.0,0.0,0.0,0.0,0.0,0.0,0.0,0.0,0.0,-3.0463,-3.2495,-3.5107,-3.4617,-3.2644,-2.97,-2.5325,-2.2073,-2.102,-2.1569,-2.1737,0.0,0.0,0.0,0.0,0.0,0.0,0.0,0.0,0.0,0.0,0.0,0.0,0.0,0.0,0.0,0.0,0.0,0.0,0.0,0.0,0.0,0.0,0.0,0.0,0.0,0.0,0.0,0.0,0.0,0.0,0.0,0.0,0.0,0.0,0.0,0.0,0.0,0.0,0.0,0.0,0.0,0.0,0.0,0.0,0.0,0.0,0.0,0.0,0.0,0.0,0.0,0.0,0.0,0.0,-4.6485,-4.7567,-5.3861,-5.5365,-5.173,-5.0993,-4.9115,-4.6168,-4.56,-4.341,0.0,0.0,0.0,0.0,0.0,0.0,0.0,0.0,0.0,0.0,0.0,0.0,0.0,0.0,0.0,0.0,0.0,0.0,0.0,0.0,0.0,0.0,0.0,0.0,0.0,0.0,0.0,0.0,-2.0367,-2.1193,-2.1633,0.0,0.0,0.0,0.0,0.0,0.0,0.0,0.0,0.0,0.0,-2.698,-2.7223,-2.6938,-2.5806,-2.3158,-2.1207,-1.9351,-1.7274,-1.641,-1.5905,-1.5274,0.0,0.0,0.0,0.0,0.0,0.0,0.0,0.0,0.0,0.0,0.0,0.0,0.0,0.0,0.0,0.0,0.0,0.0,0.0,0.0,0.0,0.0,0.0,0.0,0.0,0.0,0.0,0.0,0.0,0.0,0.0,0.0,0.0,0.0,0.0,0.0,0.0,0.0,0.0,0.0,0.0,0.0,0.0,0.0,0.0,0.0,0.0,0.0,0.0,0.0,0.0,0.0,0.0,-4.3309,-4.4945,-5.0501,-5.1822,-4.8719,-4.7604,-4.5633,-4.2704,-4.1665,-3.8887,0.0,0.0,0.0,0.0,0.0,0.0,0.0,0.0,0.0,0.0,0.0,0.0,0.0,0.0,0.0,0.0,0.0,0.0,0.0,0.0,0.0,0.0,0.0,0.0,0.0,0.0,0.0,0.0,-1.6576,-1.7635,-1.795,0.0,0.0,0.0,0.0,0.0,0.0,0.0,0.0,0.0,0.0,-2.2698,-2.2977,-2.2339,0.0,0.0,-1.7799,-1.6146,-1.4697,-1.3134,-1.1897,-1.1464,-0.9164,0.0,0.0,0.0,0.0,0.0,0.0,0.0,0.0,0.0,0.0,0.0,0.0,0.0,0.0,0.0,0.0,0.0,0.0,0.0,0.0,0.0,0.0,0.0,0.0,0.0,0.0,0.0,0.0,0.0,0.0,0.0,0.0,0.0,0.0,0.0,0.0,0.0,0.0,0.0,0.0,0.0,0.0,0.0,0.0,0.0,0.0,0.0,0.0,0.0,0.0,0.0,0.0,-4.081,-4.4551,-4.7044,-4.8305,-4.8073,-4.5464,-4.2476,-3.9201,-3.7845,-3.3616,0.0,0.0,0.0,0.0,0.0,0.0,0.0,0.0,0.0,0.0,0.0,0.0,0.0,0.0,0.0,0.0,0.0,0.0,0.0,0.0,0.0,0.0,0.0,0.0,0.0,0.0,0.0,0.0,0.0,0.0,0.0,0.0,0.0,0.0,0.0,0.0,0.0,0.0,0.0,0.0,0.0,-1.9327,-2.1435,-1.9723,-1.8119,0.0,-1.4768,-1.2565,-1.2892,-1.1063,-0.9491,-0.8729,0.0,0.0,0.0,0.0,0.0,0.0,0.0,0.0,0.0,0.0,0.0,0.0,0.0,0.0,0.0,0.0,0.0,0.0,0.0,0.0,0.0,0.0,0.0,0.0,0.0,0.0,0.0,0.0,0.0,0.0,0.0,0.0,0.0,0.0,0.0,0.0,0.0,0.0,0.0,0.0,0.0,0.0,0.0,0.0,0.0,0.0,0.0,0.0,0.0,0.0,0.0,0.0,0.0,0.0,-4.1197,-4.4169,-4.5034,-4.3775,-4.0749,-3.7762,-3.5019,-3.3789,0.0,0.0,0.0,0.0,0.0,0.0,0.0,0.0,0.0,0.0,0.0,0.0,0.0,0.0,0.0,0.0,0.0,0.0,0.0,0.0,0.0,0.0,0.0,0.0,0.0,0.0,0.0,-0.6818,0.0,0.0,0.0,0.0,0.0,0.0,0.0,0.0,0.0,0.0,0.0,0.0,0.0,0.0,-1.5087,-1.5031,-1.324,-1.1893,0.0,0.0,-0.8162,-0.8575,-0.7951,-0.7349,0.0,0.0,0.0,0.0,0.0,0.0,0.0,0.0,0.0,0.0,0.0,0.0,0.0,0.0,0.0,0.0,0.0,0.0,0.0,0.0,0.0,0.0,0.0,0.0,0.0,0.0,0.0,0.0,0.0,0.0,0.0,0.0,0.0,0.0,0.0,0.0,0.0,0.0,0.0,0.0,0.0,0.0,0.0,0.0,0.0,0.0,0.0,0.0,0.0,0.0,0.0,0.0,0.0,0.0,-3.4016,-3.7362,-3.9781,-4.06,-3.9562,-3.6795,-3.4504,-3.3055,-3.1631,-2.9069,0.0,0.0,0.0,0.0,0.0,0.0,0.0,0.0,0.0,0.0,0.0,0.0,0.0,0.0,0.0,0.0,0.0,0.0,0.0,0.0,0.0,0.0,0.0,0.0,0.0,0.0,0.0,0.0,0.0,0.0,0.0,0.0,0.0,0.0,0.0,0.0,0.0,0.0,0.0,0.0,0.0,0.0,-0.9613,-0.8474,0.0,0.0,0.0,-0.617,-0.6492,0.0,0.0,0.0,0.0,0.0,0.0,0.0,0.0,0.0,0.0,0.0,0.0,0.0,0.0,0.0,0.0,0.0,0.0,0.0,0.0,0.0,0.0,0.0,0.0,0.0,0.0,0.0,0.0,0.0,0.0,0.0,0.0,0.0,0.0,0.0,0.0,0.0,0.0,0.0,0.0,0.0,0.0,0.0,0.0,0.0,0.0,0.0,0.0,0.0,0.0,0.0,0.0,0.0,0.0,0.0,0.0,0.0,-3.3886,-3.54,-3.6149,-3.6243,-3.374,-3.2385,-3.2359,-3.0723,-2.8262,0.0,0.0,0.0,0.0,0.0,0.0,0.0,0.0,0.0,0.0,0.0,0.0,0.0,0.0,0.0,0.0,0.0,0.0,0.0,0.0,0.0,0.0,0.0,0.0,0.0,0.0,0.0,0.0,0.0,0.0,0.0,0.0,0.0,0.0,0.0,0.0,0.0,0.0,0.0,0.0,0.0,-0.6954,-0.5508,-0.5333,-0.5447,0.0,0.0,-0.5085,-0.5319,-0.3864,0.0,0.0,0.0,0.0,0.0,0.0,0.0,0.0,0.0,0.0,0.0,0.0,0.0,0.0,0.0,0.0,0.0,0.0,0.0,0.0,0.0,0.0,0.0,0.0,0.0,0.0,0.0,0.0,0.0,0.0,0.0,0.0,0.0,0.0,0.0,0.0,0.0,0.0,0.0,0.0,0.0,0.0,0.0,0.0,0.0,0.0,0.0,0.0,0.0,0.0,0.0,0.0,0.0,0.0,0.0,0.0,-3.3917,-3.4923,-3.5735,-3.6177,-3.3456,-3.1813,-3.1761,-3.0151,-2.7507,0.0,0.0,0.0,0.0,0.0,0.0,0.0,0.0,0.0,0.0,0.0,0.0,0.0,0.0,0.0,0.0,0.0,0.0,0.0,0.0,0.0,0.0,0.0,0.0,0.0,0.0,0.0,0.0,0.0,0.0,0.0,0.0,0.0,0.0,0.0,0.0,0.0,0.0,0.0,0.0,0.0,-0.5752,-0.5856,-0.4575,0.0,0.0,0.0,0.0,-0.1207,-0.0904,0.0,0.0,0.0,0.0,0.0,0.0,0.0,0.0,0.0,0.0,0.0,0.0,0.0,0.0,0.0,0.0,0.0,0.0,0.0,0.0,0.0,0.0,0.0,0.0,0.0,0.0,0.0,0.0,0.0,0.0,0.0,0.0,0.0,0.0,0.0,0.0,0.0,0.0,0.0,0.0,0.0,0.0,0.0,0.0,0.0,0.0,0.0,0.0,0.0,0.0,0.0,0.0,0.0,0.0,0.0,0.0,-3.2674,-3.3633,-3.3914,-3.3625,-3.2096,-3.1216,-3.119,-2.9929,-2.7402,0.0,0.0,0.0,0.0,0.0,0.0,0.0,0.0,0.0,0.0,0.0,0.0,0.0,0.0,0.0,0.0,0.0,0.0,0.0,0.0,0.0,0.0,0.0,0.0,0.0,0.0,0.0,0.0,0.0,0.0,0.0,0.0,0.0,0.0,0.0,0.0,0.0,0.0,0.0,0.0,-0.3321,-0.3739,-0.3221,0.0,0.0,0.0,0.0,0.0,0.0,0.0383,0.0463,0.0,0.0,0.0,0.0,0.0,0.0,0.0,0.0,0.0,0.0,0.0,0.0,0.0,0.0,0.0,0.0,0.0,0.0,0.0,0.0,0.0,0.0,0.0,0.0,0.0,0.0,0.0,0.0,0.0,0.0,0.0,0.0,0.0,0.0,0.0,0.0,0.0,0.0,0.0,0.0,0.0,0.0,0.0,0.0,0.0,0.0,0.0,0.0,0.0,0.0,0.0,0.0,0.0,0.0,0.0,-3.0601,-3.156,-3.1622,-3.0567,-3.063,-3.0723,-3.0501,-2.9721,-2.7454,-2.3763,0.0,0.0,0.0,0.0,0.0,0.0,0.0,0.0,0.0,0.0,0.0,0.0,0.0,0.0,0.0,0.0,0.0,0.0,0.0,0.0,0.0,0.0,0.0,0.0,0.0,0.0,0.0,0.0,0.0,0.0,0.0,0.0,0.0,0.0,0.0,0.0,0.0,0.0,0.0,-0.1227,-0.1595,0.0,0.0,0.0,0.0,0.0,0.0,0.0,0.0,0.1145,0.0,0.0,0.0,0.0,0.0,0.0,0.0,0.0,0.0,0.0,0.0,0.0,0.0,0.0,0.0,0.0,0.0,0.0,0.0,0.0,0.0,0.0,0.0,0.0,0.0,0.0,0.0,0.0,0.0,0.0,0.0,0.0,0.0,0.0,0.0,0.0,0.0,0.0,0.0,0.0,0.0,0.0,0.0,0.0,0.0,0.0,0.0,0.0,0.0,0.0,0.0,0.0,0.0,0.0,0.0,0.0,-2.8163,-2.9239,-3.0021,-3.0515,-3.0541,-3.0073,-2.9512,-2.709,-2.2578,0.0,0.0,0.0,0.0,0.0,0.0,0.0,0.0,0.0,0.0,0.0,0.0,0.0,0.0,0.0,0.0,0.0,0.0,0.0,0.0,0.0,0.0,0.0,0.0,0.0,0.0,0.0,0.0,0.0,0.0,0.0,0.0,0.0,0.0,0.0,0.0,0.0,0.0,-0.0153,-0.0219,0.0,0.0,0.0,0.0,0.0,0.0,0.0,0.0,0.127,0.0,0.0,0.0,0.0,0.0,0.0,0.0,0.0,0.0,0.0,0.0,0.0,0.0,0.0,0.0,0.0,0.0,0.0,0.0,0.0,0.0,0.0,0.0,0.0,0.0,0.0,0.0,0.0,0.0,0.0,0.0,0.0,0.0,0.0,0.0,0.0,0.0,0.0,0.0,0.0,0.0,0.0,0.0,0.0,0.0,0.0,0.0,0.0,0.0,0.0,0.0,0.0,0.0,0.0,0.0,0.0,0.0,0.0,-2.8842,-2.9512,-2.9736,-2.9762,-2.9538,-2.8132,-2.5554,0.0,0.0,0.0,0.0,0.0,0.0,0.0,0.0,0.0,0.0,0.0,0.0,0.0,0.0,0.0,0.0,0.0,0.0,0.0,0.0,0.0,0.0,0.0,0.0,0.0,0.0,0.0,0.0,0.0,0.0,0.0,0.0,0.0,0.0,0.0,0.0,0.0,0.0,0.0,0.0,0.0,0.0,0.0,0.0,0.0,0.0,0.0,0.0,0.0,0.0,0.0,0.0,0.0,0.0,0.0,0.0,0.0,0.0,0.0,0.0,0.0,0.0,0.0,0.0,0.0,0.0,0.0,0.0,0.0,0.0,0.0,0.0,0.0,0.0,0.0,0.0,0.0,0.0,0.0,0.0,0.0,0.0,0.0,0.0,0.0,0.0,0.0,0.0,0.0,0.0,0.0,0.0,0.0,0.0,0.0,0.0,0.0,0.0,0.0,0.0,0.0,0.0,0.0,0.0,0.0,0.0,0.0,0.0,-2.8256,-2.8913,-2.9121,-2.9121,-2.8905,-2.6567,-2.3892,0.0,0.0,0.0,0.0,0.0,0.0,0.0,0.0,0.0,0.0,0.0,0.0,0.0,0.0,0.0,0.0,0.0,0.0,0.0,0.0,0.0,0.0,0.0,0.0,0.0,0.0,0.0,0.0,0.0,0.0,0.0,0.0,0.0,0.0,0.0,0.0,0.0,0.0,0.0,0.0,0.0,0.0,0.0,0.0,0.0,0.0,0.0,0.0,0.1589,0.0,0.0,0.0,0.0,0.0,0.0,0.0,0.0,0.0,0.0,0.0,0.0,0.0,0.0,0.0,0.0,0.0,0.0,0.0,0.0,0.0,0.0,0.0,0.0,0.0,0.0,0.0,0.0,0.0,0.0,0.0,0.0,0.0,0.0,0.0,0.0,0.0,0.0,0.0,0.0,0.0,0.0,0.0,0.0,0.0,0.0,0.0,0.0,0.0,0.0,0.0,0.0,0.0,0.0,0.0,0.0,0.0,0.0,0.0,-2.6281,-2.8255,-2.8913,-2.8939,-2.8255,-2.558,-2.2542,0.0,0.0,0.0,0.0,0.0,0.0,0.0,0.0,0.0,0.0,0.0,0.0,0.0,0.0,0.0,0.0,0.0,0.0,0.0,0.0,0.0,0.0,0.0,0.0,0.0,0.0,0.0,0.0,0.0,0.0,0.0,0.0,0.0,0.0,0.0,0.0,0.0,0.0,0.0,0.0,0.0,0.0,0.0,0.0,0.0,0.0,0.0,0.0,0.0,0.0,0.0,0.0,0.0,0.0,0.0,0.0,0.0,0.0,0.0,0.0,0.0,0.0,0.0,0.0,0.0,0.0,0.0,0.0,0.0,0.0,0.0,0.0,0.0,0.0,0.0,0.0,0.0,0.0,0.0,0.0,0.0,0.0,0.0,0.0,0.0,0.0,0.0,0.0,0.0,0.0,0.0,0.0,0.0,0.0,0.0,0.0,0.0,0.0,0.0,0.0,0.0,0.0,0.0,0.0,0.0,0.0,0.0,0.0,-2.3834,-2.6697,-2.7632,-2.7684,-2.6775,-2.3251,-2.062,0.0,0.0,0.0,0.0,0.0,0.0,0.0,0.0,0.0,0.0,0.0,0.0,0.0,0.0,0.0,0.0,0.0,0.0,0.0,0.0,0.0,0.0,0.0,0.0,0.0,0.0,0.0,0.0,0.0,0.0,0.0,0.0,0.0,0.0,0.0,0.0,0.0,0.0,0.0,0.0,0.0,0.0,0.0,0.0,0.0,0.0,0.0,0.0,0.0,0.0,0.0,0.0,0.0,0.0,0.0,0.0,0.0,0.0,0.0,0.0,0.0,0.0,0.0,0.0,0.0,0.0,0.0,0.0,0.0,0.0,0.0,0.0,0.0,0.0,0.0,0.0,0.0,0.0,0.0,0.0,0.0,0.0,0.0,0.0,0.0,0.0,0.0,0.0,0.0,0.0,0.0,0.0,0.0,0.0,0.0,0.0,0.0,0.0,0.0,0.0,0.0,0.0,0.0,0.0,0.0,0.0,0.0,0.0,0.0,-2.4672,-2.6204,-2.6178,-2.4542,-2.1243,-1.8828,0.0,0.0,0.0,0.0,0.0,0.0,0.0,0.0,0.0,0.0,0.0,0.0,0.0,0.0,0.0,0.0,0.0,0.0,0.0,0.0,0.0,0.0,0.0,0.0,0.0,0.0,0.0,0.0,0.0,0.0,0.0,0.0,0.0,0.0,0.0,0.0,0.0,0.0,0.0,0.0,0.0,0.0,0.0,0.0,0.0,0.0,0.0,0.0,0.0,0.0,0.0,0.0,0.0,0.0,0.0,0.0,0.0,0.0,0.0,0.0,0.0,0.0,0.0,0.0,0.0,0.0,0.0,0.0,0.0,0.0,0.0,0.0,0.0,0.0,0.0,0.0,0.0,0.0,0.0,0.0,0.0,0.0,0.0,0.0,0.0,0.0,0.0,0.0,0.0,0.0,0.0,0.0,0.0,0.0,0.0,0.0,0.0,0.0,0.0,0.0,0.0,0.0,0.0,0.0,0.0,0.0,0.0,0.0,0.0,-2.2319,-2.452,-2.4412,-2.1737,-1.9815,-1.7322,0.0,0.0,0.0,0.0,0.0,0.0,0.0,0.0,0.0,0.0,0.0,0.0,0.0,0.0,0.0,0.0,0.0,0.0,0.0,0.0,0.0,0.0,0.0,0.0,0.0,0.0,0.0,0.0,0.0,0.0,0.0,0.0,0.0,0.0,0.0,0.0,0.0,0.0,0.0,0.0,0.0,0.0,0.0,0.0,0.0,0.0,0.0,0.0,0.0,0.0,0.0,0.0,0.0,0.0,0.0,0.0,0.0,0.0,0.0,0.0,0.0,0.0,0.0,0.0,0.0,0.0,0.0,0.0,0.0,0.0,0.0,0.0,0.0,0.0,0.0,0.0,0.0,0.0,0.0,0.0,0.0,0.0,0.0,0.0,0.0,0.0,0.0,0.0,0.0,0.0,0.0,0.0,0.0,0.0,0.0,0.0,0.0,0.0,0.0,0.0,0.0,0.0,0.0,0.0,0.0,0.0,0.0,0.0,0.0,-1.7504,-1.9296,-2.0646,-2.1347,-1.7582,-1.5634,-1.5691,0.0,0.0,0.0,0.0,0.0,0.0,0.0,0.0,0.0,0.0,0.0,0.0,0.0,0.0,0.0,0.0,0.0,0.0,0.0,0.0,0.0,0.0,0.0,0.0,0.0,0.0,0.0,0.0,0.0,0.0,0.0,0.0,0.0,0.0,0.0,0.0,0.0,0.0,0.0,0.0,0.0,0.0,0.0,0.0,0.0,0.0,0.0,0.0,0.0,0.0,0.0,0.0,0.0,0.0,0.0,0.0,0.0,0.0,0.0,0.0,0.0,0.0,0.0,0.0,0.0,0.0,0.0,0.0,0.0,0.0,0.0,0.0,0.0,0.0,0.0,0.0,0.0,0.0,0.0,0.0,0.0,0.0,0.0,0.0,0.0,0.0,0.0,0.0,0.0,0.0,0.0,0.0,0.0,0.0,0.0,0.0,0.0,0.0,0.0,0.0,0.0,0.0,0.0,0.0,0.0,0.0,0.0,0.0,-1.5394,-1.7192,-1.8776,-1.9867,-1.6413,-1.4647,0.0,0.0,0.0,0.0,0.0,0.0,0.0,0.0,0.0,0.0,0.0,0.0,0.0,0.0,0.0,0.0,0.0,0.0,0.0,0.0,0.0,0.0,0.0,0.0,0.0,0.0,0.0,0.0,0.0,0.0,0.0,0.0,0.0,0.0,0.0,0.0,0.0,0.0,0.0,0.0,0.0,0.0,0.0,0.0,0.0,0.0,0.0,0.0,0.0,0.0,0.0,0.0,0.0,0.0,0.0,0.0,0.0,0.0,0.0,0.0,0.0,0.0,0.0,0.0,0.0,0.0,0.0,0.0,0.0,0.0,0.0,0.0,0.0,0.0,0.0,0.0,0.0,0.0,0.0,0.0,0.0,0.0,0.0,0.0,0.0,0.0,0.0,0.0,0.0,0.0,0.0,0.0,0.0,0.0,0.0,0.0,0.0,0.0,0.0,0.0,0.0,0.0,0.0,0.0,0.0,0.0,0.0,0.0,-1.1651,-1.6804,-1.9114,-1.9301,-1.727,-1.6517,-1.4431,0.0,0.0,0.0,0.0,0.0,0.0,0.0,0.0,0.0,0.0,0.0,0.0,0.0,0.0,0.0,0.0,0.0,0.0,0.0,0.0,0.0,0.0,0.0,0.0,0.0,0.0,0.0,0.0,0.0,0.0,0.0,0.0,0.0,0.0,0.0,0.0,0.0,0.0,0.0,0.0,0.0,0.0,0.0,0.0,0.0,0.0,0.0,0.0,0.0,0.0,0.0,0.0,0.0,0.0,0.0,0.0,0.0,0.0,0.0,0.0,0.0,0.0,0.0,0.0,0.0,0.0,0.0,0.0,0.0,0.0,0.0,0.0,0.0,0.0,0.0,0.0,0.0,0.0,0.0,0.0,0.0,0.0,0.0,0.0,0.0,0.0,0.0,0.0,0.0,0.0,0.0,0.0,0.0,0.0,0.0,0.0,0.0,0.0,0.0,0.0,0.0,0.0,0.0,0.0,0.0,0.0,0.0,0.0,0.0,-1.1602,0.0,-1.6855,0.0,-1.5975,-1.4483,0.0,0.0,0.0,0.0,0.0,0.0,0.0,0.0,0.0,0.0,0.0,0.0,0.0,0.0,0.0,0.0,0.0,0.0,0.0,0.0,0.0,0.0,0.0,0.0,0.0,0.0,0.0,0.0,0.0,0.0,0.0,0.0,0.0,0.0,0.0,0.0,0.0,0.0,0.0,0.0,0.0,0.0,0.0,0.0,0.0,0.0,0.0,0.0,0.0,0.0,0.0,0.0,0.0,0.0,0.0,0.0,0.0,0.0,0.0,0.0,0.0,0.0,0.0,0.0,0.0,0.0,0.0,0.0,0.0,0.0,0.0,0.0,0.0,0.0,0.0,0.0,0.0,0.0,0.0,0.0,0.0,0.0,0.0,0.0,0.0,0.0,0.0,0.0,0.0,0.0,0.0,0.0,0.0,0.0,0.0,0.0,0.0,0.0,0.0,0.0,0.0,0.0,0.0,0.0,0.0,0.0,0.0,0.0,0.0,-1.181,-1.2977,-1.525,-1.8491,-1.582,-1.4621,0.0,0.0,0.0,0.0,0.0,0.0,0.0,0.0,0.0,0.0,0.0,0.0,0.0,0.0,0.0,0.0,0.0,0.0,0.0,0.0,0.0,0.0,0.0,0.0,0.0,0.0,0.0,0.0,0.0,0.0,0.0,0.0,0.0,0.0,0.0,0.0,0.0,0.0,0.0,0.0,0.0,0.0,0.0,0.0,0.0,0.0,0.0,0.0,0.0,0.0,0.0,0.0,0.0,0.0,0.0,0.0,0.0,0.0,0.0,0.0,0.0,0.0,0.0,0.0,0.0,0.0,0.0,0.0,0.0,0.0,0.0,0.0,0.0,0.0,0.0,0.0,0.0,0.0,0.0,0.0,0.0,0.0,0.0,0.0,0.0,0.0,0.0,0.0,0.0,0.0,0.0,0.0,0.0,0.0,0.0,0.0,0.0,0.0,0.0,0.0,0.0,0.0,0.0,0.0,0.0,0.0,0.0,0.0,0.0,-1.6167,-1.4559,-1.4629,-1.6804,-1.5872,-1.4759,0.0,0.0,0.0,0.0,0.0,0.0,0.0,0.0,0.0,0.0,0.0,0.0,0.0,0.0,0.0,0.0,0.0,0.0,0.0,0.0,0.0,0.0,0.0,0.0,0.0,0.0,0.0,0.0,0.0,0.0,0.0,0.0,0.0,0.0,0.0,0.0,0.0,0.0,0.0,0.0,0.0,0.0,0.0,0.0,0.0,0.0,0.0,0.0,0.0,0.0,0.0,0.0,0.0,0.0,0.0,0.0,0.0,0.0,0.0,0.0,0.0,0.0,0.0,0.0,0.0,0.0,0.0,0.0,0.0,0.0,0.0,0.0,0.0,0.0,0.0,0.0,0.0,0.0,0.0,0.0,0.0,0.0,0.0,0.0,0.0,0.0,0.0,0.0,0.0,0.0,0.0,0.0,0.0,0.0,0.0,0.0,0.0,0.0,0.0,0.0,0.0,0.0,0.0,0.0,0.0,0.0,0.0,0.0,0.0,0.0,-1.2113,-1.349,-1.4474,-1.4241,-1.393,-1.3619,0.0,0.0,0.0,0.0,0.0,0.0,0.0,0.0,0.0,0.0,0.0,0.0,0.0,0.0,0.0,0.0,0.0,0.0,0.0,0.0,0.0,0.0,0.0,0.0,0.0,0.0,0.0,0.0,0.0,0.0,0.0,0.0,0.0,0.0,0.0,0.0,0.0,0.0,0.0,0.0,0.0,0.0,0.0,0.0,0.0,0.0,0.0,0.0,0.0,0.0,0.0,0.0,0.0,0.0,0.0,0.0,0.0,0.0,0.0,0.0,0.0,0.0,0.0,0.0,0.0,0.0,0.0,0.0,0.0,0.0,0.0,0.0,0.0,0.0,0.0,0.0,0.0,0.0,0.0,0.0,0.0,0.0,0.0,0.0,0.0,0.0,0.0,0.0,0.0,0.0,0.0,0.0,0.0,0.0,0.0,0.0,0.0,0.0,0.0,0.0,0.0,0.0,0.0,0.0,0.0,0.0,0.0,0.0,0.0,0.0,-1.1991,-1.3567,-1.3593,-1.3723,0.0,0.0,0.0,0.0,0.0,0.0,0.0,0.0,0.0,0.0,0.0,0.0,0.0,0.0,0.0,0.0,0.0,0.0,0.0,0.0,0.0,0.0,0.0,0.0,0.0,0.0,0.0,0.0,0.0,0.0,0.0,0.0,0.0,0.0,0.0,0.0,0.0,0.0,0.0,0.0,0.0,0.0,0.0,0.0,0.0,0.0,0.0,0.0,0.0,0.0,0.0,0.0,0.0,0.0,0.0,0.0,0.0,0.0,0.0,0.0,0.0,0.0,0.0,0.0,0.0,0.0,0.0,0.0,0.0,0.0,0.0,0.0,0.0,0.0,0.0,0.0,0.0,0.0,0.0,0.0,0.0,0.0,0.0,0.0,0.0,0.0,0.0,0.0,0.0,0.0,0.0,0.0,0.0,0.0,0.0,0.0,0.0,0.0,0.0,0.0,0.0,0.0,0.0,0.0,0.0,0.0,0.0,0.0,0.0,0.0,0.0,-1.0484,-1.3191,-1.3542,0.0,-1.4118,0.0,0.0,0.0,0.0,0.0,0.0,0.0,0.0,0.0,0.0,0.0,0.0,0.0,0.0,0.0,0.0,0.0,0.0,0.0,0.0,0.0,0.0,0.0,0.0,0.0,0.0,0.0,0.0,0.0,0.0,0.0,0.0,0.0,0.0,0.0,0.0,0.0,0.0,0.0,0.0,0.0,0.0,0.0,0.0,0.0,0.0,0.0,0.0,0.0,0.0,0.0,0.0,0.0,0.0,0.0,0.0,0.0,0.0,0.0,0.0,0.0,0.0,0.0,0.0,0.0,0.0,0.0,0.0,0.0,0.0,0.0,0.0,0.0,0.0,0.0,0.0,0.0,0.0,0.0,0.0,0.0,0.0,0.0,0.0,0.0,0.0,0.0,0.0,0.0,0.0,0.0,0.0,0.0,0.0,0.0,0.0,0.0,0.0,0.0,0.0,0.0,0.0,0.0,0.0,0.0,0.0,0.0,0.0,0.0,0.0,0.0,0.0,-1.3206,-1.3389,-1.1409,0.0,0.0,0.0,0.0,0.0,0.0,0.0,0.0,0.0,0.0,0.0,0.0,0.0,0.0,0.0,0.0,0.0,0.0,0.0,0.0,0.0,0.0,0.0,0.0,0.0,0.0,0.0,0.0,0.0,0.0,0.0,0.0,0.0,0.0,0.0,0.0,0.0,0.0,0.0,0.0,0.0,0.0,0.0,0.0,0.0,0.0,0.0,0.0,0.0,0.0,0.0,0.0,0.0,0.0,0.0,0.0,0.0,0.0,0.0,0.0,0.0,0.0,0.0,0.0,0.0,0.0,0.0,0.0,0.0,0.0,0.0,0.0,0.0,0.0,0.0,0.0,0.0,0.0,0.0,0.0,0.0,0.0,0.0,0.0,0.0,0.0,0.0,0.0,0.0,0.0,0.0,0.0,0.0,0.0,0.0,0.0,0.0,0.0,0.0,0.0,0.0,0.0,0.0,0.0,0.0,0.0,0.0,0.0,0.0,0.0,-1.1071,-1.0362,-1.2555,-1.2685,-1.0445,0.0,0.0,0.0,0.0,0.0,0.0,0.0,0.0,0.0,0.0,0.0,0.0,0.0,0.0,0.0,0.0,0.0,0.0,0.0,0.0,0.0,0.0,0.0,0.0,0.0,0.0,0.0,0.0,0.0,0.0,0.0,0.0,0.0,0.0,0.0,0.0,0.0,0.0,0.0,0.0,0.0,0.0,0.0,0.0,0.0,0.0,0.0,0.0,0.0,0.0,0.0,0.0,0.0,0.0,0.0,0.0,0.0,0.0,0.0,0.0,0.0,0.0,0.0,0.0,0.0,0.0,0.0,0.0,0.0,0.0,0.0,0.0,0.0,0.0,0.0,0.0,0.0,0.0,0.0,0.0,0.0,0.0,0.0,0.0,0.0,0.0,0.0,0.0,0.0,0.0,0.0,0.0,0.0,0.0,0.0,0.0,0.0,0.0,0.0,0.0,0.0,0.0,0.0,0.0,0.0,0.0,0.0,0.0,0.0,0.0,0.0,0.0,0.0,0.0,-1.0913,0.0,0.0,0.0,0.0,0.0,0.0,0.0,0.0,0.0,0.0,0.0,0.0,0.0,0.0,0.0,0.0,0.0,0.0,0.0,0.0,0.0,0.0,0.0,0.0,0.0,0.0,0.0,0.0,0.0,0.0,0.0,0.0,0.0,0.0,0.0,0.0,0.0,0.0,0.0,0.0,0.0,0.0,0.0,0.0,0.0,0.0,0.0,0.0,0.0,0.0,0.0,0.0,0.0,0.0,0.0,0.0,0.0,0.0,0.0,0.0,0.0,0.0,0.0,0.0,0.0,0.0,0.0,0.0,0.0,0.0,0.0,0.0,0.0,0.0,0.0,0.0,0.0,0.0,0.0,0.0,0.0,0.0,0.0,0.0,0.0,0.0,0.0,0.0,0.0,0.0,0.0,0.0,0.0,0.0,0.0,0.0,0.0,0.0,0.0,0.0,0.0,0.0,0.0,0.0,0.0,0.0,0.0,0.0,0.0,0.0,0.0,0.0,0.0,0.0,0.0,0.0,0.0,0.0,0.0,0.0,0.0,0.0,0.0,0.0,0.0,0.0,0.0,0.0,0.0,0.0,0.0,0.0,0.0,0.0,0.0,0.0,0.0,0.0,0.0,0.0,0.0,0.0,0.0,0.0,0.0,0.0,0.0,0.0,0.0,0.0,0.0,0.0,0.0,0.0,0.0,0.0,0.0,0.0,0.0,0.0,0.0,0.0,0.0,0.0,0.0,0.0,0.0,0.0,0.0,0.0,0.0,0.0,0.0,0.0,0.0,0.0,0.0,0.0,0.0,0.0,0.0,0.0,0.0,0.0,0.0,0.0,0.0,0.0,0.0,0.0,0.0,0.0,0.0,0.0,0.0,0.0,0.0,0.0,0.0,0.0,0.0,0.0,0.0,0.0,0.0,0.0,0.0,0.0,0.0,0.0,0.0,0.0,0.0,0.0,0.0,0.0,0.0,0.0,0.0,0.0,0.0,0.0,0.0,0.0,0.0,0.0,0.0,0.0,0.0,0.0,0.0,0.0,0.0,0.0,0.0,0.0,0.0,0.0,0.0,0.0,0.0,0.0,0.0,0.0,0.0,0.0,0.0,0.0,0.0,0.0,0.0,0.0,0.0,0.0,0.0,0.0,0.0,0.0,0.0,0.0,0.0,0.0,0.0,0.0,0.0,0.0,0.0,0.0,0.0,0.0,0.0,0.0,0.0,0.0,0.0,0.0,0.0,0.0,0.0,0.0,0.0,0.0,0.0,0.0,0.0,0.0,0.0,0.0,0.0,0.0,0.0,0.0,0.0,0.0,0.0,0.0,0.0,0.0,0.0,0.0,0.0,0.0,0.0,0.0,0.0,0.0,0.0,0.0,0.0,0.0,0.0,0.0,0.0,0.0,0.0,0.0,0.0,0.0,0.0,0.0,0.0,0.0,0.0,0.0,0.0,0.0,0.0,0.0,0.0,0.0,0.0,0.0,0.0,0.0,0.0,0.0,0.0,0.0,0.0,0.0,0.0,0.0,0.0,0.0,0.0,0.0,0.0,0.0,0.0,0.0,0.0,0.0,0.0,0.0,0.0,0.0,0.0,0.0,0.0,0.0,0.0,0.0,0.0,0.0,0.0,0.0,0.0,0.0,0.0,0.0,0.0,0.0,0.0,0.0,0.0,0.0,0.0,0.0,0.0,0.0,0.0,0.0,0.0,0.0,0.0,0.0,0.0,0.0,0.0,0.0,0.0,0.0,0.0,0.0,0.0,0.0,0.0,0.0,0.0,0.0,0.0,0.0,0.0,0.0,0.0,0.0,0.0,0.0,0.0,0.0,0.0,0.0,0.0,0.0,0.0,0.0,0.0,0.0,0.0,0.0,0.0,0.0,0.0,0.0,0.0,0.0,0.0,0.0,0.0,0.0,0.0,0.0,0.0,0.0,0.0,0.0,0.0,0.0,0.0,0.0,0.0,0.0,0.0,0.0,0.0,0.0,0.0,0.0,0.0,0.0,0.0,0.0,0.0,0.0,0.0,0.0,0.0,0.0,0.0,0.0,0.0,0.0,0.0,0.0,0.0,0.0,0.0,0.0,0.0,0.0,0.0,0.0,0.0,0.0,0.0,0.0,0.0,0.0,0.0,0.0,0.0,0.0,0.0,0.0,0.0,0.0,0.0,0.0,0.0,0.0,0.0,0.0,0.0,0.0,0.0,0.0,0.0,0.0,0.0,0.0,0.0,0.0,0.0,0.0,0.0,0.0,0.0,0.0,0.0,0.0,0.0,0.0,0.0,0.0,0.0,0.0,0.0,0.0,0.0,0.0,0.0,0.0,0.0,0.0,0.0,0.0,0.0,0.0,0.0,0.0,0.0,0.0,0.0,0.0,0.0,0.0,0.0,0.0,0.0,0.0,0.0,0.0,0.0,0.0,0.0,0.0,0.0,0.0,0.0,0.0,0.0,0.0,0.0,0.0,0.0,0.0,0.0,0.0,0.0,0.0,0.0,0.0,0.0,0.0,0.0,0.0,0.0,0.0,0.0,0.0,0.0,0.0,0.0,0.0,0.0,0.0,0.0,0.0,0.0,0.0,0.0,0.0,0.0,0.0,0.0,0.0,0.0,0.0,0.0,0.0,0.0,0.0,0.0,0.0,0.0,0.0,0.0,0.0,0.0,0.0,0.0,0.0,0.0,0.0,0.0,0.0,0.0,0.0,0.0,0.0,0.0,0.0,0.0,0.0,0.0,0.0,0.0,0.0,0.0,0.0,0.0,0.0,0.0,0.0,0.0,0.0,0.0,0.0,0.0,0.0,0.0,0.0,0.0,0.0,0.0,0.0,0.0,0.0,0.0,0.0,0.0,0.0,0.0,0.0,0.0,0.0,0.0,0.0,0.0,0.0,0.0,0.0,0.0,0.0,0.0,0.0,0.0,0.0,0.0,0.0,0.0,0.0,0.0,0.0,0.0,0.0,0.0,0.0,0.0,0.0,0.0,0.0,0.0,0.0,0.0,0.0,0.0,0.0,0.0,0.0,0.0,0.0,0.0,0.0,0.0,0.0,0.0,0.0,0.0,0.0,0.0,0.0,0.0,0.0,0.0,0.0,0.0,0.0,0.0,0.0,0.0,0.0,0.0,0.0,0.0,0.0,0.0,0.0,0.0,0.0,0.0,0.0,0.0,0.0,0.0,0.0,0.0,0.0,0.0,0.0,0.0,0.0,0.0,0.0,0.0,0.0,0.0,0.0,0.0,0.0,0.0,0.0,0.0,0.0,0.0,0.0,0.0,0.0,0.0,0.0,0.0,0.0,0.0,0.0,0.0,0.0,0.0,0.0,0.0,0.0,0.0,0.0,0.0,0.0,0.0,0.0,0.0,0.0,0.0,0.0,0.0,0.0,0.0,0.0,0.0,0.0,0.0,0.0,0.0,0.0,0.0,0.0,0.0,0.0,0.0,0.0,0.0,0.0,0.0,0.0,0.0,0.0,0.0,0.0,0.0,0.0,0.0,0.0,0.0,0.0,0.0,0.0,0.0,0.0,0.0,0.0,0.0,0.0,0.0,0.0,0.0,0.0,0.0,0.0,0.0,0.0,0.0,0.0,0.0,0.0,0.0,0.0,0.0,0.0,0.0,0.0,0.0,0.0,0.0,0.0,0.0,0.0,0.0,0.0,0.0,0.0,0.0,0.0,0.0,0.0,0.0,0.0,0.0,0.0,0.0,0.0,0.0,0.0,0.0,0.0,0.0,0.0,0.0,0.0,0.0,0.0,0.0,0.0,0.0,0.0,0.0,0.0,0.0,0.0,0.0,0.0,0.0,0.0,0.0,0.0,0.0,0.0,0.0,0.0,0.0,0.0,0.0,0.0,0.0,0.0,0.0,0.0,0.0,0.0,0.0,0.0,0.0,0.0,0.0,0.0,0.0,0.0,0.0,0.0,0.0,0.0,0.0,0.0,0.0,0.0,0.0,0.0,0.0,0.0,0.0,0.0,0.0,0.0,0.0,0.0,0.0,0.0,0.0,0.0,0.0,0.0,0.0,0.0,0.0,0.0,0.0,0.0,0.0,0.0,0.0,0.0,0.0,0.0,0.0,0.0,0.0,0.0,0.0,0.0,0.0,0.0,0.0,0.0,0.0,0.0,0.0,0.0,0.0,0.0,0.0,0.0,0.0,0.0,0.0,0.0,0.0,0.0,0.0,0.0,0.0,0.0,0.0,0.0,0.0,0.0,0.0,0.0,0.0,0.0,0.0,0.0,0.0,0.0,0.0,0.0,0.0,0.0,0.0,0.0,0.0,0.0,0.0,0.0,0.0,0.0,0.0,0.0,0.0,0.0,0.0,0.0,0.0,0.0,0.0,0.0,0.0,0.0,0.0,0.0,0.0,0.0,0.0,0.0]}],[{"header":{"parameterUnit":"kt","parameterCategory":2,"dx":1,"dy":1,"la1":29.587661999999998,"la2":31.0,"lo1":-88.76705300000003,"lo2":-86.6583820000003,"nx":115,"ny":88,"refTime":"2022-10-22T12:00:00:Z","depth":0,"parameterNumber":2,"parameterNumberName":"V-component_of_WINDS"},"data":[10.2753,10.2753,10.2753,10.2753,10.2753,10.2753,10.2753,10.3082,10.4009,10.4985,10.6157,10.7084,10.7963,10.8939,10.9085,10.928,10.928,10.928,10.928,10.928,10.928,10.928,11.0314,11.2401,11.7278,12.1031,12.4201,12.68,12.9699,13.0235,13.0235,13.0235,13.0235,12.9595,12.8374,12.7152,12.6047,12.4826,12.3662,12.2848,12.2732,12.2844,12.2728,12.2728,12.2728,12.2728,12.2728,12.2728,12.2728,12.2728,12.2728,12.2728,12.2728,12.2728,12.2728,12.2728,12.2728,12.2728,12.2325,12.215,12.1219,12.0172,11.8835,11.7613,11.645,11.517,11.5112,11.4984,11.5345,11.6675,11.8015,11.8811,11.9146,12.1688,12.4905,12.6404,12.6757,12.5699,12.4953,12.3823,12.2508,12.1785,12.1324,12.1324,12.1324,12.1324,12.1324,12.1324,12.1324,12.1324,12.1324,12.1719,12.2179,12.185,12.1719,12.1982,12.1719,12.139,12.093,11.9746,11.8628,11.7576,11.6524,11.5603,11.5932,11.6524,11.6787,11.6787,11.8562,12.0338,12.0995,12.175,12.3181,12.4002,12.4088,10.2704,10.2753,10.2753,10.2753,10.2753,10.2753,10.2753,10.3033,10.3912,10.4985,10.5913,10.6157,10.6889,10.7914,10.8743,10.9085,10.928,10.928,10.928,10.928,10.928,10.928,10.9515,11.0032,11.2954,11.6743,12.1986,12.6127,13.0058,13.0003,13.0003,13.0177,12.9944,12.9537,12.8316,12.6978,12.5582,12.4186,12.3372,12.2844,12.2728,12.2728,12.2728,12.2728,12.2728,12.2728,12.2728,12.2728,12.2728,12.2728,12.2728,12.2728,12.2728,12.2728,12.2728,12.2728,12.2728,12.2669,12.2266,12.1568,12.0463,11.9184,11.7788,11.6624,11.5577,11.4937,11.4937,11.4879,11.4879,11.5807,11.7471,11.8514,11.8454,11.9575,12.3177,12.6167,12.5242,12.424,12.384,12.356,12.2508,12.1522,12.1324,12.1324,12.1324,12.1324,12.1324,12.1324,12.1324,12.1522,12.1785,12.2245,12.3034,12.3297,12.3231,12.3034,12.2574,12.2179,12.139,12.0141,11.876,11.6787,11.5537,11.5209,11.5472,11.5932,11.6195,11.6721,11.8694,12.0732,12.1092,12.1419,12.2707,12.3316,12.3523,10.235,10.2753,10.2753,10.2753,10.2753,10.2753,10.2753,10.2801,10.3375,10.4156,10.5034,10.5229,10.6108,10.7719,10.8109,10.8499,10.9232,10.9232,10.928,10.928,10.928,10.928,10.928,10.9515,11.0827,11.2816,11.8814,12.4772,12.9406,12.977,12.907,12.9014,12.8199,12.7327,12.6164,12.5582,12.4593,12.3488,12.2964,12.2786,12.2728,12.2728,12.2728,12.2728,12.2728,12.2728,12.2728,12.2728,12.2728,12.2728,12.2728,12.2728,12.2728,12.2728,12.2728,12.2728,12.2499,12.2266,12.1627,12.087,11.9882,11.8369,11.6915,11.6217,11.517,11.4879,11.4879,11.4879,11.4879,11.4879,11.6572,11.6964,11.6964,11.7453,12.0395,12.1845,12.1052,12.1222,12.2022,12.2042,12.2036,12.1182,12.1324,12.1324,12.1324,12.1324,12.1324,12.1324,12.1653,12.1916,12.2376,12.2968,12.4152,12.4612,12.4481,12.4086,12.3428,12.2574,12.185,12.0075,11.8036,11.5998,11.4485,11.4222,11.4288,11.5077,11.6064,11.6655,11.8299,12.0535,12.1045,12.1022,12.1905,12.2629,12.1787,10.191,10.2887,10.2753,10.2753,10.2753,10.2753,10.2753,10.2753,10.2753,10.3375,10.4009,10.44,10.5327,10.6742,10.7328,10.8109,10.8841,10.8988,10.9232,10.928,10.928,10.928,10.928,10.928,10.9422,11.1477,11.5667,12.206,12.4604,12.645,12.7079,12.7675,12.7269,12.6164,12.4884,12.4709,12.4011,12.2964,12.2728,12.2728,12.2728,12.2728,12.2728,12.2728,12.2728,12.2728,12.2728,12.2728,12.2728,12.2728,12.2728,12.2728,12.2728,12.2728,12.2728,12.2669,12.2208,12.1627,12.087,11.9823,11.8718,11.7322,11.6392,11.5752,11.5286,11.5054,11.4879,11.4879,11.4879,11.4879,11.5089,11.5031,11.5182,11.5984,11.7173,11.6458,11.5775,11.7573,11.9735,12.0451,12.106,12.1182,12.1258,12.1324,12.1324,12.1324,12.1324,12.139,12.1719,12.2771,12.3297,12.4218,12.5335,12.6125,12.573,12.527,12.4152,12.3231,12.1653,11.9483,11.7313,11.5866,11.4617,11.3828,11.3499,11.488,11.5932,11.6524,11.7971,12.0141,12.0894,12.0196,12.0739,12.0739,11.9725,10.1862,10.2838,10.2753,10.2753,10.2753,10.2753,10.2753,10.2753,10.2753,10.2935,10.3179,10.396,10.4497,10.5278,10.6498,10.7377,10.8158,10.8743,10.8988,10.928,10.928,10.928,10.928,10.928,10.928,11.1617,11.5042,11.8683,11.8495,12.1322,12.4971,12.6455,12.6164,12.5349,12.4244,12.4128,12.3604,12.2844,12.2728,12.2728,12.2728,12.2728,12.2728,12.2728,12.2728,12.2728,12.2728,12.2728,12.2728,12.2728,12.2728,12.2728,12.2728,12.2728,12.2728,12.2495,12.1627,12.0987,12.0172,11.8718,11.7439,11.6566,11.5752,11.5228,11.5054,11.4937,11.4879,11.4879,11.4879,11.4879,11.4705,11.4588,11.4181,11.4455,11.4806,11.4486,11.4272,11.5353,11.6919,11.7348,11.8484,12.0732,12.0952,12.1324,12.1324,12.1324,12.1324,12.1324,12.2113,12.3692,12.4546,12.5401,12.6914,12.8163,12.7506,12.6388,12.5138,12.3231,12.1127,11.9088,11.7247,11.5932,11.4683,11.3696,11.2907,11.442,11.5998,11.659,11.7708,11.968,12.0216,11.937,11.8767,11.852,11.8176,10.0934,10.1959,10.2594,10.2753,10.2753,10.2753,10.2753,10.2753,10.2753,10.2753,10.2801,10.3326,10.3814,10.4448,10.5327,10.645,10.7572,10.8207,10.8792,10.9036,10.928,10.928,10.928,10.928,10.928,11.0687,11.3317,11.605,11.6619,11.9421,12.3048,12.5003,12.436,12.3837,12.3546,12.343,12.3081,12.279,12.2728,12.2728,12.2728,12.2728,12.2728,12.2728,12.2728,12.2728,12.2728,12.2728,12.2728,12.2728,12.2728,12.2728,12.2728,12.2728,12.2728,12.2383,12.1336,12.0405,11.9358,11.7671,11.6624,11.5752,11.517,11.4937,11.4879,11.4879,11.4879,11.4879,11.4879,11.4821,11.453,11.4239,11.36,11.3018,11.2832,11.2738,11.3085,11.3543,11.405,11.4432,11.6294,11.895,12.0577,12.1105,12.1324,12.1324,12.1324,12.139,12.2442,12.4086,12.5204,12.6322,12.8163,12.961,12.8886,12.7834,12.6453,12.4678,12.1916,11.922,11.7313,11.5801,11.442,11.3367,11.2578,11.4354,11.6327,11.6853,11.7576,11.8694,11.9624,11.8634,11.7855,11.7428,11.8081,10.03,10.1374,10.2447,10.2753,10.2753,10.2753,10.2753,10.2753,10.2753,10.2753,10.2753,10.2753,10.3277,10.396,10.4302,10.5571,10.6694,10.7621,10.8304,10.889,10.928,10.928,10.928,10.928,10.928,11.0356,11.2099,11.4237,11.495,11.8478,12.1744,12.3442,12.3313,12.2964,12.2844,12.2728,12.2786,12.2728,12.2728,12.2728,12.2728,12.2728,12.2728,12.2728,12.2728,12.2728,12.2728,12.2728,12.2728,12.2728,12.2728,12.2728,12.2728,12.2728,12.2728,12.2441,12.1045,11.9649,11.8311,11.6973,11.5868,11.517,11.4937,11.4879,11.4879,11.4879,11.4879,11.4879,11.4879,11.4356,11.3949,11.3425,11.2727,11.2145,11.1709,11.1079,11.019,11.1005,11.2784,11.3068,11.338,11.621,11.9428,12.0344,12.1324,12.1324,12.139,12.1653,12.2574,12.4349,12.5664,12.7111,12.8689,12.9676,12.9215,12.8623,12.744,12.5862,12.2376,11.9417,11.7642,11.5932,11.4294,11.3241,11.2715,11.4025,11.6261,11.751,11.8299,11.9154,11.8769,11.7813,11.7126,11.7342,11.7896,10.03,10.1374,10.2447,10.2753,10.2753,10.2753,10.2753,10.2753,10.2753,10.2753,10.2753,10.2753,10.285,10.3179,10.3912,10.4985,10.601,10.6986,10.7865,10.8646,10.8646,10.8841,10.889,10.889,10.8646,10.9813,11.1032,11.1964,11.3135,11.6802,12.0186,12.1947,12.251,12.2674,12.2728,12.2728,12.2728,12.2728,12.2728,12.2728,12.2728,12.2728,12.2728,12.2728,12.2728,12.2728,12.2728,12.2728,12.2728,12.2728,12.2728,12.2728,12.2728,12.2728,12.2615,12.1976,12.0231,11.8718,11.7264,11.5984,11.5054,11.4937,11.4879,11.4879,11.4879,11.4879,11.4879,11.4879,11.453,11.3949,11.3134,11.2436,11.168,11.1157,11.0517,10.957,10.8231,10.886,11.0684,11.1571,11.1824,11.426,11.7769,12.0123,12.1324,12.1324,12.139,12.1785,12.2902,12.4612,12.6059,12.7506,12.8689,12.961,12.9478,12.8821,12.7834,12.7045,12.3428,12.0404,11.8168,11.6392,11.488,11.3702,11.2907,11.3499,11.5603,11.7247,11.8562,11.8299,11.7773,11.7016,11.7181,11.7407,11.805,10.0544,10.0446,10.2154,10.2753,10.2753,10.2753,10.2753,10.2753,10.2753,10.2753,10.2753,10.2753,10.2753,10.285,10.3326,10.4009,10.4936,10.5425,10.6108,10.7084,10.723,10.7328,10.7328,10.7133,10.7474,10.7362,10.8299,11.0089,11.2023,11.4844,11.7812,12.0506,12.1774,12.2561,12.2728,12.2728,12.2728,12.2728,12.2728,12.2728,12.2728,12.2728,12.2728,12.2728,12.2728,12.2728,12.2728,12.2728,12.2728,12.2728,12.2728,12.2728,12.2728,12.2611,12.215,12.1568,12.0231,11.9009,11.709,11.5577,11.4996,11.4879,11.4879,11.4879,11.4879,11.4879,11.4879,11.453,11.4007,11.3483,11.2727,11.0749,11.0168,10.9761,10.9121,10.8481,10.759,10.759,10.8895,10.9411,11.019,11.3708,11.711,11.919,12.1324,12.1324,12.1324,12.2245,12.3231,12.4678,12.6059,12.7506,12.8755,12.9544,12.961,12.9084,12.8558,12.7769,12.5204,12.2245,11.9878,11.7379,11.5735,11.4288,11.4551,11.5011,11.5998,11.6655,11.7905,11.8036,11.6787,11.6574,11.7274,11.7815,11.8524,10.0544,10.0349,10.1764,10.2545,10.2753,10.2753,10.2753,10.2753,10.2753,10.2753,10.2753,10.2753,10.2753,10.2753,10.3033,10.3472,10.4302,10.4448,10.4985,10.6059,10.6254,10.6059,10.6157,10.6303,10.6205,10.6148,10.6119,10.7771,11.1857,11.3235,11.6026,11.9622,12.2171,12.2615,12.2728,12.2728,12.2728,12.2728,12.2728,12.2728,12.2728,12.2728,12.2728,12.2728,12.2728,12.2728,12.2728,12.2728,12.2728,12.2728,12.2728,12.2728,12.2728,12.1917,12.1568,12.0987,11.9358,11.8544,11.7148,11.5694,11.4937,11.4879,11.4879,11.4879,11.4879,11.4879,11.4588,11.4181,11.3483,11.2553,11.1913,10.9993,10.9004,10.8697,10.819,10.7492,10.7318,10.7318,10.7651,10.837,10.86,11.1794,11.6378,11.9508,12.0952,12.1324,12.1324,12.2113,12.31,12.4546,12.5993,12.744,12.8689,12.9413,12.9873,12.961,12.9149,12.8229,12.619,12.3626,12.1193,11.8628,11.6984,11.5669,11.6195,11.6787,11.7379,11.7905,11.8234,11.7247,11.5274,11.4559,11.6341,11.7847,11.8864,10.0397,10.1227,10.1276,10.191,10.2691,10.2704,10.2753,10.2753,10.2753,10.2753,10.2753,10.2753,10.2753,10.2753,10.2753,10.3326,10.4009,10.4204,10.4644,10.5327,10.5376,10.5717,10.5717,10.5571,10.5327,10.5571,10.5394,10.7419,11.3162,11.3008,11.6355,12.0113,12.1997,12.2728,12.2728,12.2728,12.2728,12.2728,12.2728,12.2728,12.2728,12.2728,12.2728,12.2728,12.2728,12.2728,12.2728,12.2728,12.2728,12.2728,12.2728,12.2441,12.2266,12.1394,12.0696,12.0231,11.8195,11.709,11.6682,11.5519,11.4996,11.4879,11.4879,11.4879,11.4879,11.4647,11.4298,11.3483,11.2611,11.1447,11.0342,10.9162,10.8365,10.7899,10.7667,10.7318,10.7318,10.7259,10.7982,10.8696,10.8792,10.9744,11.5251,11.9175,12.0162,12.1071,12.1237,12.1916,12.2968,12.4349,12.5796,12.7242,12.8623,12.9347,12.9873,12.9873,12.9544,12.8623,12.6979,12.4612,12.2245,12.0075,11.8562,11.7247,11.7444,11.8102,11.8628,11.8957,11.8168,11.7181,11.4748,11.3956,11.601,11.7817,11.9256,10.0983,10.1276,10.1276,10.1471,10.1862,10.2545,10.2753,10.2753,10.2753,10.2753,10.2753,10.2753,10.2753,10.2753,10.2753,10.3179,10.3326,10.3472,10.3619,10.3863,10.4009,10.3863,10.3863,10.3912,10.4156,10.3765,10.3777,10.5227,11.0083,11.1799,11.5185,11.8611,12.1313,12.2333,12.2728,12.2728,12.2728,12.2728,12.2728,12.2728,12.2728,12.2728,12.2728,12.2728,12.2728,12.2728,12.2728,12.2728,12.2728,12.2728,12.2441,12.2092,12.151,12.0696,11.9707,11.8427,11.7148,11.6392,11.5694,11.5054,11.4937,11.4879,11.4879,11.4879,11.4647,11.4007,11.3541,11.2785,11.1273,11.0051,10.9586,10.8423,10.7667,10.755,10.7318,10.7318,10.7318,10.7358,10.8079,10.8659,10.9189,10.9737,11.4071,11.6364,11.7983,11.9865,12.0691,12.2113,12.2968,12.402,12.5533,12.7045,12.8558,12.9347,12.9873,12.9676,12.9413,12.8492,12.6914,12.4875,12.3363,12.1785,12.0141,11.9023,11.8825,11.9417,11.9351,11.8891,11.8036,11.6984,11.5922,11.4631,11.6477,11.7699,11.9311,10.1276,10.1276,10.1276,10.1276,10.1374,10.2447,10.2753,10.2753,10.2753,10.2753,10.2753,10.2753,10.2753,10.2753,10.2753,10.2753,10.2753,10.2753,10.2801,10.2753,10.2753,10.2887,10.2887,10.285,10.2753,10.2984,10.3069,10.4466,10.765,11.1142,11.3921,11.6618,12.0629,12.1995,12.2728,12.2728,12.2728,12.2728,12.2728,12.2728,12.2728,12.2728,12.2728,12.2728,12.2728,12.2728,12.2728,12.2728,12.2728,12.2611,12.2034,12.151,12.087,11.9533,11.8369,11.7148,11.6333,11.5694,11.5054,11.4937,11.4879,11.4879,11.4879,11.4879,11.4821,11.3774,11.296,11.1796,11.0459,10.9179,10.8655,10.7783,10.7318,10.7318,10.7318,10.7318,10.7318,10.7318,10.7749,10.8061,10.8744,10.9742,11.1771,11.4141,11.6659,11.9164,12.0728,12.2179,12.2705,12.356,12.527,12.6914,12.8623,12.961,12.9873,12.961,12.9347,12.8032,12.6585,12.5007,12.356,12.2245,12.1193,12.0864,12.0404,12.0338,11.9943,11.9023,11.765,11.6223,11.5544,11.5174,11.6293,11.753,11.8907,10.1276,10.1276,10.1276,10.1276,10.1374,10.235,10.2789,10.2753,10.2753,10.2753,10.2753,10.2753,10.2753,10.2753,10.2753,10.2753,10.2753,10.2753,10.2753,10.2753,10.2753,10.2753,10.2753,10.2753,10.2753,10.2753,10.2887,10.4466,10.7392,11.0391,11.2629,11.3854,11.9998,12.1995,12.2728,12.2728,12.2728,12.2728,12.2728,12.2728,12.2728,12.2728,12.2728,12.2728,12.2728,12.2728,12.2728,12.2728,12.2728,12.2557,12.1627,12.0754,11.9998,11.8486,11.7322,11.6333,11.5635,11.5228,11.4996,11.4879,11.4879,11.4879,11.4879,11.4821,11.4414,11.3425,11.2262,11.0866,10.9586,10.8423,10.7783,10.7318,10.7318,10.7318,10.7318,10.7318,10.7318,10.7318,10.7376,10.755,10.8468,10.9702,11.1591,11.5142,11.7969,12.0708,12.241,12.3626,12.3823,12.3757,12.5401,12.6979,12.8755,12.9676,12.9873,12.9084,12.836,12.7111,12.573,12.4481,12.3363,12.2574,12.1324,12.0995,12.093,12.0995,12.0732,11.8431,11.64,11.5246,11.4542,11.4296,11.5041,11.6859,11.8454,10.1276,10.1276,10.1276,10.1276,10.1325,10.1569,10.2154,10.2704,10.2753,10.2753,10.2753,10.2753,10.2753,10.2753,10.2753,10.2753,10.2753,10.2753,10.2753,10.2753,10.2753,10.2753,10.2753,10.2753,10.2753,10.2753,10.2753,10.3505,10.594,10.9562,11.3921,11.6618,12.0343,12.2333,12.2728,12.2728,12.2728,12.2728,12.2728,12.2728,12.2728,12.2728,12.2728,12.2728,12.2728,12.2728,12.2728,12.2728,12.2615,12.2325,12.1278,12.0056,11.9184,11.7613,11.6392,11.5577,11.5228,11.4879,11.4879,11.4879,11.4879,11.4879,11.4879,11.453,11.3658,11.2262,11.0982,10.9877,10.8655,10.7899,10.7376,10.7318,10.7318,10.7318,10.7318,10.7318,10.7318,10.7318,10.7376,10.7667,10.8487,10.9721,11.2306,11.5988,11.9116,12.2024,12.3823,12.5005,12.4941,12.4481,12.5796,12.7177,12.8755,12.9741,12.9478,12.8689,12.7374,12.619,12.4809,12.356,12.2442,12.1653,12.1324,12.1324,12.1193,12.0667,11.9154,11.705,11.5077,11.458,11.4075,11.369,11.431,11.6242,11.7901,10.1422,10.0641,10.1081,10.1032,10.069,10.1129,10.191,10.274,10.2753,10.2753,10.2753,10.2753,10.2753,10.2753,10.2753,10.2753,10.2753,10.2753,10.2753,10.2753,10.2753,10.2753,10.2753,10.2753,10.2753,10.2753,10.2753,10.2753,10.4993,10.9181,11.3365,11.5904,11.9998,12.2728,12.2728,12.2728,12.2728,12.2728,12.2728,12.2728,12.2728,12.2728,12.2728,12.2728,12.2728,12.2728,12.2728,12.2728,12.2441,12.1568,12.058,11.93,11.7962,11.6741,11.5752,11.4879,11.4879,11.4879,11.4879,11.4879,11.4879,11.4879,11.4821,11.4298,11.296,11.1389,10.9819,10.9179,10.8016,10.7376,10.7318,10.7318,10.7318,10.7318,10.7318,10.7318,10.7318,10.7318,10.7376,10.7841,10.8504,11.0094,11.2141,11.5638,11.8655,12.1654,12.4146,12.5332,12.5599,12.5138,12.5927,12.7374,12.8623,12.9544,12.8952,12.8097,12.6651,12.5138,12.3757,12.2968,12.1785,12.1324,12.1324,12.1324,12.0601,11.9154,11.7379,11.5801,11.4551,11.4048,11.3674,11.4036,11.4509,11.6236,11.7173,10.1764,10.0153,10.0837,10.0641,10.0153,10.0739,10.1666,10.2594,10.2789,10.2753,10.2753,10.2753,10.2753,10.2753,10.2753,10.2753,10.2753,10.2753,10.2753,10.2753,10.2753,10.2753,10.2753,10.2753,10.2753,10.2753,10.2753,10.2887,10.5206,10.9888,11.2998,11.5065,11.9768,12.2728,12.2728,12.2728,12.2728,12.2728,12.2728,12.2728,12.2728,12.2728,12.2728,12.2728,12.2669,12.2499,12.2208,12.2092,12.1627,12.0521,11.9242,11.802,11.6857,11.5577,11.5054,11.4879,11.4879,11.4879,11.4879,11.4879,11.4879,11.4879,11.4588,11.4007,11.2727,11.0924,10.9237,10.9004,10.7957,10.7318,10.7318,10.7318,10.7318,10.7318,10.7318,10.7318,10.7318,10.7318,10.7318,10.7765,10.8996,11.0493,11.271,11.5545,11.8384,12.1612,12.4411,12.5565,12.6059,12.5401,12.573,12.744,12.8821,12.8755,12.8229,12.7045,12.5599,12.4008,12.3231,12.2574,12.1785,12.1324,12.1258,12.0404,11.9417,11.8102,11.6392,11.5011,11.3959,11.3449,11.3336,11.3903,11.464,11.5635,11.6733,10.2643,10.2106,10.0641,10.0397,10.0788,10.03,10.0593,10.1666,10.2496,10.2704,10.2753,10.2753,10.2753,10.2753,10.2753,10.2753,10.2753,10.2753,10.2753,10.2753,10.2753,10.2753,10.2753,10.2753,10.2753,10.2753,10.2887,10.4202,10.633,11.0266,11.3799,11.6381,12.0113,12.2615,12.2786,12.2844,12.2728,12.2728,12.2728,12.2728,12.2728,12.2728,12.2728,12.2728,12.2728,12.2092,12.1336,12.1161,12.0463,11.9184,11.8078,11.709,11.6682,11.5577,11.4937,11.4879,11.4879,11.4879,11.4879,11.4879,11.4879,11.4879,11.4007,11.3425,11.2378,11.0749,10.883,10.7841,10.7318,10.7318,10.7318,10.7318,10.7318,10.7318,10.7318,10.7318,10.7318,10.7318,10.7318,10.8041,10.9579,11.1598,11.4291,11.7044,11.9339,12.2504,12.4785,12.5993,12.6979,12.619,12.6651,12.8097,12.8558,12.836,12.6979,12.5796,12.4612,12.3231,12.2508,12.2113,12.1653,12.1258,12.0272,11.9483,11.8365,11.6918,11.5406,11.3894,11.3367,11.2978,11.2997,11.3292,11.4042,11.5002,11.5947,10.2594,10.1959,10.0397,10.0007,10.0251,9.9324,9.947,10.0593,10.1618,10.2106,10.2252,10.2643,10.2753,10.2753,10.2753,10.2753,10.2753,10.2753,10.2753,10.2753,10.2753,10.2753,10.2753,10.2753,10.2753,10.2753,10.2887,10.3854,10.5598,10.8876,11.1711,11.525,11.8611,12.1086,12.2336,12.3081,12.3488,12.3721,12.4128,12.4535,12.4535,12.4477,12.4011,12.3313,12.2441,12.1452,12.0638,12.0231,11.9184,11.7962,11.7148,11.6508,11.5926,11.5286,11.4879,11.4879,11.4879,11.4879,11.4879,11.4879,11.4879,11.4821,11.4414,11.3425,11.2029,11.0749,10.9295,10.7899,10.7318,10.7318,10.7318,10.7318,10.7318,10.7318,10.7318,10.7318,10.7318,10.7318,10.7318,10.7456,10.8851,11.111,11.4553,11.7574,12.0305,12.277,12.5019,12.6585,12.79,12.8163,12.8623,12.9347,12.9281,12.8032,12.5467,12.4546,12.356,12.2508,12.1785,12.1587,12.1258,12.1258,12.0338,11.8562,11.6853,11.5406,11.4091,11.3367,11.2973,11.2583,11.2799,11.3085,11.3641,11.4146,11.4955,10.235,10.1471,10.0202,9.9665,9.9519,9.8494,9.8591,9.9519,10.0544,10.1081,10.1422,10.2203,10.2643,10.2887,10.2753,10.2753,10.2753,10.2753,10.2753,10.2753,10.2753,10.2753,10.2753,10.2753,10.2753,10.2753,10.2887,10.2887,10.3854,10.6669,11.0839,11.3243,11.7029,12.0056,12.2397,12.3488,12.3895,12.4244,12.4942,12.564,12.5873,12.5931,12.5407,12.3662,12.2266,12.087,12.0056,11.8893,11.7846,11.6682,11.6508,11.5868,11.5228,11.4996,11.4879,11.4879,11.4879,11.4879,11.4879,11.4879,11.4821,11.4588,11.4007,11.2843,11.1273,11.0226,10.8946,10.7725,10.7318,10.7318,10.7318,10.7318,10.7318,10.7318,10.7318,10.7318,10.7318,10.7318,10.7318,10.7456,10.8176,10.9709,11.3009,11.6167,11.9041,12.1811,12.4765,12.7177,12.8097,12.8821,12.9413,12.9544,12.9544,12.6848,12.4218,12.356,12.2771,12.1785,12.1522,12.1324,12.1193,12.1193,11.9812,11.7444,11.5537,11.442,11.3631,11.2841,11.2513,11.2513,11.2799,11.3079,11.3174,11.3215,11.4022,10.2789,10.2447,10.0495,9.9665,9.9519,9.8445,9.8055,9.8445,9.947,10.03,10.1178,10.1422,10.2008,10.2691,10.2655,10.2753,10.2753,10.2753,10.2753,10.2753,10.2753,10.2753,10.2789,10.2691,10.246,10.2753,10.2655,10.3105,10.468,10.8545,11.1462,11.3732,11.8611,12.1313,12.222,12.2906,12.3604,12.4593,12.5117,12.564,12.6571,12.6687,12.5582,12.3837,12.2383,12.0754,11.8253,11.7264,11.6566,11.5286,11.517,11.5054,11.4937,11.4879,11.4879,11.4879,11.4879,11.4879,11.4879,11.4763,11.4356,11.3251,11.2378,11.0982,10.9761,10.883,10.8074,10.7492,10.7318,10.7318,10.7318,10.7318,10.7318,10.7318,10.7318,10.7318,10.7318,10.7318,10.7318,10.7456,10.8311,10.9579,11.2311,11.5193,11.811,12.106,12.4834,12.7506,12.8032,12.8558,12.8623,12.8755,12.8061,12.5901,12.3955,12.3034,12.2048,12.139,12.139,12.1193,12.1061,12.0141,11.8497,11.6195,11.4748,11.3959,11.3104,11.2644,11.2513,11.2513,11.2733,11.3025,11.2906,11.2478,11.3415,10.235,10.2643,10.0544,9.9665,9.9421,9.7908,9.7127,9.7371,9.8299,9.908,9.9568,10.0251,10.1032,10.2008,10.2057,10.2398,10.274,10.2753,10.2704,10.2704,10.2838,10.2704,10.2789,10.191,10.152,10.2008,10.2057,10.3625,10.5398,10.8621,11.1852,11.5545,11.8088,12.0799,12.2391,12.3313,12.4128,12.5175,12.6105,12.7094,12.8199,12.8374,12.7385,12.5873,12.2848,12.0172,11.7031,11.6217,11.5519,11.5054,11.4937,11.4879,11.4879,11.4879,11.4879,11.4879,11.4879,11.4879,11.4647,11.4298,11.36,11.3018,11.1738,11.0517,10.9353,10.8714,10.8074,10.7492,10.7318,10.7318,10.7318,10.7318,10.7318,10.7318,10.7318,10.7318,10.7318,10.7318,10.7318,10.7553,10.837,10.9697,11.2091,11.5041,11.8141,12.1929,12.5663,12.8032,12.8492,12.836,12.8295,12.7388,12.656,12.5254,12.344,12.2376,12.139,12.1324,12.1324,12.1193,12.0272,11.8694,11.7181,11.5603,11.3959,11.3236,11.2907,11.271,11.2513,11.2447,11.2601,11.2967,11.2772,11.1613,11.2052,10.1764,10.2398,10.069,9.9909,9.9372,9.7615,9.6639,9.6493,9.7322,9.7859,9.8201,9.8933,9.9909,10.0934,10.0983,10.1374,10.1959,10.2008,10.2203,10.2203,10.2203,10.2203,10.1764,10.0641,10.0251,10.069,10.0934,10.2685,10.5728,10.7517,11.0896,11.5598,11.7129,11.9257,12.1636,12.2848,12.4651,12.5989,12.7501,12.8665,12.9712,12.9363,12.8432,12.7152,12.279,11.9184,11.6741,11.5403,11.4937,11.4879,11.4879,11.4879,11.4879,11.4879,11.4879,11.4879,11.4879,11.4763,11.4356,11.3541,11.2785,11.2029,11.0924,11.0051,10.9046,10.8755,10.819,10.7608,10.7318,10.7318,10.7318,10.7318,10.7318,10.7318,10.7318,10.7376,10.7608,10.7492,10.7492,10.7608,10.7747,10.8528,11.1885,11.49,11.8838,12.2763,12.5767,12.8101,12.8492,12.836,12.7374,12.5993,12.4901,12.332,12.2113,12.1916,12.139,12.1324,12.1324,12.1127,11.9088,11.7313,11.5866,11.4485,11.3302,11.2973,11.271,11.2513,11.2447,11.2315,11.2325,11.2567,11.2237,11.075,11.044,10.1325,10.1422,10.1178,10.0593,9.9568,9.8347,9.7225,9.6542,9.6639,9.7127,9.7811,9.8103,9.8836,9.9812,9.9812,9.9958,10.0105,10.0349,10.0202,10.03,10.03,10.0105,10.0056,9.9421,9.9519,9.9763,9.9812,10.1178,10.3948,10.7429,11.0041,11.321,11.6923,11.8752,12.012,12.1743,12.3372,12.4884,12.6862,12.8432,12.9246,12.7967,12.6978,12.5873,12.1743,11.8137,11.6217,11.5054,11.4879,11.4879,11.4879,11.4879,11.4879,11.4879,11.4879,11.4821,11.4647,11.4239,11.3367,11.2843,11.1971,11.0226,10.9644,10.8929,10.7957,10.7725,10.7608,10.7318,10.7318,10.7318,10.7318,10.7318,10.7318,10.7318,10.7376,10.7899,10.8481,10.7957,10.7725,10.8714,10.7841,10.8584,11.1378,11.5026,11.9377,12.3338,12.6342,12.8036,12.8163,12.7242,12.5796,12.4744,12.3297,12.1522,12.1456,12.1456,12.139,12.1258,12.1258,12.0667,11.8562,11.659,11.4814,11.3565,11.3104,11.271,11.2513,11.2447,11.2447,11.225,11.1592,11.1835,11.1765,10.9619,10.9263,10.0153,10.1227,10.0641,10.0105,9.9568,9.8494,9.742,9.6542,9.6395,9.6688,9.6981,9.7078,9.7713,9.8689,9.8738,9.9031,9.9616,9.9665,9.9665,9.9665,9.9616,9.8933,9.8006,9.7811,9.8103,9.8591,9.8689,10.1275,10.5476,10.7966,11.1543,11.4939,11.7745,11.9133,11.9649,12.1161,12.2383,12.4244,12.5349,12.6687,12.7792,12.6164,12.5349,12.436,12.1161,11.8427,11.7148,11.5635,11.4879,11.4879,11.4879,11.4879,11.4879,11.4879,11.453,11.3832,11.3774,11.3251,11.2029,11.1157,11.0284,10.9353,10.8423,10.7841,10.7434,10.7318,10.7318,10.7318,10.7318,10.7318,10.7318,10.7318,10.7318,10.7376,10.7957,10.8405,10.8016,10.8248,10.8306,10.7957,10.7922,10.8684,11.2821,11.6286,12.0005,12.368,12.6834,12.7561,12.7374,12.5533,12.4086,12.3626,12.2574,12.1653,12.139,12.139,12.1324,12.1258,12.1127,12.0667,11.8694,11.659,11.4748,11.3236,11.2776,11.2513,11.2513,11.2513,11.2184,11.1526,11.0934,11.043,10.9312,10.7707,10.8512,9.8787,9.9958,9.9812,9.9324,9.8738,9.8299,9.742,9.6493,9.6395,9.6444,9.6444,9.6395,9.6883,9.7518,9.7615,9.8006,9.8494,9.8738,9.8836,9.8836,9.8836,9.7811,9.6688,9.6444,9.6883,9.7469,9.7742,10.0979,10.712,10.7757,11.1028,11.6829,11.7029,11.8137,11.9242,11.9765,12.1219,12.2674,12.343,12.4477,12.5058,12.3779,12.2964,12.2615,11.9474,11.7788,11.7497,11.5868,11.4879,11.4879,11.4879,11.4763,11.4356,11.4298,11.3716,11.2727,11.2436,11.1855,11.0691,10.9761,10.9121,10.8655,10.7841,10.7318,10.7318,10.7318,10.7318,10.7318,10.7318,10.7318,10.7318,10.7318,10.7318,10.7434,10.7957,10.8306,10.8132,10.8365,10.8638,10.8097,10.8217,11.0086,11.3536,11.7237,12.0864,12.3895,12.6212,12.7506,12.6059,12.4415,12.3494,12.2902,12.2245,12.1653,12.1324,12.1324,12.1258,12.1193,12.0535,11.9878,11.7773,11.5998,11.442,11.2907,11.2578,11.2513,11.2513,11.2118,11.146,11.0803,11.0023,10.8912,10.7588,10.7098,10.7869,9.7469,9.6981,9.8787,9.8396,9.6883,9.7518,9.7176,9.6444,9.6346,9.6346,9.6395,9.6395,9.6493,9.6493,9.6688,9.6737,9.6639,9.6883,9.6932,9.6883,9.6834,9.6786,9.6444,9.6395,9.6493,9.6639,9.6639,9.9107,10.4037,10.5568,10.8084,11.2914,11.4801,11.5345,11.6275,11.7846,11.9125,11.9882,12.1568,12.2557,12.2674,12.058,11.93,11.9184,11.6857,11.5461,11.5461,11.4996,11.4763,11.4821,11.4588,11.4065,11.3309,11.3076,11.2494,11.1215,11.1098,11.0459,10.9586,10.9004,10.8597,10.7725,10.7376,10.7318,10.7318,10.7318,10.7318,10.7318,10.7318,10.7318,10.7318,10.7318,10.7318,10.7318,10.7492,10.8074,10.8772,10.8016,10.802,10.8723,10.9922,11.1324,11.3246,11.7905,12.0823,12.306,12.542,12.5754,12.4744,12.3823,12.31,12.2376,12.1719,12.1324,12.1324,12.1258,12.1061,12.0601,11.9417,11.7971,11.5932,11.5011,11.3828,11.3039,11.2513,11.2447,11.225,11.1395,11.0671,10.9619,10.8578,10.7653,10.7034,10.6912,10.7473,9.6151,9.6395,9.6542,9.6102,9.5517,9.5809,9.5761,9.5468,9.5419,9.5809,9.6298,9.6395,9.6395,9.6395,9.6395,9.6395,9.6395,9.6395,9.6395,9.6395,9.6395,9.6395,9.6395,9.6395,9.6395,9.6395,9.6395,9.9174,10.449,10.547,10.85,11.2989,11.4419,11.5228,11.6159,11.709,11.802,11.8776,11.9707,12.0231,11.9882,11.8486,11.7555,11.7264,11.581,11.4996,11.4821,11.4123,11.3716,11.36,11.2843,11.2262,11.1796,11.168,11.1157,11.0168,10.9861,10.9353,10.819,10.8016,10.7725,10.7434,10.7318,10.7318,10.7318,10.7318,10.7318,10.7318,10.7318,10.7318,10.7318,10.7318,10.7318,10.7318,10.7259,10.7841,10.8714,10.8074,10.7573,10.7315,10.6912,10.9731,11.3504,11.7835,11.8639,12.3191,12.4648,12.4283,12.3823,12.2837,12.2245,12.1653,12.1324,12.1324,12.1324,12.1127,12.0864,11.9483,11.8102,11.6327,11.4814,11.4157,11.3565,11.2776,11.2513,11.2513,11.146,11.0606,10.9422,10.8107,10.6925,10.6333,10.6048,10.6106,10.7488,9.4833,9.4833,9.4443,9.4101,9.3857,9.415,9.4296,9.4248,9.4296,9.4687,9.5321,9.537,9.5565,9.5809,9.5907,9.6102,9.6395,9.6395,9.6395,9.6395,9.6395,9.6395,9.6395,9.6395,9.6395,9.6395,9.6395,9.9656,10.4729,10.5772,10.8841,11.3763,11.4879,11.5403,11.6043,11.6217,11.6566,11.7497,11.7555,11.7613,11.7497,11.6682,11.6217,11.6101,11.5403,11.4647,11.4298,11.3076,11.2378,11.2378,11.1447,11.0808,11.0517,11.04,10.9877,10.8772,10.8697,10.8132,10.7376,10.7318,10.7318,10.7318,10.7318,10.7318,10.7318,10.7318,10.7318,10.7318,10.7318,10.7318,10.7318,10.7318,10.7318,10.7259,10.691,10.6969,10.7492,10.6736,10.6085,10.5559,10.5019,10.7284,11.2463,11.6358,11.7624,12.1381,12.3072,12.3285,12.2837,12.1916,12.1324,12.1324,12.1324,12.1324,12.0995,12.0667,11.9417,11.751,11.6392,11.4939,11.4025,11.3302,11.2907,11.2513,11.2513,11.2052,11.0803,10.9553,10.8173,10.6857,10.5938,10.541,10.5065,10.6032,10.7602,9.3613,9.198,9.2686,9.2539,9.1954,9.2637,9.3076,9.3125,9.3174,9.3271,9.3564,9.3369,9.4004,9.4638,9.4931,9.537,9.6005,9.62,9.6249,9.6298,9.6346,9.6395,9.6395,9.6395,9.6395,9.6395,9.6395,9.9656,10.5488,10.6294,10.9065,11.387,11.4879,11.4996,11.4996,11.5112,11.5054,11.5228,11.5345,11.517,11.4937,11.5112,11.5112,11.5054,11.4705,11.4065,11.3018,11.1738,11.104,11.0982,11.0808,11.0342,10.9353,10.9279,10.8755,10.7667,10.7376,10.7376,10.7318,10.7318,10.7318,10.7318,10.7318,10.7318,10.7318,10.7318,10.7318,10.7318,10.7318,10.7318,10.7318,10.7318,10.7259,10.7143,10.6212,10.5573,10.534,10.4293,10.3457,10.3717,10.4874,10.6825,10.8918,11.3134,11.7031,11.8449,12.0889,12.2837,12.185,12.1456,12.1324,12.1324,12.1061,12.0798,12.0535,11.9943,11.7642,11.5735,11.4946,11.4157,11.3302,11.2907,11.2578,11.1855,11.1855,11.1329,11.008,10.837,10.6989,10.5938,10.5214,10.4553,10.5237,10.6327,10.7873,9.3564,9.159,9.1173,9.0831,9.0587,9.088,9.1417,9.21,9.21,9.2491,9.3076,9.3125,9.332,9.376,9.4492,9.4638,9.4248,9.498,9.5321,9.537,9.6053,9.6395,9.6395,9.6395,9.6395,9.6395,9.6395,9.9707,10.5256,10.7774,11.0891,11.4669,11.4879,11.4879,11.4879,11.4879,11.4879,11.4879,11.4879,11.4879,11.4879,11.4879,11.4879,11.4647,11.3134,11.2029,11.1622,11.0459,10.9761,10.9644,10.8946,10.8306,10.7957,10.7899,10.7725,10.7318,10.7318,10.7318,10.7318,10.7318,10.7318,10.7318,10.7318,10.7318,10.7318,10.7318,10.7318,10.7318,10.7318,10.7318,10.7318,10.7259,10.691,10.6096,10.5631,10.5049,10.4118,10.2839,10.2199,10.2269,10.2952,10.5997,11.0467,11.3036,11.5722,11.9403,12.0762,12.1916,12.139,12.1324,12.1324,12.1258,12.0535,12.0075,11.9417,11.7708,11.534,11.4748,11.4091,11.3367,11.271,11.2644,11.225,11.1395,11.0737,11.0211,10.9093,10.7383,10.6068,10.4885,10.4358,10.4482,10.5666,10.6793,10.8263,9.2832,9.1514,9.0441,9.005,9.005,9.005,9.0392,9.1026,9.1026,9.1417,9.1954,9.2002,9.2198,9.2637,9.332,9.3271,9.2735,9.3711,9.4199,9.4296,9.4882,9.5224,9.5224,9.5224,9.5224,9.5224,9.5224,9.8645,10.4791,10.8123,11.1084,11.3657,11.4239,11.4181,11.4123,11.3716,11.4007,11.4705,11.389,11.3716,11.4065,11.3716,11.3483,11.3367,11.1447,11.0342,11.0342,10.9179,10.858,10.8481,10.7725,10.7318,10.7318,10.7318,10.7318,10.7318,10.7318,10.7318,10.7318,10.7318,10.7318,10.7318,10.7318,10.7318,10.7318,10.7318,10.7318,10.7318,10.7318,10.7027,10.6736,10.6154,10.5514,10.4758,10.4235,10.3537,10.2664,10.1559,10.0803,10.0803,10.0895,10.3427,10.9036,11.266,11.529,11.9248,12.0798,12.1248,12.1324,12.1324,12.1061,12.0535,11.9746,11.8825,11.7971,11.5406,11.3894,11.3631,11.3367,11.271,11.2118,11.1987,11.146,11.054,10.929,10.8633,10.791,10.6331,10.5739,10.4687,10.4227,10.4611,10.5911,10.7075,10.8592,9.1444,9.1368,9.0441,9.005,9.005,9.005,9.005,9.0148,9.0099,9.005,9.0148,9.0148,9.0636,9.1444,9.1493,9.1444,9.159,9.2588,9.3076,9.3076,9.3223,9.3174,9.3125,9.3125,9.3344,9.3975,9.3661,9.7095,10.4125,10.7127,10.9943,11.2695,11.2902,11.2902,11.2727,11.1796,11.2262,11.4007,11.232,11.168,11.2553,11.1564,11.0866,11.0749,10.9702,10.9221,10.8946,10.7899,10.7318,10.7318,10.7318,10.7318,10.7318,10.7318,10.7318,10.7318,10.7318,10.7318,10.7318,10.7318,10.7318,10.7318,10.7318,10.7318,10.7318,10.7318,10.7318,10.7259,10.6969,10.6387,10.5398,10.4409,10.3653,10.3304,10.2257,10.1675,10.1385,10.0396,9.9698,10.0003,10.0243,10.2626,10.6949,11.2306,11.6181,11.8258,12.0045,12.1193,12.1061,12.1061,12.0404,11.9483,11.8694,11.7905,11.5274,11.3696,11.2841,11.2644,11.2644,11.2315,11.1789,11.1132,11.0474,10.9553,10.8238,10.712,10.6331,10.5674,10.5082,10.4687,10.4161,10.5053,10.6498,10.7534,10.9077,9.1173,9.0489,9.0148,9.005,9.005,9.005,9.005,9.005,9.005,9.005,9.005,9.005,9.0197,9.0441,9.0441,9.0489,9.0587,9.1563,9.2051,9.21,9.2783,9.3125,9.3125,9.3125,9.4281,9.5779,9.4111,9.7542,10.5364,10.8848,11.0627,11.1403,11.1506,11.1564,11.1506,11.1215,11.1331,11.1971,11.1447,11.1157,11.1157,10.9412,10.8306,10.8248,10.7957,10.7783,10.7783,10.7492,10.7318,10.7318,10.7318,10.7318,10.7318,10.7318,10.7318,10.7318,10.7318,10.7318,10.7318,10.7318,10.7318,10.7318,10.7318,10.7318,10.7318,10.7318,10.7318,10.7085,10.5514,10.4409,10.3944,10.3595,10.2955,10.2083,10.1734,10.1036,10.0221,9.9872,10.0311,10.2372,10.1871,10.3767,10.8681,11.3539,11.7647,11.9497,12.0678,12.0995,12.0009,11.968,11.9154,11.7708,11.6524,11.5274,11.3565,11.271,11.2644,11.2381,11.1592,11.1465,11.2206,11.0083,10.8764,10.8173,10.7055,10.6068,10.5148,10.4753,10.4293,10.4226,10.4863,10.6026,10.7363,10.8878,11.0358,9.0587,9.005,9.005,9.005,9.005,9.005,9.005,9.005,9.005,9.005,9.005,9.005,9.005,9.005,9.005,9.005,9.005,9.0685,9.0977,9.1026,9.1563,9.2521,9.33,9.2521,9.4072,9.7376,9.377,9.6402,10.3865,10.6165,10.8011,11.0024,11.0226,11.0284,11.0226,10.9702,10.9993,11.0866,10.9993,10.947,10.9295,10.8016,10.7318,10.7318,10.7318,10.7318,10.7318,10.7318,10.7318,10.7318,10.7318,10.7318,10.7318,10.7318,10.7318,10.7318,10.7318,10.7318,10.7318,10.7318,10.7318,10.7318,10.7318,10.7318,10.7259,10.6794,10.6271,10.5573,10.3828,10.2606,10.2548,10.2141,10.1559,10.0803,10.0221,9.9814,9.9465,9.9341,10.013,10.2363,10.2561,10.4206,10.9021,11.2492,11.5628,11.8767,11.9417,11.9088,11.8431,11.8234,11.7576,11.6195,11.4748,11.3499,11.2776,11.2513,11.2184,11.1724,11.0934,11.0145,11.0485,10.8767,10.7252,10.6661,10.574,10.4819,10.4096,10.403,10.403,10.4225,10.5112,10.6793,10.8809,11.0001,11.1073,9.005,9.005,9.005,9.005,9.005,9.005,9.005,9.005,9.005,9.005,9.005,9.005,9.005,9.005,9.005,9.005,9.005,9.005,9.0284,9.0518,9.0118,9.1529,9.3928,9.1398,9.3033,9.7385,9.3248,9.5276,10.3438,10.2073,10.3735,10.8446,10.9104,10.9004,10.8888,10.7899,10.8423,11.0575,10.8423,10.7318,10.7318,10.7318,10.7318,10.7318,10.7318,10.7318,10.7318,10.7318,10.7318,10.7318,10.7318,10.7318,10.7259,10.7143,10.7085,10.7085,10.6969,10.691,10.6852,10.691,10.6794,10.691,10.6794,10.6794,10.6736,10.5689,10.4467,10.3362,10.2083,10.1326,10.121,10.0438,10.0009,9.9924,9.884,9.8283,9.952,9.9258,9.9509,10.1221,10.2314,10.3937,10.878,11.0284,11.2068,11.6705,11.7379,11.7181,11.6721,11.6655,11.6129,11.4683,11.3302,11.2447,11.2184,11.225,11.1395,11.0408,11.008,10.9356,10.8438,10.7188,10.5871,10.5543,10.4885,10.4293,10.403,10.416,10.429,10.4675,10.5666,10.7259,10.9742,11.0778,11.1316,9.005,9.005,9.005,9.005,9.005,9.005,9.005,9.005,9.005,9.005,9.005,9.005,9.005,9.005,9.005,9.005,9.005,9.005,9.1232,9.2969,9.1001,9.1529,9.3713,9.1298,9.3033,9.7605,9.4958,9.7767,10.5156,10.3643,10.4279,10.737,10.7725,10.7725,10.7667,10.7434,10.755,10.8016,10.755,10.7318,10.7318,10.7318,10.7259,10.7318,10.7259,10.7318,10.7318,10.7318,10.7318,10.7318,10.7318,10.7318,10.7259,10.6329,10.5805,10.5689,10.4816,10.4235,10.4235,10.4235,10.4235,10.4235,10.4235,10.4293,10.4177,10.3071,10.2199,10.1792,10.0687,9.9989,10.0029,10.0139,10.0444,10.0384,9.925,9.9359,10.1081,9.994,10.0321,10.4521,10.4696,10.605,11.0385,11.1804,11.2995,11.5786,11.6787,11.6327,11.5406,11.5136,11.4617,11.3236,11.1789,11.1,11.0869,11.0145,10.929,10.8962,10.7975,10.7318,10.6859,10.5609,10.4622,10.4621,10.4227,10.4291,10.416,10.4863,10.5543,10.5789,10.6793,10.8373,11.0206,11.1316,11.2348,9.005,9.005,9.005,9.005,9.005,9.005,9.005,9.005,9.005,9.005,9.005,9.005,9.005,9.005,9.005,9.005,9.005,9.005,9.1529,9.3888,9.1298,9.2919,9.7441,9.3888,9.5625,10.191,9.8308,10.002,10.6412,10.4392,10.4494,10.7161,10.7318,10.7318,10.7318,10.7318,10.7318,10.7259,10.5514,10.4642,10.4642,10.4642,10.4642,10.4642,10.6445,10.7027,10.6445,10.6387,10.6096,10.5514,10.5514,10.5514,10.5456,10.4816,10.4467,10.4409,10.3769,10.3362,10.3362,10.3362,10.3362,10.3362,10.3362,10.2432,10.0196,9.9323,9.8825,9.8825,9.8825,9.8777,9.9136,10.0086,10.083,10.1098,10.0041,10.0172,10.1778,10.0758,10.1235,10.4602,10.486,10.6085,11.0072,11.0606,11.1724,11.4222,11.488,11.4551,11.3828,11.317,11.2447,11.1592,11.0343,10.9553,10.9422,10.8764,10.8041,10.7383,10.6594,10.6003,10.5411,10.4819,10.4356,10.4799,10.5174,10.5486,10.5965,10.6616,10.6959,10.7248,10.8263,10.9411,11.0408,11.172,11.2646,8.9513,8.9562,8.9562,8.9562,8.9562,8.9562,8.966,8.9757,8.9611,8.9562,8.9562,8.9978,9.0192,9.0339,9.0455,9.0621,9.1183,9.1183,9.2741,9.5292,9.2513,9.5403,10.2539,9.7441,9.9061,10.5857,10.1597,10.2069,10.6511,10.4797,10.4898,10.7063,10.7318,10.7318,10.7318,10.7318,10.7318,10.7201,10.4002,10.2257,10.2257,10.2257,10.2024,10.1675,10.5107,10.6271,10.4642,10.4875,10.4235,10.2525,10.2315,10.2292,10.2024,10.1792,10.2024,10.249,10.2373,10.2315,10.2257,10.2315,10.2315,10.2315,10.2409,10.0396,9.6063,9.5597,9.5743,9.6325,9.7494,9.84,9.9397,10.0665,10.1527,10.1742,10.0327,10.0061,10.1691,10.0736,10.0944,10.3373,10.3964,10.541,10.8039,10.8696,10.9948,11.1921,11.2973,11.2644,11.2447,11.1132,11.0211,10.9948,10.8896,10.8107,10.791,10.7844,10.7123,10.6269,10.6137,10.587,10.5261,10.5056,10.5299,10.6199,10.6734,10.7259,10.7929,10.8428,10.8592,10.8701,10.9828,11.0877,11.1024,11.1908,11.262,8.7317,8.7317,8.7317,8.7317,8.7317,8.7203,8.7854,8.8635,0.0,0.0,0.0,8.9638,9.12,9.2226,9.2226,9.3969,9.6951,9.7061,9.8578,10.1339,9.8362,9.9114,10.2746,9.9434,9.9914,10.3623,10.2746,10.4031,10.7161,10.6866,10.6866,10.7259,10.7318,10.7318,10.7318,10.7318,10.7318,10.7259,10.662,10.6271,10.6271,10.6271,10.47,10.1559,10.4235,10.4118,10.0803,10.2606,10.1675,9.746,9.7227,9.6762,9.5568,9.4521,9.5393,9.8302,9.7662,9.708,9.7227,9.7227,9.7169,9.7169,9.7169,9.6354,9.4405,9.4258,9.5295,9.8021,9.953,10.1119,10.2869,10.3797,10.3801,10.2626,9.9126,9.7669,9.9578,9.8149,9.8439,10.1604,10.4096,10.6397,10.7907,10.9093,11.0671,11.2052,11.225,11.2513,11.2184,11.0277,10.8764,10.8567,10.7449,10.6529,10.6331,10.5674,10.521,10.5958,10.6068,10.6476,10.7201,10.7534,10.7591,10.7873,10.7985,10.8208,10.8373,10.9411,11.0155,11.0206,11.1386,11.2348,11.2348,11.2601,11.2237,8.6731,0.0,8.6731,8.6731,0.0,8.6731,8.7518,8.8865,8.9632,9.028,9.0952,9.2191,9.3145,9.3829,9.3829,9.484,9.6754,9.7344,9.9199,10.1852,9.9588,10.097,10.5099,10.2173,10.238,10.5099,10.5099,10.5857,10.7259,10.7318,10.7318,10.7318,10.7318,10.6271,10.4467,10.6329,10.662,10.5282,10.3362,10.2432,10.2373,10.2432,10.1501,9.9698,10.2664,0.0,0.0,0.0,0.0,0.0,0.0,0.0,0.0,0.0,0.0,8.8937,8.6494,8.4807,8.4167,8.4691,8.6436,8.9635,8.9984,8.8646,8.5389,8.9612,9.195,9.1127,9.5988,9.9786,10.1212,10.289,10.3383,10.2292,10.0264,9.8914,9.9315,9.8473,9.8596,10.0489,10.2517,10.4424,10.5937,10.7318,10.8764,11.0145,11.0408,11.0343,11.0211,10.9159,10.7975,10.7252,10.5937,10.5082,10.495,10.4359,10.4548,10.5721,10.6147,10.6734,10.8041,10.8701,10.9199,10.9464,11.0085,11.0488,11.0658,11.1171,11.1673,11.1767,11.2257,11.2477,11.1737,11.1595,11.1095,8.6533,8.6582,8.7284,8.7051,8.6209,8.6606,8.7711,8.9069,9.1133,9.2833,9.4207,9.4579,9.4795,9.5011,9.5227,9.5751,9.6535,9.7461,9.9236,10.1427,10.0126,10.1963,10.621,10.4157,10.4257,10.6464,10.6561,10.6561,10.6561,10.6561,10.6561,10.6561,10.6503,10.4991,10.2141,0.0,0.0,0.0,9.993,9.8677,9.8619,9.8386,9.8069,9.7429,10.057,0.0,9.8781,9.9163,9.8051,9.5309,9.5334,0.0,0.0,0.0,0.0,0.0,0.0,0.0,0.0,0.0,0.0,0.0,8.0359,7.8987,7.6519,8.3088,8.5963,8.2378,9.1498,9.7752,9.7739,10.0895,10.2673,10.1798,10.1143,10.0358,9.9298,9.8784,9.8915,9.9495,10.1071,10.2715,10.4424,10.5674,10.7055,10.817,10.8304,10.8039,10.7579,10.7383,10.6989,10.6003,10.5277,10.4741,10.4736,10.4926,10.5543,10.6498,10.6968,10.7591,10.897,10.9931,11.0558,11.0926,11.1979,11.262,11.262,11.2736,11.2575,11.2736,11.2736,11.2165,11.0382,11.0025,10.9525,8.592,8.6126,8.9476,8.8186,8.4238,8.6587,8.7643,8.7876,8.8267,8.9769,9.2222,9.3373,9.443,9.5584,9.6698,9.9087,10.2199,10.2525,10.2775,10.3119,10.2852,10.3102,10.3886,10.3542,10.3542,10.3886,10.3886,10.3886,10.3886,10.3886,10.3886,10.3886,10.3886,10.3595,10.3188,10.3653,10.2083,9.8444,10.121,10.2606,10.2606,10.1559,9.9407,9.6354,9.7546,9.7435,9.5697,9.7696,9.6888,9.2805,9.3714,9.2354,8.8256,8.8496,8.5376,0.0,7.6664,0.0,0.0,0.0,0.0,0.0,0.0,0.0,0.0,7.5323,7.6153,7.6126,8.9726,9.7289,9.4085,9.99,10.3308,10.1796,9.9124,9.7436,9.7601,9.6204,9.6336,9.9173,10.1991,10.4227,10.5476,10.712,10.8041,10.8107,10.7973,10.7186,10.5148,10.4687,10.4753,10.4359,10.5491,10.6625,10.7316,10.7591,10.8041,10.9586,10.9846,11.0508,11.1767,11.214,11.2348,11.2394,11.2388,11.2594,11.2736,11.2594,11.2594,11.2451,11.2584,11.1699,10.9269,10.8526,10.7813,8.69,8.6952,8.8613,8.7196,8.422,8.9093,9.0221,8.9022,9.122,9.2893,9.4089,9.4604,9.5176,9.5839,9.6412,9.7535,9.9174,9.9872,10.0163,10.0279,10.1675,10.2315,10.2315,10.3013,10.3362,10.3362,10.3362,10.3362,10.3362,10.3362,10.3362,10.3362,10.3362,10.0163,9.4288,9.8069,9.9316,9.7631,9.9349,9.9872,9.9265,9.9727,9.9158,9.7524,9.8296,9.7956,9.6428,9.6656,9.5646,9.3023,9.4232,9.3819,9.0905,8.4203,7.9841,0.0,0.0,0.0,0.0,0.0,0.0,0.0,0.0,0.0,0.0,0.0,6.8402,7.4696,8.7565,9.2938,8.6495,9.1799,9.5021,9.3443,9.0568,9.0653,9.5684,9.409,9.4429,9.8973,10.1399,10.2978,10.3569,10.495,10.5937,10.5937,10.5937,10.5148,10.3241,10.3504,10.429,10.5049,10.6147,10.7259,10.8152,10.8318,10.8809,11.0206,11.0629,11.1073,11.244,11.2023,11.1452,11.1381,11.0738,11.0168,11.014,11.0096,11.0168,11.027,11.0882,11.0653,10.8664,10.8157,10.7759,8.7291,8.7129,8.6279,8.521,8.4388,8.9428,9.0743,8.9639,9.2642,9.4025,9.4025,9.3967,9.3501,9.2628,9.2337,9.2686,9.3532,9.5103,9.6062,9.6906,9.9058,10.0105,10.0163,10.1094,10.1652,10.1559,10.1268,10.1268,10.1594,10.1361,10.0512,9.9349,9.8942,9.4579,8.6668,9.1877,9.5538,9.7197,9.7108,9.6938,9.6554,9.7756,9.8461,9.8401,9.8242,9.7814,9.7337,9.6276,9.5305,9.4481,9.4236,9.296,9.0481,7.9109,0.0,0.0,0.0,0.0,0.0,0.0,0.0,0.0,0.0,5.8553,4.8959,0.0,6.1736,0.0,8.2637,8.6418,8.0225,8.3908,0.0,0.0,8.2184,8.3119,9.0286,8.976,9.1273,9.7261,9.9558,10.1005,10.2123,10.3241,10.403,10.403,10.4611,10.4398,10.3022,10.4062,10.5404,10.6557,10.7648,10.8373,10.8809,10.88,10.9131,10.9871,10.9946,11.0352,11.1461,11.0699,11.0084,11.0055,10.9291,10.8778,10.8787,10.8747,10.8316,10.6774,10.7686,10.838,10.6873,10.6799,10.6726,8.6306,8.5836,8.2378,8.222,8.4125,8.469,8.6161,8.8228,8.8507,8.8646,8.8646,8.8646,8.6806,8.3429,8.2265,0.0,8.7017,8.9437,9.1845,9.423,9.5568,9.6296,9.6296,9.6412,9.647,9.6324,9.5248,9.5306,9.6412,9.5306,9.2194,8.7599,8.624,8.5834,8.6145,8.6647,8.9984,9.5801,9.5946,9.6786,9.8439,9.7975,9.7685,9.7685,9.5296,9.4867,9.6609,9.6618,9.6717,9.6894,9.2177,8.6726,8.076,0.0,0.0,0.0,0.0,0.0,0.0,0.0,0.0,0.0,0.0,0.0,0.0,0.0,0.0,0.0,7.2703,0.0,7.8006,7.9765,0.0,0.0,0.0,7.5688,7.8926,8.1475,8.5683,9.2792,0.0,0.0,10.3306,10.3898,10.403,10.403,10.6267,10.7352,10.6005,10.6827,10.7979,10.7877,11.0388,11.1767,11.0278,10.9763,10.9297,10.855,10.8254,10.844,10.8612,10.8922,10.93,10.9266,10.9936,11.0239,11.0346,10.9874,10.8591,10.2741,10.3073,10.3605,10.2418,10.3108,10.4019,8.1314,7.5528,7.4159,7.4977,7.7245,7.7233,8.0096,8.4652,8.3837,8.3062,8.2248,8.1492,7.8641,7.4279,7.4638,0.0,0.0,0.0,8.3004,8.7039,8.8239,9.01,9.2311,9.3125,9.3474,9.3416,9.295,9.3009,9.3474,9.295,8.504,7.0556,0.0,0.0,7.2592,7.9979,8.5505,8.8844,9.2976,9.5147,9.508,9.5065,9.5767,9.6982,9.6242,9.6207,9.7044,9.6264,9.4081,9.042,8.7601,8.2817,0.0,0.0,0.0,0.0,0.0,0.0,0.0,0.0,0.0,0.0,0.0,4.6971,4.077,0.0,0.0,0.0,5.5566,5.7539,6.0657,6.7797,0.0,0.0,0.0,0.0,0.0,0.0,0.0,8.5289,8.9103,9.2851,9.798,10.0103,10.1475,10.2346,10.3338,10.3884,10.3394,0.0,10.7833,10.6989,11.0211,11.1844,10.9471,10.6656,10.5601,10.767,10.8461,10.8795,10.8731,10.7794,10.716,10.7082,10.6617,10.5962,10.4936,10.5582,10.5244,10.2991,10.2991,10.3214,10.262,10.2917,10.3437,7.3688,0.0,0.0,0.0,0.0,6.9387,7.2476,7.7432,7.6501,7.5326,7.4046,7.3174,0.0,0.0,0.0,0.0,0.0,0.0,7.6664,8.1391,8.4109,8.6705,8.946,9.0391,9.0798,9.0798,9.0449,8.9519,8.8064,8.5156,7.4919,5.8109,0.0,0.0,0.0,0.0,8.0096,8.3313,9.0047,9.339,9.3055,9.3994,9.515,9.672,9.6834,9.6715,9.6606,9.3976,8.9878,8.4322,7.9866,0.0,0.0,0.0,0.0,0.0,0.0,0.0,0.0,0.0,0.0,0.0,0.0,0.0,0.0,0.0,0.0,0.0,0.0,0.0,4.8889,5.7341,6.0563,0.0,0.0,0.0,0.0,0.0,0.0,0.0,0.0,0.0,8.9195,9.3432,9.7362,0.0,0.0,10.2643,10.2707,10.5016,10.6356,10.5365,10.8702,0.0,10.4786,10.1605,10.0678,10.3532,10.5447,10.6054,10.4966,10.4756,10.4314,10.2742,10.3016,10.2003,9.8589,9.808,9.8291,9.8031,9.8219,9.8501,9.8669,9.9717,10.0781,0.0,0.0,0.0,0.0,0.0,0.0,0.0,0.0,6.5672,6.4973,0.0,6.3634,0.0,0.0,0.0,0.0,0.0,6.9102,0.0,0.0,8.4633,8.789,8.789,8.7948,8.8123,8.8064,8.6668,8.3527,7.8467,6.8986,0.0,0.0,0.0,0.0,0.0,0.0,7.3116,8.0475,8.7462,9.1855,9.3777,9.5547,9.6721,9.7269,9.6012,9.5143,9.4708,8.9041,8.4237,8.0588,6.8231,0.0,0.0,0.0,0.0,0.0,0.0,0.0,0.0,0.0,0.0,0.0,0.0,0.0,0.0,0.0,0.0,0.0,0.0,0.0,0.0,5.0534,0.0,0.0,0.0,0.0,0.0,0.0,0.0,0.0,0.0,0.0,7.6448,8.3413,9.1298,9.8019,0.0,0.0,0.0,0.0,10.3568,10.3479,10.6126,10.4963,9.5939,9.565,9.5935,9.4722,0.0,0.0,9.4741,9.8551,10.0572,9.6155,9.9504,10.0368,9.0653,8.7906,8.667,8.5091,8.6061,8.6798,8.7113,9.0157,9.4106,0.0,0.0,0.0,0.0,0.0,0.0,0.0,0.0,0.0,5.6615,0.0,5.4676,0.0,0.0,0.0,0.0,0.0,0.0,0.0,0.0,7.2185,7.4802,7.5733,7.8118,7.8002,0.0,7.4279,6.9742,0.0,0.0,0.0,0.0,0.0,0.0,0.0,0.0,6.9675,7.6159,8.6229,9.1976,9.3021,9.4787,9.5854,9.6007,9.4626,9.0814,8.453,8.2247,7.8488,0.0,0.0,0.0,0.0,0.0,0.0,0.0,0.0,0.0,0.0,0.0,0.0,0.0,0.0,0.0,0.0,0.0,0.0,0.0,0.0,0.0,0.0,0.0,4.8306,0.0,0.0,0.0,0.0,0.0,0.0,0.0,0.0,0.0,6.7469,7.5771,8.4206,9.1612,9.5708,9.8807,10.0958,0.0,0.0,0.0,0.0,0.0,0.0,0.0,8.8789,9.0221,8.7281,8.498,8.6108,8.9297,9.1138,8.9499,0.0,0.0,7.8352,7.5583,7.5064,7.4454,7.6561,7.7766,7.5561,7.8224,8.0656,0.0,0.0,0.0,0.0,0.0,0.0,0.0,0.0,0.0,4.8159,4.6145,0.0,0.0,0.0,0.0,0.0,0.0,0.0,0.0,0.0,0.0,0.0,6.8319,7.0458,0.0,0.0,0.0,0.0,0.0,0.0,0.0,0.0,0.0,0.0,0.0,0.0,6.7919,7.3315,8.5521,9.218,9.2537,9.4302,9.5259,9.5135,9.4207,8.9431,8.0411,0.0,0.0,0.0,0.0,0.0,0.0,0.0,0.0,0.0,0.0,0.0,0.0,0.0,0.0,0.0,0.0,0.0,0.0,0.0,0.0,0.0,0.0,0.0,0.0,0.0,4.441,0.0,0.0,0.0,0.0,0.0,0.0,0.0,0.0,0.0,0.0,0.0,7.5371,8.4845,8.9261,9.3328,9.8109,9.7253,9.6378,0.0,0.0,0.0,0.0,0.0,0.0,0.0,0.0,0.0,0.0,0.0,0.0,0.0,0.0,7.7657,6.7753,6.4634,6.3722,6.4181,0.0,0.0,0.0,0.0,0.0,0.0,0.0,0.0,0.0,0.0,0.0,0.0,0.0,0.0,0.0,3.8267,0.0,0.0,3.8815,0.0,0.0,0.0,0.0,0.0,0.0,0.0,0.0,0.0,0.0,0.0,0.0,0.0,0.0,0.0,0.0,0.0,0.0,0.0,0.0,0.0,0.0,6.7776,7.1852,8.5296,9.2409,9.2601,9.4295,9.5126,9.4871,9.4791,9.0979,8.2851,0.0,0.0,0.0,0.0,0.0,0.0,0.0,0.0,0.0,0.0,0.0,0.0,0.0,0.0,0.0,0.0,0.0,0.0,0.0,0.0,0.0,0.0,0.0,0.0,0.0,0.0,3.8955,4.2619,4.4731,0.0,0.0,0.0,0.0,0.0,0.0,0.0,0.0,0.0,0.0,8.3696,8.9582,9.7116,9.5759,9.3478,9.2782,8.9423,8.5348,8.0915,8.0849,7.9387,0.0,0.0,0.0,0.0,0.0,0.0,0.0,0.0,0.0,0.0,0.0,0.0,0.0,0.0,0.0,0.0,0.0,0.0,0.0,0.0,0.0,0.0,0.0,0.0,0.0,0.0,0.0,0.0,0.0,0.0,0.0,0.0,0.0,0.0,0.0,0.0,0.0,0.0,0.0,0.0,0.0,0.0,0.0,0.0,0.0,0.0,0.0,0.0,0.0,0.0,0.0,0.0,0.0,0.0,6.6542,7.1866,8.3536,9.057,9.2607,9.3188,9.3849,9.4658,9.3752,8.9498,0.0,0.0,0.0,0.0,0.0,0.0,0.0,0.0,0.0,0.0,0.0,0.0,0.0,0.0,0.0,0.0,0.0,0.0,0.0,0.0,0.0,0.0,0.0,0.0,0.0,0.0,0.0,0.0,4.6702,4.8164,4.6129,0.0,0.0,0.0,0.0,0.0,0.0,0.0,0.0,0.0,0.0,8.2729,8.7672,8.9506,8.9996,8.9146,8.7912,8.6395,8.4433,8.0657,7.6885,7.3836,0.0,0.0,0.0,0.0,0.0,0.0,0.0,0.0,0.0,0.0,0.0,0.0,0.0,0.0,0.0,0.0,0.0,0.0,0.0,0.0,0.0,0.0,0.0,0.0,0.0,0.0,0.0,0.0,0.0,0.0,0.0,0.0,0.0,0.0,0.0,0.0,0.0,0.0,0.0,0.0,0.0,0.0,0.0,0.0,0.0,0.0,0.0,0.0,0.0,0.0,0.0,0.0,0.0,6.6215,7.1927,8.3841,9.0899,9.2599,9.3177,9.3821,9.4523,9.2493,8.6832,0.0,0.0,0.0,0.0,0.0,0.0,0.0,0.0,0.0,0.0,0.0,0.0,0.0,0.0,0.0,0.0,0.0,0.0,0.0,0.0,0.0,0.0,0.0,0.0,0.0,0.0,0.0,0.0,4.2762,4.5202,4.4013,0.0,0.0,0.0,0.0,0.0,0.0,0.0,0.0,0.0,0.0,7.5715,8.046,8.2293,0.0,0.0,8.2849,8.1639,8.2298,7.8485,7.4071,6.991,6.5728,0.0,0.0,0.0,0.0,0.0,0.0,0.0,0.0,0.0,0.0,0.0,0.0,0.0,0.0,0.0,0.0,0.0,0.0,0.0,0.0,0.0,0.0,0.0,0.0,0.0,0.0,0.0,0.0,0.0,0.0,0.0,0.0,0.0,0.0,0.0,0.0,0.0,0.0,0.0,0.0,0.0,0.0,0.0,0.0,0.0,0.0,0.0,0.0,0.0,0.0,0.0,0.0,6.6272,7.1994,8.5308,9.2302,9.2594,9.3734,9.4293,9.4058,9.1085,8.3463,0.0,0.0,0.0,0.0,0.0,0.0,0.0,0.0,0.0,0.0,0.0,0.0,0.0,0.0,0.0,0.0,0.0,0.0,0.0,0.0,0.0,0.0,0.0,0.0,0.0,0.0,0.0,0.0,0.0,0.0,0.0,0.0,0.0,0.0,0.0,0.0,0.0,0.0,0.0,0.0,0.0,6.9103,7.5372,7.4582,7.4754,0.0,7.51,7.2651,7.5522,7.4584,7.0895,6.3106,0.0,0.0,0.0,0.0,0.0,0.0,0.0,0.0,0.0,0.0,0.0,0.0,0.0,0.0,0.0,0.0,0.0,0.0,0.0,0.0,0.0,0.0,0.0,0.0,0.0,0.0,0.0,0.0,0.0,0.0,0.0,0.0,0.0,0.0,0.0,0.0,0.0,0.0,0.0,0.0,0.0,0.0,0.0,0.0,0.0,0.0,0.0,0.0,0.0,0.0,0.0,0.0,0.0,0.0,6.9939,8.1774,8.8862,9.0755,9.099,9.1448,9.2128,8.9184,0.0,0.0,0.0,0.0,0.0,0.0,0.0,0.0,0.0,0.0,0.0,0.0,0.0,0.0,0.0,0.0,0.0,0.0,0.0,0.0,0.0,0.0,0.0,0.0,0.0,0.0,0.0,2.3875,0.0,0.0,0.0,0.0,0.0,0.0,0.0,0.0,0.0,0.0,0.0,0.0,0.0,0.0,6.634,7.1871,6.8513,6.7449,0.0,0.0,6.6472,7.0476,6.9785,6.7102,0.0,0.0,0.0,0.0,0.0,0.0,0.0,0.0,0.0,0.0,0.0,0.0,0.0,0.0,0.0,0.0,0.0,0.0,0.0,0.0,0.0,0.0,0.0,0.0,0.0,0.0,0.0,0.0,0.0,0.0,0.0,0.0,0.0,0.0,0.0,0.0,0.0,0.0,0.0,0.0,0.0,0.0,0.0,0.0,0.0,0.0,0.0,0.0,0.0,0.0,0.0,0.0,0.0,0.0,5.997,6.8102,7.8074,8.512,8.8859,8.9383,8.9886,9.051,8.6907,7.9597,0.0,0.0,0.0,0.0,0.0,0.0,0.0,0.0,0.0,0.0,0.0,0.0,0.0,0.0,0.0,0.0,0.0,0.0,0.0,0.0,0.0,0.0,0.0,0.0,0.0,0.0,0.0,0.0,0.0,0.0,0.0,0.0,0.0,0.0,0.0,0.0,0.0,0.0,0.0,0.0,0.0,0.0,6.6815,6.383,0.0,0.0,0.0,6.2644,6.6656,0.0,0.0,0.0,0.0,0.0,0.0,0.0,0.0,0.0,0.0,0.0,0.0,0.0,0.0,0.0,0.0,0.0,0.0,0.0,0.0,0.0,0.0,0.0,0.0,0.0,0.0,0.0,0.0,0.0,0.0,0.0,0.0,0.0,0.0,0.0,0.0,0.0,0.0,0.0,0.0,0.0,0.0,0.0,0.0,0.0,0.0,0.0,0.0,0.0,0.0,0.0,0.0,0.0,0.0,0.0,0.0,0.0,6.6505,7.5484,8.2398,8.7229,8.8471,8.8976,8.8905,8.4409,7.7386,0.0,0.0,0.0,0.0,0.0,0.0,0.0,0.0,0.0,0.0,0.0,0.0,0.0,0.0,0.0,0.0,0.0,0.0,0.0,0.0,0.0,0.0,0.0,0.0,0.0,0.0,0.0,0.0,0.0,0.0,0.0,0.0,0.0,0.0,0.0,0.0,0.0,0.0,0.0,0.0,0.0,6.1034,6.2172,6.0205,5.928,0.0,0.0,5.9617,6.3179,6.2068,0.0,0.0,0.0,0.0,0.0,0.0,0.0,0.0,0.0,0.0,0.0,0.0,0.0,0.0,0.0,0.0,0.0,0.0,0.0,0.0,0.0,0.0,0.0,0.0,0.0,0.0,0.0,0.0,0.0,0.0,0.0,0.0,0.0,0.0,0.0,0.0,0.0,0.0,0.0,0.0,0.0,0.0,0.0,0.0,0.0,0.0,0.0,0.0,0.0,0.0,0.0,0.0,0.0,0.0,0.0,0.0,6.6745,7.8208,8.5219,8.7338,8.7441,8.7406,8.7264,8.284,7.5318,0.0,0.0,0.0,0.0,0.0,0.0,0.0,0.0,0.0,0.0,0.0,0.0,0.0,0.0,0.0,0.0,0.0,0.0,0.0,0.0,0.0,0.0,0.0,0.0,0.0,0.0,0.0,0.0,0.0,0.0,0.0,0.0,0.0,0.0,0.0,0.0,0.0,0.0,0.0,0.0,0.0,5.6505,6.2979,5.8135,0.0,0.0,0.0,0.0,5.8227,5.5271,0.0,0.0,0.0,0.0,0.0,0.0,0.0,0.0,0.0,0.0,0.0,0.0,0.0,0.0,0.0,0.0,0.0,0.0,0.0,0.0,0.0,0.0,0.0,0.0,0.0,0.0,0.0,0.0,0.0,0.0,0.0,0.0,0.0,0.0,0.0,0.0,0.0,0.0,0.0,0.0,0.0,0.0,0.0,0.0,0.0,0.0,0.0,0.0,0.0,0.0,0.0,0.0,0.0,0.0,0.0,0.0,6.8121,7.554,8.1372,8.5911,8.5845,8.5765,8.5694,8.1951,7.5032,0.0,0.0,0.0,0.0,0.0,0.0,0.0,0.0,0.0,0.0,0.0,0.0,0.0,0.0,0.0,0.0,0.0,0.0,0.0,0.0,0.0,0.0,0.0,0.0,0.0,0.0,0.0,0.0,0.0,0.0,0.0,0.0,0.0,0.0,0.0,0.0,0.0,0.0,0.0,0.0,5.1526,5.3477,6.0203,0.0,0.0,0.0,0.0,0.0,0.0,5.0113,4.7151,0.0,0.0,0.0,0.0,0.0,0.0,0.0,0.0,0.0,0.0,0.0,0.0,0.0,0.0,0.0,0.0,0.0,0.0,0.0,0.0,0.0,0.0,0.0,0.0,0.0,0.0,0.0,0.0,0.0,0.0,0.0,0.0,0.0,0.0,0.0,0.0,0.0,0.0,0.0,0.0,0.0,0.0,0.0,0.0,0.0,0.0,0.0,0.0,0.0,0.0,0.0,0.0,0.0,0.0,0.0,6.8329,7.1725,7.6815,8.3981,8.4443,8.4409,8.4086,8.138,7.5175,6.5287,0.0,0.0,0.0,0.0,0.0,0.0,0.0,0.0,0.0,0.0,0.0,0.0,0.0,0.0,0.0,0.0,0.0,0.0,0.0,0.0,0.0,0.0,0.0,0.0,0.0,0.0,0.0,0.0,0.0,0.0,0.0,0.0,0.0,0.0,0.0,0.0,0.0,0.0,0.0,4.8884,5.0393,0.0,0.0,0.0,0.0,0.0,0.0,0.0,0.0,4.3721,0.0,0.0,0.0,0.0,0.0,0.0,0.0,0.0,0.0,0.0,0.0,0.0,0.0,0.0,0.0,0.0,0.0,0.0,0.0,0.0,0.0,0.0,0.0,0.0,0.0,0.0,0.0,0.0,0.0,0.0,0.0,0.0,0.0,0.0,0.0,0.0,0.0,0.0,0.0,0.0,0.0,0.0,0.0,0.0,0.0,0.0,0.0,0.0,0.0,0.0,0.0,0.0,0.0,0.0,0.0,0.0,7.1496,7.8726,8.2483,8.3839,8.391,8.2626,8.081,7.4177,6.2244,0.0,0.0,0.0,0.0,0.0,0.0,0.0,0.0,0.0,0.0,0.0,0.0,0.0,0.0,0.0,0.0,0.0,0.0,0.0,0.0,0.0,0.0,0.0,0.0,0.0,0.0,0.0,0.0,0.0,0.0,0.0,0.0,0.0,0.0,0.0,0.0,0.0,0.0,3.5156,4.0243,0.0,0.0,0.0,0.0,0.0,0.0,0.0,0.0,4.311,0.0,0.0,0.0,0.0,0.0,0.0,0.0,0.0,0.0,0.0,0.0,0.0,0.0,0.0,0.0,0.0,0.0,0.0,0.0,0.0,0.0,0.0,0.0,0.0,0.0,0.0,0.0,0.0,0.0,0.0,0.0,0.0,0.0,0.0,0.0,0.0,0.0,0.0,0.0,0.0,0.0,0.0,0.0,0.0,0.0,0.0,0.0,0.0,0.0,0.0,0.0,0.0,0.0,0.0,0.0,0.0,0.0,0.0,7.563,8.081,8.1698,8.1769,8.0881,7.703,7.021,0.0,0.0,0.0,0.0,0.0,0.0,0.0,0.0,0.0,0.0,0.0,0.0,0.0,0.0,0.0,0.0,0.0,0.0,0.0,0.0,0.0,0.0,0.0,0.0,0.0,0.0,0.0,0.0,0.0,0.0,0.0,0.0,0.0,0.0,0.0,0.0,0.0,0.0,0.0,0.0,0.0,0.0,0.0,0.0,0.0,0.0,0.0,0.0,0.0,0.0,0.0,0.0,0.0,0.0,0.0,0.0,0.0,0.0,0.0,0.0,0.0,0.0,0.0,0.0,0.0,0.0,0.0,0.0,0.0,0.0,0.0,0.0,0.0,0.0,0.0,0.0,0.0,0.0,0.0,0.0,0.0,0.0,0.0,0.0,0.0,0.0,0.0,0.0,0.0,0.0,0.0,0.0,0.0,0.0,0.0,0.0,0.0,0.0,0.0,0.0,0.0,0.0,0.0,0.0,0.0,0.0,0.0,0.0,7.2193,7.9169,7.974,7.974,7.9415,7.2993,6.5644,0.0,0.0,0.0,0.0,0.0,0.0,0.0,0.0,0.0,0.0,0.0,0.0,0.0,0.0,0.0,0.0,0.0,0.0,0.0,0.0,0.0,0.0,0.0,0.0,0.0,0.0,0.0,0.0,0.0,0.0,0.0,0.0,0.0,0.0,0.0,0.0,0.0,0.0,0.0,0.0,0.0,0.0,0.0,0.0,0.0,0.0,0.0,0.0,3.55,0.0,0.0,0.0,0.0,0.0,0.0,0.0,0.0,0.0,0.0,0.0,0.0,0.0,0.0,0.0,0.0,0.0,0.0,0.0,0.0,0.0,0.0,0.0,0.0,0.0,0.0,0.0,0.0,0.0,0.0,0.0,0.0,0.0,0.0,0.0,0.0,0.0,0.0,0.0,0.0,0.0,0.0,0.0,0.0,0.0,0.0,0.0,0.0,0.0,0.0,0.0,0.0,0.0,0.0,0.0,0.0,0.0,0.0,0.0,7.1238,7.7631,7.9169,7.9241,7.7631,7.0282,6.1934,0.0,0.0,0.0,0.0,0.0,0.0,0.0,0.0,0.0,0.0,0.0,0.0,0.0,0.0,0.0,0.0,0.0,0.0,0.0,0.0,0.0,0.0,0.0,0.0,0.0,0.0,0.0,0.0,0.0,0.0,0.0,0.0,0.0,0.0,0.0,0.0,0.0,0.0,0.0,0.0,0.0,0.0,0.0,0.0,0.0,0.0,0.0,0.0,0.0,0.0,0.0,0.0,0.0,0.0,0.0,0.0,0.0,0.0,0.0,0.0,0.0,0.0,0.0,0.0,0.0,0.0,0.0,0.0,0.0,0.0,0.0,0.0,0.0,0.0,0.0,0.0,0.0,0.0,0.0,0.0,0.0,0.0,0.0,0.0,0.0,0.0,0.0,0.0,0.0,0.0,0.0,0.0,0.0,0.0,0.0,0.0,0.0,0.0,0.0,0.0,0.0,0.0,0.0,0.0,0.0,0.0,0.0,0.0,6.5261,7.335,7.5919,7.6061,7.3564,6.41,5.6654,0.0,0.0,0.0,0.0,0.0,0.0,0.0,0.0,0.0,0.0,0.0,0.0,0.0,0.0,0.0,0.0,0.0,0.0,0.0,0.0,0.0,0.0,0.0,0.0,0.0,0.0,0.0,0.0,0.0,0.0,0.0,0.0,0.0,0.0,0.0,0.0,0.0,0.0,0.0,0.0,0.0,0.0,0.0,0.0,0.0,0.0,0.0,0.0,0.0,0.0,0.0,0.0,0.0,0.0,0.0,0.0,0.0,0.0,0.0,0.0,0.0,0.0,0.0,0.0,0.0,0.0,0.0,0.0,0.0,0.0,0.0,0.0,0.0,0.0,0.0,0.0,0.0,0.0,0.0,0.0,0.0,0.0,0.0,0.0,0.0,0.0,0.0,0.0,0.0,0.0,0.0,0.0,0.0,0.0,0.0,0.0,0.0,0.0,0.0,0.0,0.0,0.0,0.0,0.0,0.0,0.0,0.0,0.0,0.0,6.7784,7.1994,7.1923,6.7428,5.8366,5.173,0.0,0.0,0.0,0.0,0.0,0.0,0.0,0.0,0.0,0.0,0.0,0.0,0.0,0.0,0.0,0.0,0.0,0.0,0.0,0.0,0.0,0.0,0.0,0.0,0.0,0.0,0.0,0.0,0.0,0.0,0.0,0.0,0.0,0.0,0.0,0.0,0.0,0.0,0.0,0.0,0.0,0.0,0.0,0.0,0.0,0.0,0.0,0.0,0.0,0.0,0.0,0.0,0.0,0.0,0.0,0.0,0.0,0.0,0.0,0.0,0.0,0.0,0.0,0.0,0.0,0.0,0.0,0.0,0.0,0.0,0.0,0.0,0.0,0.0,0.0,0.0,0.0,0.0,0.0,0.0,0.0,0.0,0.0,0.0,0.0,0.0,0.0,0.0,0.0,0.0,0.0,0.0,0.0,0.0,0.0,0.0,0.0,0.0,0.0,0.0,0.0,0.0,0.0,0.0,0.0,0.0,0.0,0.0,0.0,6.153,6.7597,6.7071,5.9722,5.4442,4.7592,0.0,0.0,0.0,0.0,0.0,0.0,0.0,0.0,0.0,0.0,0.0,0.0,0.0,0.0,0.0,0.0,0.0,0.0,0.0,0.0,0.0,0.0,0.0,0.0,0.0,0.0,0.0,0.0,0.0,0.0,0.0,0.0,0.0,0.0,0.0,0.0,0.0,0.0,0.0,0.0,0.0,0.0,0.0,0.0,0.0,0.0,0.0,0.0,0.0,0.0,0.0,0.0,0.0,0.0,0.0,0.0,0.0,0.0,0.0,0.0,0.0,0.0,0.0,0.0,0.0,0.0,0.0,0.0,0.0,0.0,0.0,0.0,0.0,0.0,0.0,0.0,0.0,0.0,0.0,0.0,0.0,0.0,0.0,0.0,0.0,0.0,0.0,0.0,0.0,0.0,0.0,0.0,0.0,0.0,0.0,0.0,0.0,0.0,0.0,0.0,0.0,0.0,0.0,0.0,0.0,0.0,0.0,0.0,0.0,4.8091,5.3015,5.6725,5.8651,4.8305,4.2954,4.3256,0.0,0.0,0.0,0.0,0.0,0.0,0.0,0.0,0.0,0.0,0.0,0.0,0.0,0.0,0.0,0.0,0.0,0.0,0.0,0.0,0.0,0.0,0.0,0.0,0.0,0.0,0.0,0.0,0.0,0.0,0.0,0.0,0.0,0.0,0.0,0.0,0.0,0.0,0.0,0.0,0.0,0.0,0.0,0.0,0.0,0.0,0.0,0.0,0.0,0.0,0.0,0.0,0.0,0.0,0.0,0.0,0.0,0.0,0.0,0.0,0.0,0.0,0.0,0.0,0.0,0.0,0.0,0.0,0.0,0.0,0.0,0.0,0.0,0.0,0.0,0.0,0.0,0.0,0.0,0.0,0.0,0.0,0.0,0.0,0.0,0.0,0.0,0.0,0.0,0.0,0.0,0.0,0.0,0.0,0.0,0.0,0.0,0.0,0.0,0.0,0.0,0.0,0.0,0.0,0.0,0.0,0.0,0.0,4.2152,4.7235,5.1588,5.4584,4.5094,4.0243,0.0,0.0,0.0,0.0,0.0,0.0,0.0,0.0,0.0,0.0,0.0,0.0,0.0,0.0,0.0,0.0,0.0,0.0,0.0,0.0,0.0,0.0,0.0,0.0,0.0,0.0,0.0,0.0,0.0,0.0,0.0,0.0,0.0,0.0,0.0,0.0,0.0,0.0,0.0,0.0,0.0,0.0,0.0,0.0,0.0,0.0,0.0,0.0,0.0,0.0,0.0,0.0,0.0,0.0,0.0,0.0,0.0,0.0,0.0,0.0,0.0,0.0,0.0,0.0,0.0,0.0,0.0,0.0,0.0,0.0,0.0,0.0,0.0,0.0,0.0,0.0,0.0,0.0,0.0,0.0,0.0,0.0,0.0,0.0,0.0,0.0,0.0,0.0,0.0,0.0,0.0,0.0,0.0,0.0,0.0,0.0,0.0,0.0,0.0,0.0,0.0,0.0,0.0,0.0,0.0,0.0,0.0,0.0,3.4695,4.6326,5.2515,5.2851,4.7449,4.538,3.9513,0.0,0.0,0.0,0.0,0.0,0.0,0.0,0.0,0.0,0.0,0.0,0.0,0.0,0.0,0.0,0.0,0.0,0.0,0.0,0.0,0.0,0.0,0.0,0.0,0.0,0.0,0.0,0.0,0.0,0.0,0.0,0.0,0.0,0.0,0.0,0.0,0.0,0.0,0.0,0.0,0.0,0.0,0.0,0.0,0.0,0.0,0.0,0.0,0.0,0.0,0.0,0.0,0.0,0.0,0.0,0.0,0.0,0.0,0.0,0.0,0.0,0.0,0.0,0.0,0.0,0.0,0.0,0.0,0.0,0.0,0.0,0.0,0.0,0.0,0.0,0.0,0.0,0.0,0.0,0.0,0.0,0.0,0.0,0.0,0.0,0.0,0.0,0.0,0.0,0.0,0.0,0.0,0.0,0.0,0.0,0.0,0.0,0.0,0.0,0.0,0.0,0.0,0.0,0.0,0.0,0.0,0.0,0.0,0.0,3.4551,0.0,4.6307,0.0,4.4042,3.9656,0.0,0.0,0.0,0.0,0.0,0.0,0.0,0.0,0.0,0.0,0.0,0.0,0.0,0.0,0.0,0.0,0.0,0.0,0.0,0.0,0.0,0.0,0.0,0.0,0.0,0.0,0.0,0.0,0.0,0.0,0.0,0.0,0.0,0.0,0.0,0.0,0.0,0.0,0.0,0.0,0.0,0.0,0.0,0.0,0.0,0.0,0.0,0.0,0.0,0.0,0.0,0.0,0.0,0.0,0.0,0.0,0.0,0.0,0.0,0.0,0.0,0.0,0.0,0.0,0.0,0.0,0.0,0.0,0.0,0.0,0.0,0.0,0.0,0.0,0.0,0.0,0.0,0.0,0.0,0.0,0.0,0.0,0.0,0.0,0.0,0.0,0.0,0.0,0.0,0.0,0.0,0.0,0.0,0.0,0.0,0.0,0.0,0.0,0.0,0.0,0.0,0.0,0.0,0.0,0.0,0.0,0.0,0.0,0.0,3.5042,3.6647,4.2043,5.0803,4.3613,4.0171,0.0,0.0,0.0,0.0,0.0,0.0,0.0,0.0,0.0,0.0,0.0,0.0,0.0,0.0,0.0,0.0,0.0,0.0,0.0,0.0,0.0,0.0,0.0,0.0,0.0,0.0,0.0,0.0,0.0,0.0,0.0,0.0,0.0,0.0,0.0,0.0,0.0,0.0,0.0,0.0,0.0,0.0,0.0,0.0,0.0,0.0,0.0,0.0,0.0,0.0,0.0,0.0,0.0,0.0,0.0,0.0,0.0,0.0,0.0,0.0,0.0,0.0,0.0,0.0,0.0,0.0,0.0,0.0,0.0,0.0,0.0,0.0,0.0,0.0,0.0,0.0,0.0,0.0,0.0,0.0,0.0,0.0,0.0,0.0,0.0,0.0,0.0,0.0,0.0,0.0,0.0,0.0,0.0,0.0,0.0,0.0,0.0,0.0,0.0,0.0,0.0,0.0,0.0,0.0,0.0,0.0,0.0,0.0,0.0,4.5183,4.0274,4.033,4.6326,4.3756,4.0687,0.0,0.0,0.0,0.0,0.0,0.0,0.0,0.0,0.0,0.0,0.0,0.0,0.0,0.0,0.0,0.0,0.0,0.0,0.0,0.0,0.0,0.0,0.0,0.0,0.0,0.0,0.0,0.0,0.0,0.0,0.0,0.0,0.0,0.0,0.0,0.0,0.0,0.0,0.0,0.0,0.0,0.0,0.0,0.0,0.0,0.0,0.0,0.0,0.0,0.0,0.0,0.0,0.0,0.0,0.0,0.0,0.0,0.0,0.0,0.0,0.0,0.0,0.0,0.0,0.0,0.0,0.0,0.0,0.0,0.0,0.0,0.0,0.0,0.0,0.0,0.0,0.0,0.0,0.0,0.0,0.0,0.0,0.0,0.0,0.0,0.0,0.0,0.0,0.0,0.0,0.0,0.0,0.0,0.0,0.0,0.0,0.0,0.0,0.0,0.0,0.0,0.0,0.0,0.0,0.0,0.0,0.0,0.0,0.0,0.0,3.5179,3.7189,3.9902,3.9259,3.8403,3.7546,0.0,0.0,0.0,0.0,0.0,0.0,0.0,0.0,0.0,0.0,0.0,0.0,0.0,0.0,0.0,0.0,0.0,0.0,0.0,0.0,0.0,0.0,0.0,0.0,0.0,0.0,0.0,0.0,0.0,0.0,0.0,0.0,0.0,0.0,0.0,0.0,0.0,0.0,0.0,0.0,0.0,0.0,0.0,0.0,0.0,0.0,0.0,0.0,0.0,0.0,0.0,0.0,0.0,0.0,0.0,0.0,0.0,0.0,0.0,0.0,0.0,0.0,0.0,0.0,0.0,0.0,0.0,0.0,0.0,0.0,0.0,0.0,0.0,0.0,0.0,0.0,0.0,0.0,0.0,0.0,0.0,0.0,0.0,0.0,0.0,0.0,0.0,0.0,0.0,0.0,0.0,0.0,0.0,0.0,0.0,0.0,0.0,0.0,0.0,0.0,0.0,0.0,0.0,0.0,0.0,0.0,0.0,0.0,0.0,0.0,3.4096,3.7403,3.7475,3.7832,0.0,0.0,0.0,0.0,0.0,0.0,0.0,0.0,0.0,0.0,0.0,0.0,0.0,0.0,0.0,0.0,0.0,0.0,0.0,0.0,0.0,0.0,0.0,0.0,0.0,0.0,0.0,0.0,0.0,0.0,0.0,0.0,0.0,0.0,0.0,0.0,0.0,0.0,0.0,0.0,0.0,0.0,0.0,0.0,0.0,0.0,0.0,0.0,0.0,0.0,0.0,0.0,0.0,0.0,0.0,0.0,0.0,0.0,0.0,0.0,0.0,0.0,0.0,0.0,0.0,0.0,0.0,0.0,0.0,0.0,0.0,0.0,0.0,0.0,0.0,0.0,0.0,0.0,0.0,0.0,0.0,0.0,0.0,0.0,0.0,0.0,0.0,0.0,0.0,0.0,0.0,0.0,0.0,0.0,0.0,0.0,0.0,0.0,0.0,0.0,0.0,0.0,0.0,0.0,0.0,0.0,0.0,0.0,0.0,0.0,0.0,3.1562,3.649,3.7332,0.0,3.8657,0.0,0.0,0.0,0.0,0.0,0.0,0.0,0.0,0.0,0.0,0.0,0.0,0.0,0.0,0.0,0.0,0.0,0.0,0.0,0.0,0.0,0.0,0.0,0.0,0.0,0.0,0.0,0.0,0.0,0.0,0.0,0.0,0.0,0.0,0.0,0.0,0.0,0.0,0.0,0.0,0.0,0.0,0.0,0.0,0.0,0.0,0.0,0.0,0.0,0.0,0.0,0.0,0.0,0.0,0.0,0.0,0.0,0.0,0.0,0.0,0.0,0.0,0.0,0.0,0.0,0.0,0.0,0.0,0.0,0.0,0.0,0.0,0.0,0.0,0.0,0.0,0.0,0.0,0.0,0.0,0.0,0.0,0.0,0.0,0.0,0.0,0.0,0.0,0.0,0.0,0.0,0.0,0.0,0.0,0.0,0.0,0.0,0.0,0.0,0.0,0.0,0.0,0.0,0.0,0.0,0.0,0.0,0.0,0.0,0.0,0.0,0.0,3.6161,3.666,3.124,0.0,0.0,0.0,0.0,0.0,0.0,0.0,0.0,0.0,0.0,0.0,0.0,0.0,0.0,0.0,0.0,0.0,0.0,0.0,0.0,0.0,0.0,0.0,0.0,0.0,0.0,0.0,0.0,0.0,0.0,0.0,0.0,0.0,0.0,0.0,0.0,0.0,0.0,0.0,0.0,0.0,0.0,0.0,0.0,0.0,0.0,0.0,0.0,0.0,0.0,0.0,0.0,0.0,0.0,0.0,0.0,0.0,0.0,0.0,0.0,0.0,0.0,0.0,0.0,0.0,0.0,0.0,0.0,0.0,0.0,0.0,0.0,0.0,0.0,0.0,0.0,0.0,0.0,0.0,0.0,0.0,0.0,0.0,0.0,0.0,0.0,0.0,0.0,0.0,0.0,0.0,0.0,0.0,0.0,0.0,0.0,0.0,0.0,0.0,0.0,0.0,0.0,0.0,0.0,0.0,0.0,0.0,0.0,0.0,0.0,3.3208,2.8469,3.4378,3.4735,2.8601,0.0,0.0,0.0,0.0,0.0,0.0,0.0,0.0,0.0,0.0,0.0,0.0,0.0,0.0,0.0,0.0,0.0,0.0,0.0,0.0,0.0,0.0,0.0,0.0,0.0,0.0,0.0,0.0,0.0,0.0,0.0,0.0,0.0,0.0,0.0,0.0,0.0,0.0,0.0,0.0,0.0,0.0,0.0,0.0,0.0,0.0,0.0,0.0,0.0,0.0,0.0,0.0,0.0,0.0,0.0,0.0,0.0,0.0,0.0,0.0,0.0,0.0,0.0,0.0,0.0,0.0,0.0,0.0,0.0,0.0,0.0,0.0,0.0,0.0,0.0,0.0,0.0,0.0,0.0,0.0,0.0,0.0,0.0,0.0,0.0,0.0,0.0,0.0,0.0,0.0,0.0,0.0,0.0,0.0,0.0,0.0,0.0,0.0,0.0,0.0,0.0,0.0,0.0,0.0,0.0,0.0,0.0,0.0,0.0,0.0,0.0,0.0,0.0,0.0,2.8994,0.0,0.0,0.0,0.0,0.0,0.0,0.0,0.0,0.0,0.0,0.0,0.0,0.0,0.0,0.0,0.0,0.0,0.0,0.0,0.0,0.0,0.0,0.0,0.0,0.0,0.0,0.0,0.0,0.0,0.0,0.0,0.0,0.0,0.0,0.0,0.0,0.0,0.0,0.0,0.0,0.0,0.0,0.0,0.0,0.0,0.0,0.0,0.0,0.0,0.0,0.0,0.0,0.0,0.0,0.0,0.0,0.0,0.0,0.0,0.0,0.0,0.0,0.0,0.0,0.0,0.0,0.0,0.0,0.0,0.0,0.0,0.0,0.0,0.0,0.0,0.0,0.0,0.0,0.0,0.0,0.0,0.0,0.0,0.0,0.0,0.0,0.0,0.0,0.0,0.0,0.0,0.0,0.0,0.0,0.0,0.0,0.0,0.0,0.0,0.0,0.0,0.0,0.0,0.0,0.0,0.0,0.0,0.0,0.0,0.0,0.0,0.0,0.0,0.0,0.0,0.0,0.0,0.0,0.0,0.0,0.0,0.0,0.0,0.0,0.0,0.0,0.0,0.0,0.0,0.0,0.0,0.0,0.0,0.0,0.0,0.0,0.0,0.0,0.0,0.0,0.0,0.0,0.0,0.0,0.0,0.0,0.0,0.0,0.0,0.0,0.0,0.0,0.0,0.0,0.0,0.0,0.0,0.0,0.0,0.0,0.0,0.0,0.0,0.0,0.0,0.0,0.0,0.0,0.0,0.0,0.0,0.0,0.0,0.0,0.0,0.0,0.0,0.0,0.0,0.0,0.0,0.0,0.0,0.0,0.0,0.0,0.0,0.0,0.0,0.0,0.0,0.0,0.0,0.0,0.0,0.0,0.0,0.0,0.0,0.0,0.0,0.0,0.0,0.0,0.0,0.0,0.0,0.0,0.0,0.0,0.0,0.0,0.0,0.0,0.0,0.0,0.0,0.0,0.0,0.0,0.0,0.0,0.0,0.0,0.0,0.0,0.0,0.0,0.0,0.0,0.0,0.0,0.0,0.0,0.0,0.0,0.0,0.0,0.0,0.0,0.0,0.0,0.0,0.0,0.0,0.0,0.0,0.0,0.0,0.0,0.0,0.0,0.0,0.0,0.0,0.0,0.0,0.0,0.0,0.0,0.0,0.0,0.0,0.0,0.0,0.0,0.0,0.0,0.0,0.0,0.0,0.0,0.0,0.0,0.0,0.0,0.0,0.0,0.0,0.0,0.0,0.0,0.0,0.0,0.0,0.0,0.0,0.0,0.0,0.0,0.0,0.0,0.0,0.0,0.0,0.0,0.0,0.0,0.0,0.0,0.0,0.0,0.0,0.0,0.0,0.0,0.0,0.0,0.0,0.0,0.0,0.0,0.0,0.0,0.0,0.0,0.0,0.0,0.0,0.0,0.0,0.0,0.0,0.0,0.0,0.0,0.0,0.0,0.0,0.0,0.0,0.0,0.0,0.0,0.0,0.0,0.0,0.0,0.0,0.0,0.0,0.0,0.0,0.0,0.0,0.0,0.0,0.0,0.0,0.0,0.0,0.0,0.0,0.0,0.0,0.0,0.0,0.0,0.0,0.0,0.0,0.0,0.0,0.0,0.0,0.0,0.0,0.0,0.0,0.0,0.0,0.0,0.0,0.0,0.0,0.0,0.0,0.0,0.0,0.0,0.0,0.0,0.0,0.0,0.0,0.0,0.0,0.0,0.0,0.0,0.0,0.0,0.0,0.0,0.0,0.0,0.0,0.0,0.0,0.0,0.0,0.0,0.0,0.0,0.0,0.0,0.0,0.0,0.0,0.0,0.0,0.0,0.0,0.0,0.0,0.0,0.0,0.0,0.0,0.0,0.0,0.0,0.0,0.0,0.0,0.0,0.0,0.0,0.0,0.0,0.0,0.0,0.0,0.0,0.0,0.0,0.0,0.0,0.0,0.0,0.0,0.0,0.0,0.0,0.0,0.0,0.0,0.0,0.0,0.0,0.0,0.0,0.0,0.0,0.0,0.0,0.0,0.0,0.0,0.0,0.0,0.0,0.0,0.0,0.0,0.0,0.0,0.0,0.0,0.0,0.0,0.0,0.0,0.0,0.0,0.0,0.0,0.0,0.0,0.0,0.0,0.0,0.0,0.0,0.0,0.0,0.0,0.0,0.0,0.0,0.0,0.0,0.0,0.0,0.0,0.0,0.0,0.0,0.0,0.0,0.0,0.0,0.0,0.0,0.0,0.0,0.0,0.0,0.0,0.0,0.0,0.0,0.0,0.0,0.0,0.0,0.0,0.0,0.0,0.0,0.0,0.0,0.0,0.0,0.0,0.0,0.0,0.0,0.0,0.0,0.0,0.0,0.0,0.0,0.0,0.0,0.0,0.0,0.0,0.0,0.0,0.0,0.0,0.0,0.0,0.0,0.0,0.0,0.0,0.0,0.0,0.0,0.0,0.0,0.0,0.0,0.0,0.0,0.0,0.0,0.0,0.0,0.0,0.0,0.0,0.0,0.0,0.0,0.0,0.0,0.0,0.0,0.0,0.0,0.0,0.0,0.0,0.0,0.0,0.0,0.0,0.0,0.0,0.0,0.0,0.0,0.0,0.0,0.0,0.0,0.0,0.0,0.0,0.0,0.0,0.0,0.0,0.0,0.0,0.0,0.0,0.0,0.0,0.0,0.0,0.0,0.0,0.0,0.0,0.0,0.0,0.0,0.0,0.0,0.0,0.0,0.0,0.0,0.0,0.0,0.0,0.0,0.0,0.0,0.0,0.0,0.0,0.0,0.0,0.0,0.0,0.0,0.0,0.0,0.0,0.0,0.0,0.0,0.0,0.0,0.0,0.0,0.0,0.0,0.0,0.0,0.0,0.0,0.0,0.0,0.0,0.0,0.0,0.0,0.0,0.0,0.0,0.0,0.0,0.0,0.0,0.0,0.0,0.0,0.0,0.0,0.0,0.0,0.0,0.0,0.0,0.0,0.0,0.0,0.0,0.0,0.0,0.0,0.0,0.0,0.0,0.0,0.0,0.0,0.0,0.0,0.0,0.0,0.0,0.0,0.0,0.0,0.0,0.0,0.0,0.0,0.0,0.0,0.0,0.0,0.0,0.0,0.0,0.0,0.0,0.0,0.0,0.0,0.0,0.0,0.0,0.0,0.0,0.0,0.0,0.0,0.0,0.0,0.0,0.0,0.0,0.0,0.0,0.0,0.0,0.0,0.0,0.0,0.0,0.0,0.0,0.0,0.0,0.0,0.0,0.0,0.0,0.0,0.0,0.0,0.0,0.0,0.0,0.0,0.0,0.0,0.0,0.0,0.0,0.0,0.0,0.0,0.0,0.0,0.0,0.0,0.0,0.0,0.0,0.0,0.0,0.0,0.0,0.0,0.0,0.0,0.0,0.0,0.0,0.0,0.0,0.0,0.0,0.0,0.0,0.0,0.0,0.0,0.0,0.0,0.0,0.0,0.0,0.0,0.0,0.0,0.0,0.0,0.0,0.0,0.0,0.0,0.0,0.0,0.0,0.0,0.0,0.0,0.0,0.0,0.0,0.0,0.0,0.0,0.0,0.0,0.0,0.0,0.0,0.0,0.0,0.0,0.0,0.0,0.0,0.0,0.0,0.0,0.0,0.0,0.0,0.0,0.0,0.0,0.0,0.0,0.0,0.0,0.0,0.0,0.0,0.0,0.0,0.0,0.0,0.0,0.0,0.0,0.0,0.0,0.0,0.0,0.0,0.0,0.0,0.0,0.0,0.0,0.0,0.0,0.0,0.0,0.0,0.0,0.0,0.0,0.0,0.0,0.0,0.0,0.0,0.0,0.0,0.0,0.0,0.0,0.0,0.0,0.0,0.0,0.0,0.0,0.0,0.0,0.0,0.0,0.0,0.0,0.0,0.0,0.0,0.0,0.0,0.0,0.0,0.0,0.0,0.0,0.0,0.0,0.0,0.0,0.0,0.0,0.0,0.0,0.0,0.0,0.0,0.0,0.0,0.0,0.0,0.0,0.0,0.0,0.0,0.0,0.0,0.0,0.0,0.0,0.0,0.0,0.0,0.0,0.0,0.0,0.0,0.0,0.0,0.0,0.0,0.0,0.0,0.0,0.0,0.0,0.0,0.0,0.0,0.0,0.0,0.0,0.0,0.0,0.0,0.0,0.0,0.0,0.0,0.0,0.0,0.0,0.0,0.0,0.0,0.0,0.0,0.0,0.0,0.0,0.0,0.0,0.0,0.0,0.0,0.0,0.0,0.0,0.0,0.0,0.0,0.0,0.0,0.0,0.0,0.0,0.0,0.0,0.0,0.0,0.0,0.0,0.0,0.0,0.0,0.0,0.0,0.0,0.0,0.0,0.0,0.0,0.0,0.0,0.0,0.0]}]]]